[[{"header":{"parameterUnit":"m.s-1","parameterCategory":1,"la1":30.6,"la2":28.766,"lo1":-90.7593,"lo2":-88.6598,"dy":0.0162,"dx":0.0183,"nx":116,"ny":114,"refTime":"2024-07-01T18:00:00:Z","depth":0,"parameterNumber":2,"parameterNumberName":"U-component_of_WINDS"},"data":[0.0,0.0,0.0,0.0,0.0,0.0,0.0,0.0,0.0,0.0,0.0,0.0,0.0,0.0,0.0,0.0,0.0,0.0,0.0,0.0,0.0,0.0,0.0,0.0,0.0,0.0,0.0,0.0,0.0,0.0,0.0,0.0,0.0,0.0,0.0,0.0,0.0,0.0,0.0,0.0,0.0,0.0,0.0,0.0,0.0,0.0,0.0,0.0,0.0,0.0,0.0,0.0,0.0,0.0,0.0,0.0,0.0,0.0,0.0,0.0,0.0,0.0,0.0,0.0,0.0,0.0,0.0,0.0,0.0,0.0,0.0,0.0,0.0,0.0,0.0,0.0,0.0,0.0,0.0,0.0,0.0,0.0,0.0,0.0,0.0,0.0,0.0,0.0,0.0,0.0,0.0,0.0,0.0,0.0,0.0,0.0,0.0,0.0,0.0,0.0,0.0,0.0,0.0,0.0,0.0,0.0,0.0,0.0,0.0,0.0,0.0,0.0,0.0,0.0,0.0,0.0,0.0,0.0,0.0,0.0,0.0,0.0,0.0,0.0,0.0,0.0,0.0,0.0,0.0,0.0,0.0,0.0,0.0,0.0,0.0,0.0,0.0,0.0,0.0,0.0,0.0,0.0,0.0,0.0,0.0,0.0,0.0,0.0,0.0,0.0,0.0,0.0,0.0,0.0,0.0,0.0,0.0,0.0,0.0,0.0,0.0,0.0,0.0,0.0,0.0,0.0,0.0,0.0,0.0,0.0,0.0,0.0,0.0,0.0,0.0,0.0,0.0,0.0,0.0,0.0,0.0,0.0,0.0,0.0,0.0,0.0,0.0,0.0,0.0,0.0,0.0,0.0,0.0,0.0,0.0,0.0,0.0,0.0,0.0,0.0,0.0,0.0,0.0,0.0,0.0,0.0,0.0,0.0,0.0,0.0,0.0,0.0,0.0,0.0,0.0,0.0,0.0,0.0,0.0,0.0,0.0,0.0,0.0,0.0,0.0,0.0,0.0,0.0,0.0,0.0,0.0,0.0,0.0,0.0,0.0,0.0,0.0,0.0,0.0,0.0,0.0,0.0,0.0,0.0,0.0,0.0,0.0,0.0,0.0,0.0,0.0,0.0,0.0,0.0,0.0,0.0,0.0,0.0,0.0,0.0,0.0,0.0,0.0,0.0,0.0,0.0,0.0,0.0,0.0,0.0,0.0,0.0,0.0,0.0,0.0,0.0,0.0,0.0,0.0,0.0,0.0,0.0,0.0,0.0,0.0,0.0,0.0,0.0,0.0,0.0,0.0,0.0,0.0,0.0,0.0,0.0,0.0,0.0,0.0,0.0,0.0,0.0,0.0,0.0,0.0,0.0,0.0,0.0,0.0,0.0,0.0,0.0,0.0,0.0,0.0,0.0,0.0,0.0,0.0,0.0,0.0,0.0,0.0,0.0,0.0,0.0,0.0,0.0,0.0,0.0,0.0,0.0,0.0,0.0,0.0,0.0,0.0,0.0,0.0,0.0,0.0,0.0,0.0,0.0,0.0,0.0,0.0,0.0,0.0,0.0,0.0,0.0,0.0,0.0,0.0,0.0,0.0,0.0,0.0,0.0,0.0,0.0,0.0,0.0,0.0,0.0,0.0,0.0,0.0,0.0,0.0,0.0,0.0,0.0,0.0,0.0,0.0,0.0,0.0,0.0,0.0,0.0,0.0,0.0,0.0,0.0,0.0,0.0,0.0,0.0,0.0,0.0,0.0,0.0,0.0,0.0,0.0,0.0,0.0,0.0,0.0,0.0,0.0,0.0,0.0,0.0,0.0,0.0,0.0,0.0,0.0,0.0,0.0,0.0,0.0,0.0,0.0,0.0,0.0,0.0,0.0,0.0,0.0,0.0,0.0,0.0,0.0,0.0,0.0,0.0,0.0,0.0,0.0,0.0,0.0,0.0,0.0,0.0,0.0,0.0,0.0,0.0,0.0,0.0,0.0,0.0,0.0,0.0,0.0,0.0,0.0,0.0,0.0,0.0,0.0,0.0,0.0,0.0,0.0,0.0,0.0,0.0,0.0,0.0,0.0,0.0,0.0,0.0,0.0,0.0,0.0,0.0,0.0,0.0,0.0,0.0,0.0,0.0,0.0,0.0,0.0,0.0,0.0,0.0,0.0,0.0,0.0,0.0,0.0,0.0,0.0,0.0,0.0,0.0,0.0,0.0,0.0,0.0,0.0,0.0,0.0,0.0,0.0,0.0,0.0,0.0,0.0,0.0,0.0,0.0,0.0,0.0,0.0,0.0,0.0,0.0,0.0,0.0,0.0,0.0,0.0,0.0,0.0,0.0,0.0,0.0,0.0,0.0,0.0,0.0,0.0,0.0,0.0,0.0,0.0,0.0,0.0,0.0,0.0,0.0,0.0,0.0,0.0,0.0,0.0,0.0,0.0,0.0,0.0,0.0,0.0,0.0,0.0,0.0,0.0,0.0,0.0,0.0,0.0,0.0,0.0,0.0,0.0,0.0,0.0,0.0,0.0,0.0,0.0,0.0,0.0,0.0,0.0,0.0,0.0,0.0,0.0,0.0,0.0,0.0,0.0,0.0,0.0,0.0,0.0,0.0,0.0,0.0,0.0,0.0,0.0,0.0,0.0,0.0,0.0,0.0,0.0,0.0,0.0,0.0,0.0,0.0,0.0,0.0,0.0,0.0,0.0,0.0,0.0,0.0,0.0,0.0,0.0,0.0,0.0,0.0,0.0,0.0,0.0,0.0,0.0,0.0,0.0,0.0,0.0,0.0,0.0,0.0,0.0,0.0,0.0,0.0,0.0,0.0,0.0,0.0,0.0,0.0,0.0,0.0,0.0,0.0,0.0,0.0,0.0,0.0,0.0,0.0,0.0,0.0,0.0,0.0,0.0,0.0,0.0,0.0,0.0,0.0,0.0,0.0,0.0,0.0,0.0,0.0,0.0,0.0,0.0,0.0,0.0,0.0,0.0,0.0,0.0,0.0,0.0,0.0,0.0,0.0,0.0,0.0,0.0,0.0,0.0,0.0,0.0,0.0,0.0,0.0,0.0,0.0,0.0,0.0,0.0,0.0,0.0,0.0,0.0,0.0,0.0,0.0,0.0,0.0,0.0,0.0,0.0,0.0,0.0,0.0,0.0,0.0,0.0,0.0,0.0,0.0,0.0,0.0,0.0,0.0,0.0,0.0,0.0,0.0,0.0,0.0,0.0,0.0,0.0,0.0,0.0,0.0,0.0,0.0,0.0,0.0,0.0,0.0,0.0,0.0,0.0,0.0,0.0,0.0,0.0,0.0,0.0,0.0,0.0,0.0,0.0,0.0,0.0,0.0,0.0,0.0,0.0,0.0,0.0,0.0,0.0,0.0,0.0,0.0,0.0,0.0,0.0,0.0,0.0,0.0,0.0,0.0,0.0,0.0,0.0,0.0,0.0,0.0,0.0,0.0,0.0,0.0,0.0,0.0,0.0,0.0,0.0,0.0,0.0,0.0,0.0,0.0,0.0,0.0,0.0,0.0,0.0,0.0,0.0,0.0,0.0,0.0,0.0,0.0,0.0,0.0,0.0,0.0,0.0,0.0,0.0,0.0,0.0,0.0,0.0,0.0,0.0,0.0,0.0,0.0,0.0,0.0,0.0,0.0,0.0,0.0,0.0,0.0,0.0,0.0,0.0,0.0,0.0,0.0,0.0,0.0,0.0,0.0,0.0,0.0,0.0,0.0,0.0,0.0,0.0,0.0,0.0,0.0,0.0,0.0,0.0,0.0,0.0,0.0,0.0,0.0,0.0,0.0,0.0,0.0,0.0,0.0,0.0,0.0,0.0,0.0,0.0,0.0,0.0,0.0,0.0,0.0,0.0,0.0,0.0,0.0,0.0,0.0,0.0,0.0,0.0,0.0,0.0,0.0,0.0,0.0,0.0,0.0,0.0,0.0,0.0,0.0,0.0,0.0,0.0,0.0,0.0,0.0,0.0,0.0,0.0,0.0,0.0,0.0,0.0,0.0,0.0,0.0,0.0,0.0,0.0,0.0,0.0,0.0,0.0,0.0,0.0,0.0,0.0,0.0,0.0,0.0,0.0,0.0,0.0,0.0,0.0,0.0,0.0,0.0,0.0,0.0,0.0,0.0,0.0,0.0,0.0,0.0,0.0,0.0,0.0,0.0,0.0,0.0,0.0,0.0,0.0,0.0,0.0,0.0,0.0,0.0,0.0,0.0,0.0,0.0,0.0,0.0,0.0,0.0,0.0,0.0,0.0,0.0,0.0,0.0,0.0,0.0,0.0,0.0,0.0,0.0,0.0,0.0,0.0,0.0,0.0,0.0,0.0,0.0,0.0,0.0,0.0,0.0,0.0,0.0,0.0,0.0,0.0,0.0,0.0,0.0,0.0,0.0,0.0,0.0,0.0,0.0,0.0,0.0,0.0,0.0,0.0,0.0,0.0,0.0,0.0,0.0,0.0,0.0,0.0,0.0,0.0,0.0,0.0,0.0,0.0,0.0,0.0,0.0,0.0,0.0,0.0,0.0,0.0,0.0,0.0,0.0,0.0,0.0,0.0,0.0,0.0,0.0,0.0,0.0,0.0,0.0,0.0,0.0,0.0,0.0,0.0,0.0,0.0,0.0,0.0,0.0,0.0,0.0,0.0,0.0,0.0,0.0,0.0,0.0,0.0,0.0,0.0,0.0,0.0,0.0,0.0,0.0,0.0,0.0,0.0,0.0,0.0,0.0,0.0,0.0,0.0,0.0,0.0,0.0,0.0,0.0,0.0,0.0,0.0,0.0,0.0,0.0,0.0,0.0,0.0,0.0,0.0,0.0,0.0,0.0,0.0,0.0,0.0,0.0,0.0,0.0,0.0,0.0,0.0,0.0,0.0,0.0,0.0,0.0,0.0,0.0,0.0,0.0,0.0,0.0,0.0,0.0,0.0,0.0,0.0,0.0,0.0,0.0,0.0,0.0,0.0,0.0,0.0,0.0,0.0,0.0,0.0,0.0,0.0,0.0,0.0,0.0,0.0,0.0,0.0,0.0,0.0,0.0,0.0,0.0,0.0,0.0,0.0,0.0,0.0,0.0,0.0,0.0,0.0,0.0,0.0,0.0,0.0,0.0,0.0,0.0,0.0,0.0,0.0,0.0,0.0,0.0,0.0,0.0,0.0,0.0,0.0,0.0,0.0,0.0,0.0,0.0,0.0,0.0,0.0,0.0,0.0,0.0,0.0,0.0,0.0,0.0,0.0,0.0,0.0,0.0,0.0,0.0,0.0,0.0,0.0,0.0,0.0,0.0,0.0,0.0,0.0,0.0,0.0,0.0,0.0,0.0,0.0,0.0,0.0,0.0,0.0,0.0,0.0,0.0,0.0,0.0,0.0,0.0,0.0,0.0,0.0,0.0,0.0,0.0,0.0,0.0,0.0,0.0,0.0,0.0,0.0,0.0,0.0,0.0,0.0,0.0,0.0,0.0,0.0,0.0,0.0,0.0,0.0,0.0,0.0,0.0,0.0,0.0,0.0,0.0,0.0,0.0,0.0,0.0,0.0,0.0,0.0,0.0,0.0,0.0,0.0,0.0,0.0,0.0,0.0,0.0,0.0,0.0,0.0,0.0,0.0,0.0,0.0,0.0,0.0,0.0,0.0,0.0,0.0,0.0,0.0,0.0,0.0,0.0,0.0,0.0,0.0,0.0,0.0,0.0,0.0,0.0,0.0,0.0,0.0,0.0,0.0,0.0,0.0,0.0,0.0,0.0,0.0,0.0,0.0,0.0,0.0,0.0,0.0,0.0,0.0,0.0,0.0,0.0,0.0,0.0,0.0,0.0,0.0,0.0,0.0,0.0,0.0,0.0,0.0,0.0,0.0,0.0,0.0,0.0,0.0,0.0,0.0,0.0,0.0,0.0,0.0,0.0,0.0,0.0,0.0,0.0,0.0,0.0,0.0,0.0,0.0,0.0,0.0,0.0,0.0,0.0,0.0,0.0,0.0,0.0,0.0,0.0,0.0,0.0,0.0,0.0,0.0,0.0,0.0,0.0,0.0,0.0,0.0,0.0,0.0,0.0,0.0,0.0,0.0,0.0,0.0,0.0,0.0,0.0,0.0,0.0,0.0,0.0,-0.107,-0.0974,0.0,0.0,0.0,0.0,0.0,0.0,0.0,0.0,0.0,0.0,0.0,0.0,0.0,0.0,0.0,0.0,0.0,0.0,0.0,0.0,0.0,0.0,0.0,-0.2422,-0.2092,-0.2092,-0.2214,-0.2325,-0.2431,0.0,0.0,0.0,0.0,0.0,-0.3066,-0.312,-0.3101,-0.2959,-0.3025,-0.3001,-0.2888,-0.2441,-0.2145,-0.1948,0.0,0.0,0.0,0.0,0.0,0.0,0.0,0.0,0.0,0.0,0.0,0.0,0.0,0.0,0.0,0.0,0.0,0.0,0.0,0.0,0.0,0.0,0.0,0.0,0.0,0.0,0.0,0.0,0.0,0.0,0.0,0.0,0.0,0.0,0.0,0.0,0.0,0.0,0.0,0.0,0.0,0.0,0.0,0.0,0.0,0.0,0.0,0.0,0.0,0.0,0.0,0.0,0.0,0.0,0.0,0.0,0.0,0.0,0.0,0.0,0.0,0.0,0.0,0.0,0.0,0.0,0.0,0.0,0.0,0.0,-0.1281,-0.1103,0.0,0.0,0.0,0.0,0.0,0.0,0.0,0.0,0.0,0.0,0.0,0.0,0.0,0.0,0.0,0.0,0.0,0.0,0.0,0.0,0.0,-0.2989,-0.2973,-0.262,-0.2383,-0.237,-0.2566,-0.2715,-0.2774,-0.2722,0.0,0.0,0.0,-0.2735,-0.2735,-0.2884,-0.2916,-0.2815,-0.2942,-0.3031,-0.3077,-0.2688,-0.2327,-0.2039,-0.1935,0.0,0.0,0.0,0.0,0.0,0.0,0.0,0.0,0.0,0.0,0.0,0.0,0.0,0.0,0.0,0.0,0.0,0.0,0.0,0.0,0.0,0.0,0.0,0.0,0.0,0.0,0.0,0.0,0.0,0.0,0.0,0.0,0.0,0.0,0.0,0.0,0.0,0.0,0.0,0.0,0.0,0.0,0.0,0.0,0.0,0.0,0.0,0.0,0.0,0.0,0.0,0.0,0.0,0.0,0.0,0.0,0.0,0.0,0.0,0.0,0.0,0.0,0.0,-0.1372,-0.1403,-0.1448,-0.14,-0.1431,-0.1569,-0.1424,-0.1177,-0.09,-0.076,0.0,0.0,0.0,0.0,0.0,0.0,0.0,0.0,0.0,0.0,0.0,0.0,0.0,0.0,0.0,0.0,0.0,0.0,0.0,-0.3303,-0.3246,-0.2944,-0.2705,-0.2652,-0.2687,-0.2795,-0.3034,-0.3036,0.0,0.0,-0.3322,-0.3298,-0.3298,-0.3265,-0.3132,-0.2896,-0.2459,-0.2372,-0.258,-0.2536,-0.2532,-0.2574,-0.234,-0.217,-0.2026,0.0,0.0,0.0,0.0,0.0,0.0,0.0,0.0,0.0,0.0,0.0,0.0,0.0,0.0,0.0,0.0,0.0,0.0,0.0,0.0,0.0,0.0,0.0,0.0,0.0,0.0,0.0,0.0,0.0,0.0,0.0,0.0,0.0,0.0,0.0,0.0,0.0,0.0,0.0,0.0,0.0,-0.1071,-0.1095,0.0,0.0,0.0,0.0,0.0,0.0,0.0,0.0,0.0,0.0,0.0,0.0,0.0,-0.1339,-0.1488,-0.1549,-0.1606,-0.1659,-0.1712,-0.1741,-0.1749,-0.1741,-0.1746,-0.1761,-0.1314,0.0,-0.0858,-0.0146,0.0,0.0,0.0,0.0,0.0,0.0,0.0,0.0,0.0,0.0,0.0,0.0,0.0,0.0,0.0,0.0,0.0,0.0,0.0,0.0,0.0,-0.3104,-0.2962,-0.2924,-0.3069,-0.3193,-0.331,-0.3317,-0.3353,-0.3429,-0.3411,-0.3393,-0.3336,-0.3253,-0.3085,-0.2902,-0.2555,-0.2611,-0.3041,-0.2566,-0.2555,-0.2911,-0.2572,-0.2372,-0.2258,-0.1944,0.0,0.0,0.0,0.0,0.0,0.0,0.0,0.0,0.0,0.0,0.0,0.0,0.0,0.0,0.0,0.0,0.0,0.0,0.0,0.0,0.0,0.0,0.0,0.0,0.0,0.0,0.0,0.0,0.0,0.0,0.0,0.0,0.0,0.0,0.0,0.0,0.0,0.0,0.0,-0.0939,-0.1084,-0.1155,-0.1219,-0.1233,0.0,0.0,0.0,0.0,0.0,0.0,0.0,0.0,0.0,-0.1447,-0.1482,-0.1589,-0.1676,-0.1704,-0.1731,-0.1758,-0.1785,-0.1797,-0.1797,-0.1515,-0.1403,-0.1347,-0.0673,-0.0328,-0.0261,0.0051,0.0346,0.0575,0.0,0.0,0.0,0.0,0.0734,0.0725,0.0,0.0,0.0,0.0,0.0,0.0,0.0,0.0,0.0,0.0,0.0,0.0,-0.3406,-0.3297,-0.3214,-0.3199,-0.3393,-0.3506,0.0,0.0,-0.3457,-0.3411,-0.3393,-0.3357,-0.3303,-0.311,-0.2942,-0.2834,-0.2619,-0.2758,-0.325,-0.2594,-0.2556,-0.301,-0.2723,-0.2478,-0.2342,-0.2089,-0.1869,0.0,0.0,0.0,0.0,0.0,0.0,0.0,0.0,0.0,0.0,0.0,0.0,0.0,0.0,0.0,0.0,0.0,0.0,0.0,0.0,0.0,0.0,0.0,0.0,0.0,0.0,0.0,0.0,0.0,0.0,0.0,0.0,0.0,0.0,0.0,0.0,0.0,0.0,-0.102,-0.1111,-0.1202,-0.1281,-0.1337,0.0,0.0,0.0,0.0,0.0,0.0,-0.1368,-0.1556,-0.1645,-0.1661,-0.1706,-0.1751,-0.1796,-0.1797,-0.1741,-0.1628,-0.1628,-0.1572,-0.1403,-0.1066,-0.0897,-0.0897,-0.0112,0.0168,0.0168,0.0265,0.0519,0.0825,0.0782,0.0765,0.0768,0.079,0.0784,0.0775,0.0,0.0,0.0,0.0,0.0,0.0,0.0,0.0,0.0,0.0,0.0,-0.3758,-0.3685,-0.3616,-0.3553,-0.3483,-0.3496,-0.3506,0.0,0.0,-0.3411,-0.3411,-0.3336,-0.3303,-0.3303,-0.2923,-0.2689,-0.2619,-0.2347,-0.2375,-0.2647,-0.2592,-0.2676,-0.2824,-0.2804,-0.2566,-0.2206,-0.2206,-0.211,-0.197,0.0,0.0,0.0,0.0,0.0,0.0,0.0,0.0,0.0,0.0,0.0,0.0,0.0,0.0,0.0,0.0,0.0,0.0,0.0,0.0,0.0,0.0,0.0,0.0,0.0,0.0,0.0,0.0,0.0,0.0,0.0,0.0,0.0,0.0,0.0,0.0,0.0,0.0,0.0,-0.1291,-0.1393,0.0,0.0,0.0,0.0,-0.1301,-0.1453,-0.1602,-0.1602,-0.1665,-0.1728,-0.1786,-0.1791,-0.1794,-0.1797,-0.1797,-0.1572,-0.1122,-0.1122,-0.0897,-0.0449,-0.0449,-0.0449,-0.0393,-0.0,0.0112,0.0056,0.0615,0.0893,0.0893,0.089,0.0889,0.0889,0.089,0.089,0.0889,0.0,0.0,0.0,-0.3911,-0.3911,-0.3911,-0.3911,-0.3911,-0.389,-0.3839,-0.3776,-0.371,0.0,-0.358,-0.352,-0.3506,-0.3506,-0.3506,-0.3506,0.0,-0.3492,-0.3596,-0.3566,-0.3465,-0.3291,-0.2956,-0.2741,-0.2676,-0.2555,-0.2677,-0.2988,-0.2769,-0.2799,-0.3045,-0.2821,-0.2598,-0.2405,-0.2339,-0.2195,-0.1994,-0.195,-0.1861,0.0,0.0,0.0,0.0,0.0,0.0,0.0,0.0,0.0,0.0,0.0,0.0,0.0,0.0,0.0,0.0,0.0,0.0,0.0,0.0,0.0,0.0,0.0,0.0,0.0,0.0,0.0,0.0,0.0,0.0,0.0,0.0,0.0,0.0,0.0,0.0,0.0,-0.1405,-0.1533,0.0,-0.1475,-0.1557,-0.1581,-0.1577,-0.1637,-0.1691,-0.173,-0.1753,-0.1775,-0.1796,-0.1797,-0.1797,-0.1797,-0.1797,-0.1572,-0.1122,-0.1122,-0.0841,-0.0393,-0.0112,-0.0,-0.0,0.0449,0.0617,0.0561,0.0561,0.0729,0.0897,0.0897,0.0785,0.0561,0.0561,0.0561,0.0617,-0.4026,-0.4009,0.0,-0.3911,-0.3911,-0.3911,-0.3911,-0.3911,-0.3873,-0.3804,-0.3734,-0.3685,-0.3612,-0.3541,-0.3506,-0.3506,-0.3506,-0.3506,-0.3506,-0.3481,-0.3496,-0.3605,-0.3536,-0.3394,-0.3129,-0.2928,-0.2771,0.0,0.0,0.0,0.0,0.0,-0.2814,-0.3012,-0.2814,-0.2613,-0.2509,-0.2442,-0.2295,-0.2094,-0.2062,-0.1957,-0.1876,0.0,0.0,0.0,0.0,0.0,0.0,0.0,0.0,0.0,0.0,0.0,0.0,0.0,0.0,0.0,0.0,0.0,0.0,0.0,0.0,0.0,0.0,0.0,0.0,0.0,0.0,0.0,0.0,0.0,0.0,0.0,0.0,0.0,0.0,-0.1444,-0.1599,-0.1689,-0.1777,-0.1823,-0.1801,-0.1715,-0.1693,-0.1734,-0.1737,-0.1754,-0.1795,-0.1797,-0.1797,-0.1797,-0.1628,-0.1572,-0.1572,-0.1403,-0.1122,-0.0673,-0.0673,-0.0393,0.0056,0.0336,0.0449,0.0449,0.0785,0.0897,0.0897,0.0673,0.0617,0.0729,0.0841,0.0785,0.0561,0.0336,0.028,0.028,-0.4026,-0.4005,-0.3984,-0.3911,-0.3911,-0.3911,-0.3911,-0.3911,-0.3873,-0.3804,-0.3734,-0.3685,-0.3612,-0.3541,-0.3506,-0.3506,-0.3506,-0.3506,-0.3506,-0.3436,-0.3397,-0.3413,-0.3214,-0.2998,-0.2807,-0.2815,-0.2776,0.0,0.0,0.0,0.0,0.0,0.0,0.0,-0.2721,-0.2621,-0.2523,-0.2488,-0.2423,-0.2292,-0.2151,-0.2078,-0.2004,0.0,0.0,0.0,0.0,0.0,0.0,0.0,0.0,0.0,0.0,0.0,0.0,0.0,0.0,0.0,0.0,0.0,0.0,0.0,0.0,0.0,0.0,0.0,0.0,0.0,0.0,0.0,0.0,0.0,0.0,0.0,0.0,0.0,-0.1476,-0.1828,-0.2118,-0.212,-0.215,-0.2211,-0.219,-0.198,-0.1797,-0.1797,-0.1797,-0.1797,-0.1797,-0.1797,-0.1797,-0.1797,-0.1347,-0.1066,-0.1066,-0.0617,-0.0224,0.0224,0.0224,0.0449,0.0897,0.0897,0.0897,0.0897,0.0897,0.0897,0.0897,0.0897,0.0673,0.0393,0.0729,0.0898,0.0786,0.0225,-0.0,-0.0,-0.4097,-0.4042,-0.3984,-0.3911,-0.3911,-0.3911,-0.3911,-0.3911,-0.3848,-0.3751,-0.371,-0.3647,-0.3541,-0.3503,-0.3506,-0.3506,-0.3506,-0.3506,-0.3506,-0.3481,-0.3484,-0.3551,-0.3212,-0.3044,-0.3095,0.0,0.0,0.0,0.0,0.0,0.0,0.0,0.0,0.0,0.0,-0.2867,-0.2924,-0.2512,-0.2313,-0.2229,-0.2252,-0.2232,-0.2199,0.0,0.0,0.0,0.0,0.0,0.0,0.0,0.0,0.0,0.0,0.0,0.0,0.0,0.0,0.0,0.0,0.0,0.0,0.0,0.0,0.0,0.0,0.0,0.0,0.0,0.0,0.0,0.0,0.0,0.0,0.0,-0.206,-0.2268,-0.1949,-0.2239,-0.2488,-0.2553,-0.2549,-0.2456,-0.2211,-0.2117,-0.2019,-0.1797,-0.1797,-0.1797,-0.1797,-0.1797,-0.1628,-0.1291,-0.1178,-0.0953,-0.0617,-0.0449,-0.0224,0.0224,0.0224,0.0449,0.0897,0.0897,0.0897,0.0897,0.0897,0.0897,0.0897,0.0897,0.0561,0.0112,0.0224,0.0228,0.0232,0.0058,-0.0,-0.0,-0.4113,-0.4039,-0.3984,-0.3911,-0.3911,-0.3911,-0.3911,-0.3911,-0.3848,-0.3727,-0.371,-0.3647,-0.3506,-0.3506,-0.3506,-0.3506,-0.3506,-0.3506,-0.3506,-0.3444,-0.3362,-0.3215,0.0,-0.2959,0.0,0.0,0.0,0.0,0.0,0.0,0.0,0.0,0.0,0.0,0.0,-0.2988,-0.308,-0.2576,-0.2306,-0.2277,-0.2071,-0.1961,-0.1883,-0.1782,-0.1752,-0.1761,-0.1807,-0.1844,-0.1861,-0.192,0.0,0.0,0.0,0.0,0.0,0.0,0.0,0.0,0.0,0.0,0.0,0.0,0.0,0.0,0.0,0.0,0.0,0.0,0.0,0.0,0.0,0.0,0.0,0.0,-0.2543,-0.2797,-0.2575,-0.2681,-0.2847,-0.285,-0.2856,-0.2799,-0.2574,-0.2464,-0.2354,-0.2188,-0.2188,-0.2132,-0.2076,-0.2076,-0.1851,-0.1403,-0.0897,-0.0505,-0.0224,-0.0,0.028,0.0505,0.0505,0.0617,0.0897,0.0897,0.0897,0.0897,0.0617,0.0505,0.0505,0.0505,0.0336,-0.0,0.0,0.0,0.0,0.0,-0.0,-0.0,-0.4113,-0.4059,-0.3984,-0.3911,-0.3911,-0.3911,-0.3911,-0.3911,-0.3848,-0.3727,-0.371,-0.3647,-0.3506,-0.3506,-0.3506,-0.3506,-0.3506,-0.3498,-0.3485,-0.3307,0.0,-0.2737,-0.2815,-0.2802,0.0,0.0,0.0,0.0,0.0,0.0,0.0,0.0,0.0,0.0,0.0,-0.2923,-0.2973,-0.2501,-0.2296,-0.2244,-0.1697,-0.1421,-0.1336,-0.1328,-0.135,-0.1425,-0.1525,-0.1694,-0.1896,-0.199,0.0,0.0,0.0,0.0,0.0,0.0,0.0,0.0,0.0,0.0,0.0,0.0,0.0,0.0,0.0,0.0,0.0,0.0,0.0,0.0,0.0,0.0,0.0,0.0,-0.303,-0.335,-0.3174,-0.3131,-0.3131,-0.3131,-0.3131,-0.3131,-0.313,-0.2856,-0.2691,-0.2691,-0.2692,-0.2635,-0.2465,-0.2297,0.0,0.0,0.0,-0.0056,0.0112,0.0617,0.0897,0.0841,0.0841,0.0841,0.0841,0.0897,0.0897,0.0841,0.028,0.0168,0.0393,0.0393,0.0336,0.0168,0.0056,-0.0,-0.0,-0.0,-0.0,-0.0,-0.4187,-0.4088,-0.4005,-0.3984,-0.3935,-0.3911,-0.3911,-0.3911,-0.3848,-0.3727,-0.371,-0.3647,-0.3506,-0.3506,-0.3506,-0.3506,-0.3506,-0.3468,0.0,0.0,-0.2731,-0.2928,0.0,0.0,0.0,0.0,0.0,0.0,0.0,0.0,0.0,0.0,0.0,0.0,0.0,-0.2511,-0.2265,-0.1789,-0.1584,-0.1532,-0.1079,-0.1124,-0.1518,-0.1419,-0.1387,-0.1404,-0.1363,-0.1471,-0.1657,-0.169,-0.1858,-0.2087,-0.2057,0.0,0.0,0.0,0.0,0.0,0.0,0.0,0.0,0.0,0.0,0.0,0.0,0.0,0.0,0.0,0.0,0.0,0.0,0.0,0.0,-0.2826,-0.3254,-0.3557,-0.3524,-0.3527,-0.3527,-0.3527,-0.3527,-0.3413,-0.3131,-0.3025,-0.2804,-0.2465,-0.2583,-0.2699,-0.2643,-0.174,-0.1178,-0.1066,-0.0841,-0.028,0.0729,0.0841,0.0785,0.0505,0.0505,0.0,0.0505,0.0785,0.0897,0.0841,0.028,0.1122,0.2927,0.2927,0.2302,0.1346,0.0404,-0.0,-0.0,-0.0,-0.0,-0.0,-0.4207,-0.4121,-0.4039,-0.4005,-0.3935,-0.3911,-0.3911,-0.3911,-0.3869,-0.3755,-0.371,-0.3664,-0.3559,-0.3524,-0.3506,-0.3506,-0.34,0.0,0.0,-0.2859,-0.2681,0.0,0.0,0.0,0.0,0.0,0.0,0.0,0.0,0.0,0.0,0.0,0.0,0.0,0.0,-0.2188,-0.2055,-0.1611,-0.1416,-0.1345,-0.087,-0.0902,-0.1127,-0.105,-0.0982,-0.0979,-0.0957,-0.1112,-0.1334,-0.1334,-0.1587,-0.1855,-0.1852,-0.1978,-0.2105,0.0,0.0,0.0,0.0,0.0,0.0,0.0,0.0,0.0,0.0,0.0,0.0,0.0,0.0,-0.2479,-0.2684,0.0,-0.3039,-0.3205,-0.3436,-0.3584,-0.3584,-0.3588,-0.3589,-0.3584,-0.3588,-0.3532,-0.3357,-0.3308,-0.2973,-0.2183,-0.2186,-0.2527,-0.3099,-0.2588,-0.1698,-0.046,-0.046,-0.0174,0.0471,0.0766,0.0825,0.0648,0.0353,0.0177,0.0177,0.0348,0.046,0.046,0.0113,0.1515,0.3955,0.367,0.2896,0.1779,0.1783,0.1035,-0.0,-0.0,-0.0,-0.0,-0.4207,-0.4158,-0.4097,-0.4005,-0.3935,-0.3911,-0.3911,-0.3911,-0.3873,-0.3804,-0.3755,-0.3685,-0.3612,-0.3559,-0.3524,0.0,0.0,0.0,0.0,0.0,0.0,0.0,0.0,0.0,0.0,0.0,0.0,0.0,0.0,0.0,0.0,0.0,0.0,0.0,0.0,-0.1817,-0.1788,-0.1433,-0.1255,-0.121,-0.0853,-0.0719,-0.0714,-0.0623,-0.0602,-0.0637,-0.0591,-0.0766,-0.1036,-0.0988,-0.117,-0.1401,-0.1522,-0.1728,-0.1961,-0.2056,-0.2081,0.0,0.0,0.0,0.0,0.0,0.0,0.0,0.0,-0.2596,-0.2763,-0.2789,-0.2827,-0.2928,-0.3316,-0.3207,-0.3199,-0.3572,-0.3588,-0.3587,-0.3589,-0.3596,-0.3539,-0.3304,-0.3443,-0.3515,-0.3279,-0.3457,-0.3174,-0.2205,-0.1742,-0.185,-0.2871,-0.289,-0.201,-0.0059,-0.0,-0.0,-0.0,0.0497,0.0745,0.0741,0.0248,-0.0,-0.0,-0.0,-0.0,-0.0,-0.0,0.1316,0.3505,0.3682,0.3027,0.2071,0.3189,0.2292,0.0342,0.0113,-0.0,-0.0,-0.4207,-0.4187,-0.4145,-0.4026,-0.3935,-0.3911,-0.3911,-0.3911,-0.3873,-0.3804,-0.3783,-0.3734,-0.3612,-0.3591,-0.3556,-0.3506,0.0,0.0,0.0,0.0,0.0,0.0,0.0,0.0,0.0,0.0,0.0,0.0,0.0,0.0,0.0,0.0,0.0,0.0,0.0,-0.125,-0.0853,-0.0809,-0.0764,-0.0764,-0.0719,-0.0719,-0.0719,-0.0712,-0.0693,-0.0665,-0.0638,-0.0666,-0.0736,-0.0592,-0.0581,-0.0717,-0.1196,-0.1375,-0.1469,-0.1946,0.0,-0.2302,-0.2146,-0.2126,-0.2214,-0.2582,-0.2593,-0.2588,0.0,-0.2971,-0.2994,-0.311,-0.3182,-0.3223,-0.3246,-0.3391,-0.3526,-0.3604,-0.3602,-0.3599,-0.3607,-0.3608,-0.3207,-0.2127,-0.2936,-0.3166,-0.2105,-0.2988,-0.3522,-0.3403,-0.1425,-0.028,-0.0393,-0.0404,-0.0293,-0.0,-0.0,-0.0,-0.0,0.0063,0.0127,0.0124,0.0063,-0.0,-0.0,-0.0,-0.0,-0.0,-0.0,0.0183,0.067,0.3188,0.356,0.257,0.3314,0.2755,0.1454,0.0401,-0.0,-0.0056,-0.4207,-0.4207,-0.4166,-0.408,-0.3997,-0.3935,-0.3911,-0.3911,-0.389,-0.3856,-0.3821,-0.3759,-0.3661,-0.358,-0.3478,-0.3333,-0.3183,0.0,-0.3176,0.0,0.0,0.0,0.0,0.0,0.0,0.0,0.0,0.0,0.0,0.0,0.0,0.0,0.0,0.0,0.0,-0.0898,-0.0719,-0.0719,-0.0719,-0.0719,-0.0719,-0.0719,-0.0719,-0.0719,-0.0711,-0.0699,-0.0686,-0.067,0.0,0.0,-0.0523,-0.0542,-0.0753,-0.1043,-0.1346,-0.1581,-0.1927,0.0,-0.2314,-0.2329,-0.2418,-0.2733,-0.297,-0.3166,-0.3158,-0.2585,-0.2296,-0.307,-0.2788,-0.2413,-0.2413,-0.2496,-0.2578,-0.2526,-0.314,-0.3623,-0.3619,-0.3615,-0.3166,-0.1967,-0.1617,-0.1884,-0.2768,-0.2061,-0.1531,-0.1531,-0.0592,-0.0,-0.0,-0.0,-0.0,-0.0,-0.0,-0.0,-0.0,-0.0,-0.0,-0.0,-0.0,-0.0,-0.0,-0.0,-0.0,0.0123,0.1791,0.1557,0.0126,0.1988,0.2432,0.2019,0.2299,0.1604,0.0369,-0.036,-0.0653,-0.0651,-0.424,-0.4207,-0.4187,-0.4138,-0.408,-0.3997,-0.3911,-0.3911,-0.3911,-0.3911,-0.3856,-0.3797,-0.371,-0.3605,-0.3439,-0.3229,-0.318,-0.3121,0.0,-0.2951,0.0,0.0,0.0,0.0,0.0,0.0,0.0,0.0,0.0,0.0,0.0,0.0,0.0,0.0,-0.0719,-0.0719,-0.0719,-0.0719,-0.0719,-0.072,-0.0728,-0.0727,-0.072,-0.0729,-0.0727,-0.0719,-0.0719,-0.0705,0.0,0.0,-0.0581,-0.0562,-0.0518,-0.0781,-0.1102,-0.1206,-0.1625,-0.2095,-0.2344,-0.2283,-0.2254,-0.2449,-0.2719,-0.3028,-0.3251,-0.2388,-0.167,-0.2213,-0.2314,-0.2073,-0.14,-0.1287,-0.1287,-0.1287,-0.2017,-0.2624,-0.26,-0.2605,-0.2276,-0.1409,-0.0516,-0.0702,-0.2443,-0.1014,-0.0,-0.0,-0.0,-0.0,-0.0,-0.0,-0.0,-0.0,-0.0,-0.0,-0.0,-0.0,-0.0,-0.0,-0.0,-0.0,-0.0,-0.0,-0.0,0.0128,0.1969,0.16,-0.0195,0.1083,0.1663,0.169,0.1082,0.0442,-0.0253,-0.0886,-0.1128,-0.1047,-0.4289,-0.424,-0.4207,-0.4187,-0.4138,-0.4052,-0.3928,-0.3911,-0.3911,-0.3911,-0.389,-0.3848,-0.3706,-0.3636,-0.3489,-0.3226,-0.3315,-0.3292,-0.3027,-0.3128,0.0,0.0,0.0,0.0,0.0,0.0,0.0,0.0,0.0,0.0,0.0,0.0,0.0,0.0,-0.0719,-0.0719,-0.0719,-0.0719,-0.0719,-0.0722,-0.0751,-0.0746,-0.0723,-0.0752,-0.0745,-0.0719,-0.0719,0.0,0.0,0.0,-0.0648,-0.0655,-0.0531,-0.0523,0.0,-0.0983,-0.1481,-0.1921,-0.2092,-0.1761,-0.1454,-0.1457,-0.1431,-0.1823,-0.3289,-0.2633,-0.1453,-0.0336,-0.1908,-0.2815,-0.0505,-0.0056,-0.0056,-0.0056,-0.0058,-0.0116,-0.0113,-0.0115,-0.0116,-0.0056,-0.0,-0.0,-0.0123,-0.0062,-0.0,-0.0,-0.0,-0.0,-0.0,-0.0,-0.0,-0.0,-0.0,-0.0,-0.0,-0.0,-0.0,-0.0,-0.0,-0.0,-0.0,-0.0,-0.0,-0.007,-0.0681,-0.1009,-0.0942,0.0873,0.181,0.1876,-0.0201,-0.0335,0.0535,-0.0671,-0.1104,-0.1112,-0.4333,-0.4273,-0.426,-0.4207,-0.4183,-0.4138,-0.4052,-0.3948,-0.3911,-0.3911,-0.3856,0.0,0.0,0.0,0.0,0.0,-0.3167,-0.3141,-0.2832,-0.2927,0.0,0.0,0.0,0.0,0.0,0.0,0.0,0.0,0.0,0.0,0.0,0.0,0.0,0.0,-0.0719,-0.0719,-0.0719,-0.0719,-0.0731,-0.0749,-0.0739,-0.0741,-0.0748,-0.0739,-0.0728,-0.0716,0.0,0.0,0.0,0.0,-0.0605,-0.0605,-0.0519,0.0,0.0,-0.079,-0.0966,-0.1068,-0.08,-0.0594,-0.0465,-0.0476,-0.0487,-0.0607,-0.1119,-0.0897,-0.0504,-0.0056,-0.0673,-0.0954,-0.0168,-0.0,-0.0,-0.0,-0.0,-0.0,-0.0,-0.0,-0.0,-0.0,-0.0,-0.0,-0.0,-0.0,-0.0,-0.0,-0.0,-0.0,-0.0,-0.0,-0.0,-0.0,-0.0,-0.0,-0.0,-0.0,-0.0,-0.0,-0.0,-0.0,-0.0,-0.0497,-0.0779,-0.0862,-0.0206,-0.034,-0.0967,0.0676,0.0806,-0.0067,-0.0269,-0.0403,-0.0537,-0.0942,-0.113,-0.1109,-0.4467,-0.4358,-0.4293,-0.424,-0.4203,0.0,0.0,0.0,0.0,0.0,0.0,0.0,0.0,0.0,0.0,0.0,0.0,-0.2926,-0.2625,-0.2743,0.0,0.0,0.0,0.0,0.0,0.0,0.0,0.0,0.0,0.0,0.0,0.0,0.0,0.0,0.0,-0.0539,-0.0675,-0.0539,-0.0593,-0.0748,-0.0739,-0.0741,-0.0748,-0.0739,-0.0729,0.0,0.0,0.0,0.0,-0.0604,-0.0597,-0.0608,0.0,0.0,0.0,0.0,-0.0712,-0.0651,-0.0343,-0.0103,-0.0,-0.0,-0.0,-0.0,-0.0,-0.0,-0.0,-0.0,-0.0,-0.0,-0.0,-0.0,-0.0,-0.0,-0.0,-0.0,-0.0,-0.0,-0.0,-0.0,-0.0,-0.0,-0.0,-0.0,-0.0,-0.0,-0.0,-0.0,-0.0,-0.0,-0.0,-0.0,-0.0,-0.0,-0.0,-0.0,-0.0,-0.0,-0.03,-0.0449,-0.0449,-0.0802,-0.1018,-0.1179,-0.0349,-0.0413,-0.0978,0.0272,0.0202,-0.0673,-0.0202,-0.0269,-0.0739,-0.1008,-0.1076,-0.1073,-0.4686,-0.4488,-0.4289,0.0,0.0,0.0,0.0,0.0,0.0,0.0,0.0,0.0,0.0,0.0,0.0,0.0,0.0,0.0,-0.2425,0.0,0.0,0.0,-0.257,-0.2275,-0.2019,-0.166,-0.13,0.0,0.0,0.0,0.0,0.0,0.0,0.0,0.0,-0.0269,-0.0675,-0.0224,-0.0314,-0.0724,-0.0751,-0.0746,-0.0725,-0.0752,0.0,0.0,0.0,0.0,0.0,0.0,0.0,0.0,0.0,0.0,0.0,0.0,-0.0699,-0.0684,-0.068,-0.0373,-0.0,-0.0,-0.0,-0.0,-0.0,-0.0,-0.0,-0.0,-0.0,-0.0,-0.0,-0.0,-0.0,-0.0,-0.0,-0.0,-0.0,-0.0,-0.0,-0.0,-0.0,-0.0,-0.0,-0.0,-0.0,-0.0,-0.0,-0.0,-0.0,-0.0,-0.0,-0.0,-0.0,-0.0,-0.0,-0.0076,-0.0077,-0.0079,-0.0864,-0.1257,-0.1256,-0.0842,-0.0833,-0.1211,-0.115,-0.1123,-0.1051,-0.0341,-0.0067,-0.0067,-0.0067,-0.0067,-0.0134,-0.0874,-0.1076,-0.1076,0.0,0.0,0.0,0.0,0.0,0.0,0.0,0.0,0.0,0.0,0.0,0.0,0.0,0.0,0.0,0.0,0.0,0.0,-0.2494,0.0,0.0,0.0,0.0,0.0,-0.2163,-0.1663,0.0,0.0,0.0,0.0,0.0,0.0,0.0,0.0,0.0,-0.0674,-0.0675,-0.0584,-0.064,-0.0752,0.0,-0.074,-0.0751,0.0,0.0,0.0,0.0,0.0,0.0,0.0,0.0,0.0,0.0,-0.0711,-0.0794,0.0,0.0,-0.0521,-0.0636,-0.038,-0.0,-0.0,-0.0,-0.0,-0.0,-0.0,-0.0,-0.0,-0.0,-0.0,-0.0,-0.0,-0.0,-0.0,-0.0,-0.0,-0.0,-0.0,-0.0,-0.0,-0.0,-0.0,-0.0,-0.0,-0.0,-0.0,-0.0,-0.0,-0.0,-0.0,-0.0,-0.0,-0.0,-0.0,-0.0,-0.0617,-0.0937,-0.0943,-0.0864,-0.0943,-0.1256,-0.1149,-0.1147,-0.1242,-0.1181,-0.1155,-0.1152,-0.0911,-0.0822,-0.0807,-0.0807,-0.0807,-0.0874,-0.1008,-0.1076,-0.1076,0.0,0.0,0.0,0.0,0.0,0.0,0.0,0.0,0.0,0.0,0.0,0.0,0.0,0.0,0.0,0.0,0.0,0.0,0.0,0.0,0.0,0.0,0.0,0.0,0.0,0.0,0.0,0.0,0.0,0.0,0.0,0.0,0.0,0.0,0.0,0.0,-0.0742,0.0,0.0,0.0,0.0,0.0,0.0,0.0,0.0,0.0,0.0,0.0,0.0,0.0,0.0,-0.0701,-0.0744,-0.0769,-0.0789,-0.0818,0.0,-0.0374,-0.038,-0.0221,-0.0,-0.0,-0.0,-0.0,-0.0,-0.0,-0.0,-0.0,-0.0,-0.0,-0.0,-0.0,-0.0,-0.0,-0.0,-0.0,-0.0,-0.0,-0.0,-0.0,-0.0,0.0606,0.208,0.0897,-0.0,-0.0,-0.0,-0.0,-0.0,-0.0,-0.0,-0.0,-0.0,-0.0,-0.0,-0.0858,-0.1336,-0.1336,-0.1021,-0.1021,-0.1335,-0.1239,-0.1241,-0.1332,-0.1193,-0.1166,-0.1163,-0.1119,-0.1091,-0.1076,-0.1076,-0.1076,-0.1076,-0.1076,-0.1076,-0.1076,0.0,0.0,0.0,0.0,0.0,0.0,0.0,0.0,0.0,-0.3911,-0.3911,-0.3786,0.0,0.0,0.0,0.0,0.0,0.0,0.0,0.0,0.0,0.0,0.0,0.0,0.0,0.0,0.0,0.0,0.0,0.0,0.0,0.0,0.0,0.0,0.0,0.0,0.0,0.0,0.0,0.0,0.0,0.0,0.0,0.0,0.0,0.0,0.0,0.0,0.0,0.0,-0.0755,-0.0746,-0.0796,-0.0815,-0.0824,-0.0797,-0.0643,-0.0378,-0.0111,-0.0,-0.0,-0.0,-0.0,-0.0,-0.0,-0.0,-0.0,-0.0,-0.0,-0.0,-0.0,-0.0,-0.0,-0.0,-0.0,0.0119,0.0492,0.057,0.0522,0.0269,0.027,0.1436,0.4358,0.2191,0.0578,0.0376,0.0149,-0.0,-0.0,-0.0,-0.0,-0.0,-0.0078,-0.0157,-0.0157,-0.0943,-0.1336,-0.1336,-0.1336,-0.1336,-0.1336,-0.1336,-0.1334,-0.1248,-0.1195,-0.1168,-0.1156,-0.1104,-0.1079,-0.1076,-0.1076,-0.1076,-0.1076,-0.1076,-0.1076,-0.1076,0.0,0.0,0.0,0.0,0.0,0.0,0.0,0.0,0.0,0.0,0.0,0.0,0.0,0.0,0.0,0.0,0.0,0.0,0.0,0.0,0.0,0.0,0.0,0.0,0.0,0.0,0.0,0.0,0.0,0.0,0.0,0.0,0.0,0.0,0.0,0.0,0.0,0.0,0.0,0.0,0.0,0.0,0.0,0.0,0.0,0.0,0.0,0.0,0.0,0.0,-0.0813,-0.0883,-0.0893,-0.0862,-0.0883,-0.0888,-0.0834,-0.0668,-0.0168,-0.0,-0.0,-0.0,-0.0,-0.0,-0.0,-0.0,0.0,-0.0,-0.0,-0.0,-0.0,-0.0,-0.0,-0.0,-0.0,0.0834,0.3202,0.3557,0.3134,0.1874,0.1713,0.1949,0.2519,0.3503,0.353,0.2191,0.0768,-0.0,-0.0,-0.0,-0.0,-0.0,-0.0705,-0.11,-0.11,-0.1257,-0.1336,-0.1336,-0.1336,-0.1336,-0.1336,-0.1336,-0.1244,-0.1219,-0.1209,-0.1175,-0.1128,-0.1118,-0.1098,-0.1076,-0.1076,-0.1076,-0.1076,-0.1076,-0.1076,-0.1076,0.0,0.0,0.0,0.0,0.0,0.0,0.0,0.0,0.0,0.0,0.0,0.0,0.0,0.0,0.0,0.0,0.0,0.0,0.0,0.0,0.0,0.0,0.0,0.0,0.0,0.0,-0.1927,0.0,0.0,0.0,0.0,0.0,0.0,0.0,0.0,0.0,0.0,0.0,0.0,0.0,0.0,0.0,0.0,0.0,0.0,0.0,0.0,0.0,0.0,0.0,-0.0804,-0.0834,-0.0866,-0.0885,-0.0897,-0.0897,-0.0886,-0.0767,-0.0335,0.0332,0.0768,0.0167,-0.0,-0.0,-0.0,0.0,0.0,-0.0,-0.0,-0.0,-0.0,-0.0,-0.0,-0.0,0.1072,0.234,0.3723,0.4162,0.4027,0.3344,0.3236,0.3241,0.3353,0.429,0.4338,0.302,0.2708,0.1803,0.0078,-0.0393,-0.0707,-0.0707,-0.0864,-0.0628,0.0079,-0.0864,-0.1021,-0.0393,-0.1021,-0.1336,-0.1335,-0.1241,-0.1226,-0.121,-0.1178,-0.1148,-0.112,-0.1104,-0.1089,-0.1076,-0.1076,-0.1076,-0.1076,-0.1076,-0.1076,-0.1076,0.0,0.0,0.0,0.0,0.0,0.0,0.0,0.0,0.0,0.0,0.0,0.0,0.0,0.0,0.0,0.0,0.0,0.0,0.0,0.0,0.0,0.0,0.0,0.0,0.0,0.0,0.0,-0.1842,0.0,0.0,0.0,0.0,0.0,0.0,0.0134,0.0,0.0,0.0,0.0,0.0,0.0,0.0,0.0,0.0,0.0,0.0,0.0,0.0,0.0,0.0,-0.0584,-0.0504,-0.0538,-0.0717,-0.0888,-0.0888,-0.0876,-0.0759,-0.0334,0.077,0.1628,0.0947,0.0382,-0.0,-0.0,-0.0,0.0,-0.0,-0.0,-0.0,-0.0,-0.0,-0.0,0.0,0.1617,0.3012,0.351,0.3946,0.4255,0.4246,0.4303,0.4356,0.447,0.4528,0.4265,0.3589,0.4378,0.3588,0.0548,-0.0235,-0.0705,-0.0779,-0.0312,0.0388,0.1392,-0.0077,-0.0386,0.0541,-0.0541,-0.0928,-0.085,-0.1061,-0.1049,-0.0743,-0.0856,-0.0768,-0.0624,-0.0814,-0.0874,-0.0874,-0.1008,-0.1076,-0.1076,-0.1076,-0.1076,-0.1076,0.0,0.0,0.0,0.0,0.0,0.0,0.0,0.0,0.0,0.0,0.0,0.0,0.0,0.0,0.0,0.0,0.0,0.0,0.0,0.0,0.0,0.0,0.0,0.0,0.0,0.0,0.0,-0.2613,-0.191,0.0,0.0,0.0,0.0,0.0,0.0,-0.0436,-0.0532,0.0,0.0,0.0,0.0,0.0,0.0,0.0,0.0,0.0,0.0,0.0,0.0,0.0,0.0,0.053,0.0503,-0.0156,-0.091,-0.091,0.0,0.0,0.0112,0.1064,0.2014,0.303,0.1638,-0.0,-0.0,0.0,-0.0,-0.0,-0.0,-0.0,-0.0,-0.0,-0.0,-0.0,0.0,0.1091,0.3274,0.3817,0.3993,0.4105,0.4227,0.4346,0.4459,0.4299,0.4225,0.4301,0.4488,0.3755,0.1801,0.1646,0.1319,0.0834,0.1365,0.165,0.1685,0.1098,0.0805,0.0952,0.0147,0.0147,0.0732,-0.0585,-0.0433,0.0776,0.014,0.0276,0.0877,0.0202,-0.0134,-0.0134,-0.0807,-0.1076,-0.1076,-0.1076,-0.1076,-0.1076,0.0,0.0,0.0,0.0,0.0,0.0,0.0,0.0,0.0,0.0,0.0,0.0,0.0,0.0,0.0,0.0,0.0,0.0,0.0,0.0,0.0,0.0,0.0,0.0,0.0,0.0,0.0,-0.2578,-0.1874,0.0,0.0,0.0,0.0,0.0,0.0,-0.0134,-0.0504,0.0,0.0,0.0,0.0,0.0,0.0,0.0,0.0,0.0,0.0,0.0,-0.0041,0.0,0.0,0.0,0.065,0.0386,0.0,0.0,-0.0636,-0.0691,0.0111,0.0883,0.1747,0.2965,0.2586,0.1539,0.0303,-0.0,-0.0,-0.0,-0.0,-0.0,-0.0,-0.0,-0.0,-0.0,-0.0,0.0581,0.2264,0.3232,0.376,0.3931,0.4117,0.4171,0.4218,0.4197,0.4151,0.4214,0.4263,0.3935,0.3072,0.2281,0.1756,0.1587,0.1414,0.1543,0.1964,0.1309,0.1236,0.1745,0.0945,0.0727,0.0944,0.0358,0.0425,0.098,0.0757,0.0815,0.1076,0.0807,0.0672,0.0605,-0.0134,-0.047,-0.047,-0.0941,-0.1076,-0.1076,0.0,0.0,0.0,0.0,0.0,0.0,0.0,0.0,0.0,0.0,0.0,0.0,0.0,0.0,0.0,0.0,0.0,0.0,0.0,0.0,0.0,0.0,0.0,0.0,0.0,0.0,0.0,-0.2606,-0.2041,-0.1773,0.0,0.0,-0.0705,-0.0841,0.0,0.0,0.0,0.0,0.0,0.0,0.0,0.0,0.0,0.0,0.0,0.0,0.0,0.0,0.0,0.0,0.0,0.0,0.0,0.0,0.0,0.0,-0.0311,-0.0468,0.0055,0.055,0.1139,0.2232,0.2827,0.2727,0.121,0.0428,-0.0,-0.0,-0.0,-0.0,-0.0,-0.0,-0.0,-0.0,-0.0,0.0309,0.1148,0.2634,0.3678,0.3815,0.3993,0.4064,0.4014,0.4063,0.4034,0.3924,0.3905,0.3828,0.3712,0.2866,0.2365,0.2365,0.196,0.1934,0.2489,0.1918,0.1918,0.2489,0.1705,0.1491,0.1633,0.1186,0.1246,0.1658,0.1491,0.1545,0.168,0.1478,0.1411,0.1344,0.0605,0.0336,0.0269,-0.047,-0.0807,-0.0807,0.0,0.0,0.0,0.0,0.0,0.0,0.0,0.0,0.0,0.0,0.0,0.0,0.0,0.0,0.0,0.0,0.0,0.0,0.0,0.0,0.0,0.0,0.0,0.0,0.0,0.0,0.0,0.0,0.0,-0.2408,-0.2373,-0.2045,-0.168,-0.1279,0.0,0.0,0.0,0.0,0.0,0.0,0.0,0.0,0.0,0.0,0.0,0.0,0.0,0.0,0.0,0.0,0.0,0.0,0.0,0.1218,0.0776,0.0,-0.0104,-0.0107,-0.0,0.0112,0.0335,0.095,0.213,0.3041,0.2888,0.1381,-0.0,-0.0,-0.0,-0.0,-0.0,-0.0,-0.0,-0.0,-0.0,-0.0,-0.0,0.2091,0.3598,0.3591,0.3876,0.4043,0.4008,0.3854,0.3679,0.3493,0.3417,0.3404,0.3495,0.3415,0.3367,0.3367,0.3366,0.3322,0.3164,0.3163,0.3163,0.3163,0.2486,0.2553,0.3162,0.1748,0.1883,0.316,0.2484,0.2551,0.3159,0.2484,0.2214,0.2147,0.1344,0.1076,0.1008,0.0269,-0.0,-0.0134,0.0,0.0,0.0,0.0,0.0,0.0,0.0,0.0,0.0,0.0,0.0,0.0,0.0,0.0,0.0,0.0,0.0,0.0,0.0,0.0,0.0,0.0,0.0,0.0,0.0,0.0,0.0,0.0,0.0,0.0,-0.2182,-0.1844,-0.1575,-0.1361,-0.1451,-0.1408,0.0,0.0,0.0,0.0,0.0,0.0,-0.0836,0.0,0.0,0.0,0.0,0.0,0.0,0.0,0.0,0.0,0.0,0.0,0.0,0.1684,0.0986,0.0348,0.0931,0.0313,-0.0313,0.073,0.1258,0.1797,0.258,0.2102,0.1211,0.0225,-0.0,-0.0,-0.0,-0.0,-0.0,-0.0,-0.0,0.0309,0.1095,0.1911,0.2487,0.2895,0.3489,0.3822,0.369,0.3455,0.3348,0.331,0.3287,0.3282,0.3311,0.3286,0.3298,0.3431,0.3302,0.3256,0.3227,0.3227,0.3227,0.3227,0.2957,0.3024,0.316,0.2755,0.2756,0.316,0.2956,0.3024,0.316,0.2956,0.2618,0.2147,0.1946,0.1545,0.1008,0.0269,-0.0,-0.0134,0.0,0.0,0.0,0.0,0.0,0.0,0.0,0.0,0.0,0.0,0.0,0.0,0.0,0.0,0.0,0.0,0.0,0.0,0.0,0.0,0.0,0.0,0.0,0.0,0.0,0.0,0.0,0.0,0.0,0.0,0.0,0.0,0.0,-0.1597,-0.166,0.0,0.0,0.0,0.0,0.0,0.0,0.0,-0.126,0.0,0.0,0.0,0.0,0.0,0.0,0.0,0.0,0.0,0.0,0.0,0.0,0.0,0.1665,0.135,0.1273,0.0302,-0.0504,0.0454,0.0441,0.0429,0.1193,0.134,0.1122,0.018,-0.0,-0.0,-0.0,-0.0,-0.0,-0.0,-0.0,0.0515,0.1914,0.2115,0.2287,0.2768,0.3319,0.357,0.3441,0.3274,0.3227,0.3227,0.3227,0.3227,0.3227,0.3227,0.3253,0.3309,0.3256,0.3227,0.3227,0.3227,0.3227,0.3227,0.3227,0.3227,0.3227,0.3227,0.3227,0.3227,0.3227,0.3227,0.0,0.3227,0.2956,0.2551,0.2551,0.2149,0.1411,0.0605,0.0202,-0.0134,0.0,0.0,0.0,0.0,0.0,0.0,0.0,0.0,0.0,0.0,0.0,0.0,0.0,0.0,0.0,0.0,0.0,0.0,0.0,0.0,0.0,0.0,0.0,0.0,0.0,0.0,0.0,-0.2467,-0.2632,-0.2603,-0.2484,0.0,0.0,0.0,-0.1944,0.0,0.0,0.0,0.0,0.0,-0.1412,-0.1351,0.0,0.0,0.0,0.0,0.0,0.0,0.0,0.0,0.0,0.0,0.0,0.0,0.0,0.0,0.0,0.0,0.0,0.0346,-0.0099,0.0298,-0.0243,-0.0854,-0.0856,-0.0416,0.0,-0.0,-0.0,-0.0,-0.0,-0.0,-0.0,-0.0,-0.0,0.0564,0.2239,0.2547,0.2691,0.3066,0.3181,0.323,0.3294,0.3243,0.3227,0.3227,0.3227,0.3227,0.3227,0.3227,0.3227,0.3227,0.3227,0.3227,0.3227,0.3227,0.3227,0.3227,0.3227,0.3227,0.3227,0.3227,0.3227,0.3227,0.3227,0.3227,0.3227,0.3227,0.3159,0.3093,0.3092,0.2686,0.2013,0.1142,0.047,-0.0067,0.0,0.0,0.0,0.0,0.0,0.0,0.0,0.0,0.0,0.0,0.0,0.0,0.0,0.0,0.0,0.0,0.0,0.0,0.0,0.0,0.0,0.0,0.0,0.0,0.0,0.0,0.0,-0.2259,-0.2454,-0.2474,-0.2342,-0.2412,0.0,0.0,0.0,0.0,0.0,0.0,0.0,0.0,-0.1756,-0.1812,0.0,0.0,0.0,0.0,-0.1592,-0.1295,0.0,0.0,0.0,0.0,0.0,0.0,0.0,0.0,0.1966,0.284,0.2461,0.0,0.1783,0.0433,-0.0044,-0.0219,0.0,-0.0091,-0.0,-0.0,0.0,-0.0,-0.0,-0.0,-0.0,-0.0,-0.0,0.0053,0.0276,0.0873,0.1571,0.2432,0.2567,0.2792,0.3194,0.3214,0.3227,0.3227,0.3227,0.3227,0.3227,0.3227,0.3227,0.3227,0.3227,0.3227,0.3227,0.3227,0.3227,0.3227,0.3227,0.3227,0.3227,0.3227,0.3227,0.3227,0.3227,0.3227,0.3227,0.3227,0.2689,0.2016,0.2148,0.188,0.1344,0.0941,0.0605,0.0335,0.0,0.0,0.0,0.0,0.0,0.0,0.0,0.0,0.0,0.0,0.0,0.0,0.0,0.0,0.0,0.0,0.0,0.0,0.0,0.0,0.0,0.0,0.0,0.0,0.0,0.0,0.0,0.0,0.0,-0.2342,0.0,0.0,0.0,0.0,0.0,0.0,0.0,0.0,0.0,0.0,-0.2036,0.0,0.0,0.0,0.0,0.0,-0.1917,-0.1715,0.0,-0.1771,-0.1451,-0.0866,0.0,0.0,0.0,0.0,0.1065,0.1568,0.1578,0.1585,0.1533,0.1373,0.0674,-0.0,-0.0,0.0,0.0,0.0,0.0,-0.0,-0.0,-0.0,-0.0,-0.0,-0.0,-0.0054,-0.0223,0.0409,0.1151,0.1903,0.2435,0.2847,0.3155,0.3227,0.3227,0.3227,0.3227,0.3208,0.3165,0.3163,0.3145,0.3103,0.3102,0.3142,0.3226,0.3227,0.3227,0.3227,0.3227,0.3227,0.3227,0.3227,0.3227,0.3227,0.3227,0.3227,0.3227,0.3227,0.2755,0.208,0.2183,0.1646,0.079,0.0649,0.0194,-0.0387,0.0,0.0,0.0,0.0,0.0,0.0,0.0,0.0,0.0,0.0,0.0,0.0,0.0,0.0,0.0,0.0,0.0,0.0,0.0,0.0,0.0,0.0,0.0,0.0,0.0,0.0,0.0,0.0,0.0,0.0,0.0,0.0,-0.1997,0.0,0.0,0.0,0.0,0.0,0.0,-0.1978,-0.2198,0.0,0.0,0.0,0.0,0.0,0.0,0.0,0.0,-0.2085,-0.2114,-0.1889,-0.0622,0.0,0.0,0.0,0.0,0.0,-0.0,-0.0,0.0388,0.2029,0.1211,-0.0,-0.0,0.0,0.0,0.0,0.0,0.0,0.0,0.0434,0.0445,0.0531,0.0215,-0.0054,-0.0112,0.0403,0.095,0.1463,0.2324,0.297,0.3177,0.3185,0.3185,0.3185,0.3185,0.3151,0.3074,0.3069,0.3034,0.3018,0.3015,0.3028,0.3118,0.3119,0.3192,0.3205,0.3205,0.3139,0.3139,0.3153,0.3152,0.3007,0.3072,0.3072,0.3006,0.3057,0.2852,0.2513,0.2388,0.1533,0.0383,0.0311,-0.0431,-0.1358,0.0,0.0,0.0,0.0,0.0,0.0,0.0,0.0,0.0,0.0,0.0,0.0,0.0,0.0,0.0,0.0,0.0,0.0,0.0,0.0,0.0,0.0,0.0,0.0,0.0,0.0,0.0,0.0,0.0,0.0,-0.2093,-0.2031,-0.2026,0.0,0.0,0.0,0.0,0.0,0.0,-0.223,-0.2168,0.0,0.0,0.0,0.0,0.0,0.0,0.0,0.0,-0.2083,-0.2105,-0.1987,-0.1367,0.0,0.0,0.0,0.0,0.0,-0.0,-0.0,0.0074,0.0369,0.0238,-0.0,-0.0,0.0,0.0,0.0,0.0,0.0,0.0,0.2308,0.2467,0.2984,0.1169,-0.0446,-0.0729,-0.0173,0.053,0.1005,0.1704,0.2361,0.2994,0.3058,0.3058,0.3058,0.3058,0.3052,0.3037,0.3036,0.303,0.3015,0.3015,0.2846,0.2626,0.2873,0.3035,0.3111,0.3111,0.298,0.2722,0.3057,0.2854,0.2271,0.2591,0.2527,0.2267,0.2273,0.2061,0.1622,0.118,0.0744,0.031,0.0123,-0.037,-0.1046,0.0,0.0,0.0,0.0,0.0,0.0,0.0,0.0,0.0,0.0,0.0,0.0,0.0,0.0,0.0,0.0,0.0,0.0,0.0,0.0,0.0,0.0,0.0,0.0,0.0,0.0,0.0,0.0,0.0,-0.1838,-0.1836,-0.1869,-0.1934,-0.2052,0.0,0.0,0.0,0.0,-0.2082,-0.2082,0.0,0.0,0.0,0.0,0.0,0.0,0.0,0.0,0.0,0.0,-0.2078,-0.2051,-0.1846,0.0,0.0,0.0,0.0,0.0,-0.0,-0.0,-0.0,-0.0,-0.0,-0.0088,-0.0313,0.0,0.0,0.0,0.0,0.0,0.0,0.13,0.1588,0.1224,0.0112,-0.0729,-0.0897,0.0113,0.1037,0.1348,0.1965,0.2541,0.2949,0.3015,0.3015,0.3015,0.3015,0.2995,0.2888,0.2885,0.2803,0.2577,0.2576,0.24,0.2109,0.2282,0.2399,0.2579,0.2579,0.2452,0.2328,0.2552,0.2422,0.214,0.2263,0.2075,0.1697,0.1735,0.1355,0.0799,0.0483,0.006,-0.0481,-0.0826,-0.1056,-0.1172,0.0,0.0,0.0,0.0,0.0,0.0,0.0,0.0,0.0,0.0,0.0,0.0,0.0,0.0,0.0,0.0,0.0,0.0,0.0,0.0,0.0,0.0,0.0,0.0,0.0,0.0,-0.1651,-0.1681,-0.1698,-0.1673,-0.1592,-0.1651,-0.1766,0.0,0.0,0.0,0.0,0.0,-0.1913,-0.1845,0.0,0.0,0.0,0.0,0.0,0.0,0.0,0.0,0.0,0.0,0.0,0.0,0.0,0.0,0.0,-0.1481,-0.0941,-0.0463,-0.0305,-0.0138,-0.0,-0.0,-0.0,-0.009,-0.0455,-0.0701,0.0,0.0,0.0,0.0,0.0,0.0428,0.0761,-0.0279,-0.056,-0.0672,-0.0673,0.0392,0.1243,0.1506,0.2152,0.2644,0.2886,0.2952,0.2952,0.2952,0.2952,0.2864,0.2799,0.2679,0.2531,0.2185,0.2128,0.1959,0.1679,0.1679,0.1788,0.2073,0.2073,0.2012,0.1953,0.2027,0.2027,0.183,0.1891,0.1647,0.1157,0.1149,0.0723,0.006,-0.0,-0.0465,-0.1162,-0.1644,-0.1628,-0.1459,0.0,0.0,0.0,0.0,0.0,0.0,0.0,0.0,0.0,0.0,0.0,0.0,0.0,0.0,0.0,0.0,0.0,0.0,0.0,0.0,0.0,0.0,0.0,0.0,0.0,-0.1379,-0.1477,-0.1615,-0.1487,-0.1488,-0.1591,-0.142,-0.1474,-0.172,0.0,0.0,0.0,0.0,-0.1642,-0.1608,-0.1642,0.0,0.0,0.0,0.0,0.0,0.0,0.0,0.0,0.0,0.0,0.0,0.0,0.0,-0.2083,-0.205,-0.1987,-0.1805,-0.1201,-0.0524,-0.0,-0.0,-0.0,-0.0,-0.0047,-0.0381,0.0,-0.0798,0.0,-0.0459,0.0899,0.1475,0.1506,0.0894,0.0391,0.0056,-0.0056,0.0056,0.0336,0.0897,0.1515,0.208,0.2652,0.271,0.271,0.271,0.271,0.2706,0.2701,0.2417,0.2244,0.2183,0.1958,0.168,0.1346,0.1346,0.1541,0.1888,0.1888,0.1772,0.154,0.1948,0.17,0.1005,0.1361,0.1123,0.0354,0.0286,0.0056,-0.0339,-0.0338,-0.0675,-0.1183,-0.1629,-0.1797,-0.1741,0.0,0.0,0.0,0.0,0.0,0.0,0.0,0.0,0.0,0.0,0.0,0.0,0.0,0.0,0.0,0.0,0.0,0.0,0.0,0.0,0.0,0.0,0.0,-0.1304,-0.1426,-0.1414,-0.1364,-0.1289,-0.1248,-0.1292,-0.1403,-0.1348,0.0,0.0,0.0,0.0,0.0,0.0,0.0,-0.1438,-0.1687,-0.1749,0.0,0.0,0.0,0.0,0.0,0.0,0.0,0.0,-0.171,-0.1761,-0.1861,-0.1938,-0.2036,-0.2036,-0.2063,-0.1953,-0.1289,-0.1189,-0.1093,-0.0227,-0.0,0.0,0.0,-0.0382,-0.055,-0.0621,-0.0797,-0.0271,0.1814,0.1334,0.0784,0.123,0.0894,0.0615,0.0559,0.0895,0.1231,0.1454,0.2014,0.2464,0.2691,0.2691,0.2691,0.2691,0.2691,0.2691,0.2691,0.2409,0.2127,0.1958,0.1624,0.1345,0.1066,0.1066,0.1129,0.1256,0.1256,0.12,0.1144,0.1273,0.1214,0.0914,0.0743,0.04,-0.0171,-0.0451,-0.0897,-0.1291,-0.1291,-0.1403,-0.1572,-0.1741,-0.1741,-0.1684,0.0,0.0,0.0,0.0,0.0,0.0,0.0,0.0,0.0,0.0,0.0,0.0,0.0,0.0,0.0,0.0,0.0,0.0,0.0,0.0,0.0,0.0,0.0,-0.1343,-0.152,-0.1459,-0.1393,-0.1316,-0.1229,-0.1208,-0.1233,0.0,0.0,0.0,0.0,0.0,0.0,0.0,0.0,0.0,-0.1578,-0.1659,0.0,0.0,0.0,0.0,0.0,0.0,0.0,0.0,-0.1559,-0.1604,-0.1707,-0.1841,-0.1947,-0.1987,-0.2033,-0.1996,-0.1531,-0.1417,-0.1283,-0.0591,0.0,0.0,-0.0504,-0.053,-0.0562,-0.0643,-0.0496,0.0112,0.1572,0.1121,0.0784,0.151,0.1229,0.095,0.1174,0.1397,0.1566,0.179,0.2183,0.2465,0.2691,0.2691,0.2691,0.2691,0.2691,0.2691,0.2691,0.2296,0.2014,0.179,0.1401,0.1066,0.0897,0.0897,0.0897,0.0897,0.0897,0.0897,0.0897,0.0897,0.0897,0.0897,0.0393,-0.0056,-0.0449,-0.0897,-0.1403,-0.1797,-0.1797,-0.1797,-0.1797,-0.1797,-0.1741,-0.1684,0.0,0.0,0.0,0.0,0.0,0.0,0.0,0.0,0.0,0.0,0.0,0.0,0.0,0.0,0.0,0.0,0.0,0.0,0.0,0.0,0.0,0.0,0.0,-0.1331,-0.1602,-0.1544,-0.1599,-0.1803,-0.152,-0.1298,-0.1098,-0.102,0.0,0.0,0.0,0.0,0.0,0.0,0.0,0.0,-0.1232,-0.1326,-0.1409,0.0,0.0,0.0,0.0,0.0,0.0,0.0,-0.1489,-0.159,-0.159,0.0,-0.1837,-0.196,-0.2036,-0.2102,-0.2086,-0.1053,-0.0233,0.0,0.0,0.0,-0.0813,-0.0836,-0.0876,-0.0885,0.0056,0.0727,0.0112,0.1008,0.179,0.179,0.1286,0.1118,0.1734,0.1286,0.1118,0.1734,0.179,0.2071,0.2634,0.2691,0.2691,0.2691,0.2691,0.2691,0.2691,0.2127,0.179,0.179,0.1233,0.0897,0.0897,0.0897,0.0897,0.0897,0.0897,0.0897,0.0897,0.0897,0.0897,0.0841,0.0393,-0.0056,-0.0449,-0.0897,-0.1403,-0.1797,-0.1797,-0.1797,-0.1797,-0.1797,-0.1797,-0.1797,0.0,0.0,0.0,0.0,0.0,0.0,0.0,0.0,0.0,0.0,0.0,0.0,0.0,0.0,0.0,0.0,0.0,0.0,0.0,0.0,0.0,0.0,0.0,0.0,0.0,0.0,-0.1765,-0.1452,-0.1076,-0.09,0.0,0.0,0.0,-0.0858,0.0,0.0,0.0,0.0,0.0,0.0,-0.1189,-0.1299,-0.1346,0.0,0.0,0.0,0.0,0.0,0.0,0.0,0.0,0.0,-0.1465,0.0,-0.182,-0.1858,-0.1967,-0.2009,-0.1524,-0.0956,0.0,-0.0842,0.0,0.0,0.0,-0.046,0.0,-0.0333,-0.0,0.0448,0.1119,0.1566,0.1958,0.2353,0.2296,0.2239,0.2409,0.2296,0.2239,0.2409,0.2409,0.2521,0.2691,0.2691,0.2691,0.2691,0.2465,0.2352,0.2352,0.1793,0.1458,0.1458,0.1066,0.0897,0.0897,0.0897,0.0897,0.0897,0.0897,0.0897,0.0897,0.0897,0.0729,0.0393,-0.0056,-0.0505,-0.0953,-0.1403,-0.1684,-0.1797,-0.1797,-0.1797,-0.1797,-0.1797,-0.1797,-0.1797,0.0,0.0,0.0,0.0,0.0,0.0,0.0,0.0,0.0,0.0,0.0,0.0,0.0,0.0,0.0,0.0,0.0,0.0,0.0,0.0,0.0,0.0,0.0,0.0,0.0,-0.1804,-0.1701,0.0,0.0,0.0,0.0,0.0,0.0,-0.1036,0.0,-0.1055,0.0,0.0,0.0,0.0,-0.1423,-0.1556,-0.1612,0.0,0.0,0.0,0.0,0.0,0.0,0.0,0.0,0.0,-0.1498,0.0,0.0,-0.1734,-0.1876,-0.1863,-0.1355,-0.0976,0.0,-0.0719,-0.0529,-0.0242,0.0408,0.0159,-0.0055,0.0279,0.056,0.0952,0.1679,0.2014,0.2296,0.2634,0.2691,0.2691,0.2691,0.2691,0.2691,0.2691,0.2691,0.2691,0.2691,0.2691,0.2634,0.2521,0.2296,0.2128,0.2071,0.1569,0.1291,0.1291,0.1066,0.0897,0.0897,0.0897,0.0897,0.0897,0.0897,0.0897,0.0897,0.0897,0.0617,0.0168,-0.0449,-0.0953,-0.1403,-0.1684,-0.1797,-0.1797,-0.1797,-0.1797,-0.1797,-0.1797,-0.1797,-0.1797,0.0,0.0,-0.4674,-0.4464,0.0,0.0,0.0,0.0,0.0,0.0,0.0,-0.2964,0.0,0.0,0.0,-0.2176,0.0,0.0,0.0,0.0,0.0,0.0,0.0,0.0,0.0,0.0,0.0,0.0,0.0,0.0,0.0,0.0,-0.141,-0.141,0.0,-0.141,0.0,0.0,0.0,0.0,-0.1812,-0.1968,-0.2071,-0.1964,0.0,0.0,0.0,0.0,0.0,0.0,0.0,0.0,-0.1645,-0.1566,-0.1463,-0.1662,-0.1722,-0.1672,-0.1469,-0.1057,-0.0672,-0.0624,-0.0135,0.0439,0.0786,0.0983,0.1062,0.1006,0.1397,0.179,0.1846,0.2352,0.2691,0.2691,0.2691,0.2691,0.2691,0.2691,0.2634,0.2634,0.2634,0.2634,0.2634,0.2634,0.2465,0.2183,0.2128,0.2016,0.1791,0.1458,0.1291,0.1291,0.101,0.0897,0.0841,0.0897,0.0841,0.0785,0.0841,0.0841,0.0785,0.0841,0.0561,0.0056,-0.0785,-0.1403,-0.1797,-0.1797,-0.1797,-0.1797,-0.1797,-0.1797,-0.1797,-0.1797,-0.1797,-0.1797,0.0,0.0,-0.4239,-0.3935,0.0,0.0,0.0,0.0,-0.3485,-0.3442,-0.329,-0.3141,-0.3055,-0.281,0.0,-0.2583,-0.2309,0.0,0.0,0.0,0.0,0.0,0.0,0.0,0.0,0.0,0.0,0.0,0.0,0.0,0.0,0.0,0.0,-0.141,0.0,-0.141,0.0,0.0,0.0,-0.1529,-0.1738,-0.185,-0.1876,-0.1961,-0.1971,0.0,0.0,0.0,0.0,0.0,0.0,0.0,-0.1647,-0.1662,-0.1738,-0.1828,-0.1484,-0.114,-0.1329,-0.1067,0.0,-0.0124,0.0689,0.1408,0.1473,0.1912,0.2183,0.1678,0.1734,0.1958,0.2409,0.2634,0.2691,0.2691,0.2691,0.2691,0.2691,0.2465,0.2296,0.2296,0.2127,0.2014,0.2014,0.2014,0.1958,0.1903,0.1625,0.1458,0.1402,0.1122,0.101,0.101,0.0953,0.0729,0.0336,0.0729,0.0561,-0.0112,0.0224,0.0168,-0.0112,0.0224,-0.0056,-0.0841,-0.1403,-0.1684,-0.1797,-0.1797,-0.1797,-0.1797,-0.1797,-0.1797,-0.1797,-0.1797,-0.1797,-0.1797,0.0,0.0,0.0,0.0,0.0,0.0,0.0,0.0,-0.3595,-0.3293,-0.3396,-0.3345,-0.2962,-0.2867,0.0,0.0,-0.2338,-0.2119,0.0,0.0,0.0,0.0,0.0,0.0,0.0,0.0,0.0,0.0,0.0,0.0,0.0,0.0,0.0,-0.1743,0.0,-0.1743,0.0,0.0,-0.1862,-0.1885,-0.2022,-0.2112,-0.2136,-0.2112,-0.209,-0.2092,-0.203,0.0,0.0,0.0,0.0,0.0,0.0,0.0,-0.198,-0.184,-0.1294,-0.0823,-0.119,0.0,0.0,0.0633,0.0,0.1733,0.1952,0.2314,0.2465,0.2232,0.2215,0.2352,0.2634,0.2691,0.2691,0.2691,0.2691,0.2634,0.2465,0.2296,0.2128,0.2015,0.1903,0.179,0.179,0.179,0.1734,0.1569,0.1402,0.1235,0.1122,0.0954,0.0897,0.0897,0.0673,0.0449,0.0224,0.0224,0.0056,-0.0393,-0.0168,-0.0336,-0.0729,-0.0505,-0.0673,-0.1122,-0.1572,-0.1797,-0.1797,-0.1797,-0.1797,-0.1797,-0.1797,-0.1797,-0.1797,-0.1797,-0.1797,-0.1797,0.0,0.0,0.0,0.0,0.0,0.0,0.0,0.0,0.0,-0.3121,-0.3409,-0.3418,-0.2797,-0.2872,-0.2913,0.0,0.0,0.0,-0.2186,0.0,0.0,0.0,0.0,0.0,0.0,0.0,0.0,0.0,0.0,0.0,0.0,0.0,0.0,-0.21,0.0,0.0,0.0,0.0,-0.2241,-0.2309,-0.2379,-0.2426,-0.244,-0.2296,-0.222,-0.2196,-0.2106,-0.2096,-0.2094,-0.2176,0.0,0.0,0.0,0.0,-0.2125,-0.184,-0.1274,-0.0779,-0.1108,0.0,0.0617,0.1263,0.1572,0.1825,0.2278,0.2406,0.2439,0.2567,0.2591,0.2644,0.2644,0.2656,0.2662,0.2647,0.2602,0.25,0.2221,0.211,0.1947,0.1734,0.1679,0.1623,0.1623,0.1623,0.1512,0.1235,0.1235,0.1122,0.0897,0.0897,0.0897,0.0897,0.0449,0.0168,0.0112,-0.0224,-0.0505,-0.0617,-0.0617,-0.0841,-0.1235,-0.1235,-0.1235,-0.1235,-0.1628,-0.1797,-0.1797,-0.1797,-0.1797,-0.1797,-0.1797,-0.1797,-0.1797,-0.1797,-0.1797,-0.1797,0.0,0.0,0.0,0.0,0.0,0.0,0.0,0.0,0.0,0.0,-0.3155,-0.3073,-0.3187,-0.3039,-0.2982,-0.3197,-0.29,-0.2651,0.0,0.0,0.0,0.0,0.0,0.0,0.0,0.0,0.0,0.0,0.0,0.0,0.0,0.0,0.0,-0.21,0.0,0.0,0.0,0.0,-0.2287,-0.2309,-0.2446,-0.2381,-0.2254,-0.24,-0.2354,-0.2218,-0.2384,-0.2427,-0.2403,-0.2263,-0.2273,0.0,0.0,0.0,-0.2096,-0.2054,-0.1592,-0.113,-0.1107,0.0,0.0835,0.0,0.1801,0.2237,0.2297,0.2361,0.242,0.2434,0.2446,0.2454,0.2454,0.2518,0.26,0.2466,0.2361,0.2248,0.2141,0.1715,0.1411,0.1397,0.1178,0.1009,0.1009,0.1009,0.1009,0.0954,0.0953,0.0953,0.0897,0.0897,0.0897,0.0897,0.0449,0.0056,-0.0336,-0.0393,-0.0785,-0.1628,-0.1628,-0.1628,-0.1684,-0.1684,-0.1684,-0.1684,-0.1797,-0.1797,-0.1797,-0.1797,-0.1797,-0.1797,-0.1797,-0.1797,-0.1797,-0.1797,-0.1797,-0.1797,0.0,0.0,0.0,0.0,0.0,0.0,0.0,0.0,0.0,0.0,0.0,-0.3113,-0.2926,-0.3102,-0.3238,-0.3253,-0.3182,0.0,0.0,0.0,0.0,0.0,0.0,0.0,0.0,0.0,0.0,0.0,0.0,0.0,0.0,-0.2434,-0.234,0.0,0.0,0.0,0.0,0.0,-0.225,-0.2205,-0.2424,-0.2436,-0.2383,-0.2457,-0.2526,-0.2538,-0.25,-0.2495,-0.2492,-0.2401,-0.2484,-0.2574,-0.2355,0.0,0.0,0.0,-0.1635,-0.0969,-0.0176,0.0391,0.0975,0.0,0.2046,0.2269,0.227,0.218,0.2093,0.2092,0.2113,0.2156,0.2349,0.245,0.2413,0.2271,0.2194,0.2012,0.1703,0.1472,0.1232,0.1088,0.0981,0.0879,0.0896,0.0882,0.0879,0.0896,0.0897,0.0897,0.0897,0.0673,0.0505,0.0505,-0.0168,-0.0617,-0.0785,-0.1066,-0.1403,-0.1797,-0.1797,-0.1797,-0.1797,-0.1797,-0.1797,-0.1797,-0.1797,-0.1797,-0.1797,-0.1797,-0.1797,-0.1797,-0.1797,-0.1797,-0.1797,-0.1797,-0.1797,-0.1797,0.0,0.0,0.0,0.0,0.0,0.0,0.0,0.0,0.0,0.0,0.0,-0.3107,-0.2643,0.0,0.0,0.0,-0.3417,0.0,0.0,0.0,0.0,0.0,0.0,0.0,0.0,0.0,0.0,0.0,0.0,0.0,-0.2871,-0.275,-0.2789,0.0,-0.2707,-0.2616,0.0,0.0,0.0,-0.2277,-0.2558,-0.2601,-0.2521,-0.273,-0.2805,-0.2798,-0.2717,-0.2638,-0.2561,-0.2511,-0.2594,-0.2693,-0.2479,-0.2459,0.0,0.0,0.0,0.0,0.0,0.0,0.0997,0.1852,0.2208,0.2344,0.2432,0.218,0.1944,0.1958,0.1832,0.1827,0.2227,0.2416,0.2375,0.2059,0.2022,0.1885,0.1342,0.1223,0.1093,0.0892,0.0893,0.0906,0.0883,0.0859,0.0906,0.0883,0.0879,0.0875,0.0875,0.0437,0.0219,0.0219,-0.0601,-0.1038,-0.1038,-0.1545,-0.1774,-0.1774,-0.179,-0.1797,-0.1797,-0.1797,-0.1797,-0.1797,-0.1797,-0.1797,-0.1797,-0.1797,-0.1797,-0.1797,-0.1797,-0.1797,-0.1797,-0.1797,-0.1797,-0.1797,0.0,0.0,0.0,0.0,0.0,0.0,0.0,0.0,0.0,0.0,0.0,-0.2843,-0.2632,-0.297,-0.3321,-0.3561,-0.3711,0.0,0.0,0.0,0.0,0.0,0.0,0.0,0.0,0.0,0.0,0.0,0.0,0.0,-0.3085,-0.3323,-0.3483,-0.3528,-0.3025,-0.2829,-0.2883,0.0,0.0,-0.2706,-0.3025,-0.2905,-0.2582,-0.3351,-0.33,-0.2841,-0.3149,-0.3047,-0.2748,-0.2559,-0.2502,-0.2509,-0.2487,-0.2537,-0.2546,0.0,0.0,0.0,0.0,0.0328,0.0,0.1576,0.2191,0.2704,0.2771,0.2524,0.2237,0.2105,0.1748,0.1569,0.2023,0.2369,0.2405,0.1907,0.1861,0.1715,0.1194,0.0959,0.0828,0.0806,0.0809,0.0821,0.0905,0.0827,0.0822,0.0905,0.0827,0.0811,0.0811,0.0456,0.0304,0.0304,-0.0507,-0.0913,-0.0913,-0.1418,-0.1711,-0.1712,-0.177,-0.1797,-0.1797,-0.1797,-0.1797,-0.1797,-0.1797,-0.1797,-0.1797,-0.1797,-0.1797,-0.1797,-0.1797,-0.1797,-0.1797,-0.1797,-0.1797,-0.1797,0.0,0.0,0.0,0.0,0.0,0.0,0.0,0.0,0.0,0.0,0.0,0.0,0.0,-0.2976,-0.3131,-0.3441,-0.3871,0.0,0.0,0.0,0.0,0.0,0.0,0.0,0.0,0.0,0.0,0.0,0.0,-0.2439,-0.3093,-0.3014,-0.3206,-0.3591,-0.3254,-0.3147,-0.3211,-0.3108,0.0,-0.2851,-0.309,-0.3223,-0.3313,-0.3596,-0.381,-0.3965,-0.3939,-0.3612,-0.3163,-0.3106,-0.2823,-0.2495,-0.2495,-0.2498,-0.2394,-0.1998,-0.1561,-0.1098,0.0,0.0,0.0,0.1321,0.2011,0.2565,0.2566,0.2558,0.2505,0.2369,0.2236,0.2148,0.2324,0.2309,0.2185,0.1842,0.2085,0.2057,0.1374,0.1266,0.1246,0.1262,0.0974,0.0791,0.082,0.0797,0.0792,0.0821,0.0813,0.0807,0.0807,0.0403,0.0151,0.0151,-0.0353,-0.0756,-0.1009,-0.1432,-0.1668,-0.1706,-0.1728,-0.176,-0.1797,-0.1797,-0.1797,-0.1797,-0.1797,-0.1797,-0.1797,-0.1797,-0.1797,-0.1797,-0.1797,-0.1797,-0.1797,-0.1797,-0.1797,-0.1797,0.0,0.0,0.0,-0.265,0.0,-0.2838,-0.3563,-0.3513,-0.356,-0.4003,0.0,0.0,0.0,0.0,-0.326,-0.3393,-0.389,0.0,0.0,0.0,0.0,0.0,0.0,0.0,0.0,0.0,0.0,0.0,0.0,0.0,0.0,-0.2727,-0.3027,-0.3593,-0.3312,-0.3327,0.0,0.0,-0.324,-0.3133,-0.3487,-0.3628,-0.3673,-0.4106,-0.4354,-0.4501,-0.4554,-0.425,-0.3783,-0.3743,-0.3356,-0.2868,-0.2868,-0.27,-0.2445,-0.2155,-0.1785,-0.1336,-0.0774,0.0,0.0,0.087,0.1623,0.2212,0.2292,0.246,0.254,0.2539,0.2436,0.2369,0.2369,0.2367,0.2278,0.2061,0.237,0.2413,0.1745,0.1695,0.1633,0.1494,0.1169,0.095,0.079,0.0766,0.0762,0.079,0.0783,0.0777,0.0777,0.034,-0.0,-0.0242,-0.0485,-0.0825,-0.1214,-0.1427,-0.1605,-0.1645,-0.1666,-0.1708,-0.1766,-0.1766,-0.1777,-0.1797,-0.1797,-0.1797,-0.1797,-0.1797,-0.1797,-0.1797,-0.1797,-0.1797,-0.1797,-0.1797,-0.1797,-0.1797,-0.2902,-0.2788,-0.2699,-0.2699,-0.2656,-0.275,-0.3147,-0.3213,-0.3222,-0.3237,0.0,0.0,0.0,0.0,0.0,-0.3434,-0.3774,-0.3798,-0.3329,0.0,0.0,0.0,0.0,0.0,0.0,0.0,0.0,0.0,0.0,0.0,0.0,0.0,-0.302,-0.3561,-0.3184,-0.3301,-0.3811,-0.3811,-0.3689,-0.3572,-0.423,-0.412,-0.3685,-0.4908,-0.4971,-0.4422,-0.4933,-0.4923,-0.4598,-0.4482,-0.4076,-0.3609,-0.3603,-0.3186,-0.2721,-0.2791,-0.2422,-0.1936,0.0,0.0,0.0,0.0217,0.0978,0.1679,0.2065,0.2223,0.2341,0.2514,0.2296,0.2096,0.2098,0.2544,0.281,0.2549,0.2722,0.272,0.2144,0.2099,0.1922,0.1433,0.1389,0.123,0.0855,0.0737,0.0732,0.0809,0.0736,0.0719,0.0719,0.0405,-0.0135,-0.0851,-0.0895,-0.1074,-0.1389,-0.1445,-0.1475,-0.1478,-0.1585,-0.1644,-0.1704,-0.1704,-0.1736,-0.1792,-0.1794,-0.1794,-0.1794,-0.1796,-0.1797,-0.1797,-0.1797,-0.1797,-0.1797,-0.1797,-0.1797,-0.1797,-0.2834,-0.2765,-0.2699,-0.2699,-0.2923,-0.3147,-0.3253,-0.3513,-0.3804,0.0,0.0,0.0,-0.4131,-0.4237,-0.4126,-0.3656,-0.4031,-0.398,-0.3277,-0.3624,-0.3436,-0.2453,0.0,0.0,0.0,0.0,0.0,0.0,0.0,0.0,0.0,0.0,0.0,0.0,-0.3197,-0.3454,-0.388,-0.388,-0.3933,-0.4029,-0.4209,-0.4384,-0.4548,-0.491,-0.5303,-0.5683,-0.5846,-0.5558,-0.51,-0.5072,-0.4536,-0.3852,-0.3544,-0.3118,-0.2719,-0.2845,-0.2569,-0.2187,-0.2111,0.0,0.0,0.0,0.0,0.0,0.1184,0.146,0.1725,0.191,0.1858,0.1977,0.2572,0.2498,0.241,0.2722,0.2854,0.2588,0.17,0.1611,0.1567,0.1433,0.1121,0.0857,0.0731,0.0724,0.0723,0.0731,0.0724,0.0719,0.0719,0.0405,0.009,-0.009,-0.0627,-0.094,-0.103,-0.1314,-0.1435,-0.1477,-0.1541,-0.1582,-0.164,-0.164,-0.1649,-0.1668,-0.1713,-0.1732,-0.1735,-0.1779,-0.1797,-0.1797,-0.1797,-0.1797,-0.1797,-0.1797,-0.1797,-0.1797,-0.3324,-0.3309,-0.3285,-0.3289,-0.3457,-0.3594,-0.3594,-0.3762,-0.399,0.0,0.0,0.0,-0.4647,-0.4649,-0.4403,-0.3828,-0.4036,-0.3949,-0.3364,-0.3666,-0.3426,-0.2433,-0.2725,-0.2621,0.0,0.0,0.0,0.0,0.0,0.0,0.0,0.0,0.0,0.0,-0.2962,-0.338,-0.4139,-0.3968,-0.4061,-0.4366,-0.4763,-0.4965,-0.5131,-0.5619,-0.6022,-0.6344,-0.6523,-0.6257,-0.5841,-0.59,-0.5353,-0.4499,-0.3852,-0.357,-0.3409,-0.3151,-0.297,-0.2841,-0.2679,-0.2259,-0.176,-0.1411,0.0,0.0,0.0306,0.062,0.0896,0.1339,0.1529,0.1731,0.1999,0.2098,0.2056,0.2011,0.2234,0.2234,0.1744,0.17,0.1611,0.1433,0.1166,0.0898,0.0719,0.0719,0.0719,0.0719,0.0719,0.0719,0.0719,0.0405,0.0135,-0.0045,-0.0582,-0.0985,-0.1119,-0.1298,-0.1406,-0.144,-0.144,-0.147,-0.1578,-0.1578,-0.1591,-0.1617,-0.1653,-0.1668,-0.1673,-0.1734,-0.1774,-0.1797,-0.1797,-0.1797,-0.1797,-0.1797,-0.1797,-0.1797,0.0,-0.4144,-0.4135,-0.4138,-0.4097,-0.4063,-0.4012,-0.3999,-0.4015,0.0,-0.4596,-0.4974,-0.4974,-0.4934,-0.4646,-0.4044,-0.399,-0.3842,-0.3498,-0.3836,-0.3588,-0.2527,-0.2848,-0.2702,-0.1967,0.0,0.0,0.0,0.0,0.0,0.0,0.0,0.0,0.0,-0.2611,-0.3178,-0.4421,-0.4064,-0.4207,-0.4754,-0.555,-0.5682,-0.551,-0.6611,-0.6865,-0.6643,-0.6991,-0.6914,-0.6652,-0.6743,-0.6232,-0.5387,-0.4474,-0.4334,-0.4384,-0.3664,-0.3606,-0.3701,-0.3324,-0.2959,-0.2648,-0.237,-0.2098,0.0,-0.0651,-0.0416,-0.0228,0.0548,0.0964,0.1136,0.0836,0.1282,0.1463,0.0713,0.1117,0.1612,0.1922,0.1966,0.1788,0.1389,0.1344,0.1166,0.0719,0.0719,0.0719,0.0719,0.0719,0.0719,0.0719,0.0359,-0.0045,-0.0403,-0.0761,-0.1119,-0.1389,-0.1389,-0.1389,-0.1389,-0.1389,-0.1416,-0.1467,-0.1467,-0.1544,-0.1595,-0.1602,-0.1606,-0.161,-0.1671,-0.1732,-0.1788,-0.1794,-0.1797,-0.1797,-0.1797,-0.1797,-0.1797,-0.4581,-0.4449,-0.4339,-0.4345,-0.447,-0.446,-0.4122,-0.4342,-0.4549,-0.4566,-0.5083,-0.547,-0.547,-0.5452,-0.52,-0.459,-0.4549,-0.4184,-0.3316,-0.3583,-0.3342,-0.2382,-0.2617,-0.2608,-0.2234,-0.2117,0.0,0.0,0.0,0.0,0.0,0.0,0.0,0.0,-0.2612,-0.3182,-0.4099,-0.4009,-0.4683,-0.5782,-0.5751,-0.582,-0.5998,-0.6506,-0.6891,-0.716,-0.7159,-0.7072,-0.6863,-0.6565,-0.6206,-0.5832,-0.5408,-0.5007,-0.4641,-0.4531,-0.4353,-0.4172,-0.4094,-0.4011,-0.3793,-0.311,-0.3318,0.0,-0.2032,-0.2151,-0.2256,-0.1373,-0.1146,-0.0916,-0.0199,-0.0371,-0.0507,-0.0085,0.0087,0.0358,0.0898,0.0988,0.0943,0.0853,0.0853,0.0809,0.0719,0.0719,0.0719,0.0719,0.0719,0.0719,0.0719,0.009,-0.0313,-0.0403,-0.0985,-0.1344,-0.1389,-0.1389,-0.1389,-0.1389,-0.1389,-0.1394,-0.1406,-0.1406,-0.1412,-0.1426,-0.1473,-0.1542,-0.1546,-0.1608,-0.1669,-0.1728,-0.1778,-0.1797,-0.1797,-0.1797,-0.1797,-0.1797,-0.5437,-0.5376,-0.5291,-0.5291,-0.5237,-0.5152,-0.498,-0.5054,-0.5161,-0.5191,-0.5543,-0.5806,-0.5808,-0.5678,-0.5444,-0.5039,-0.482,-0.4489,-0.3984,-0.3877,-0.352,-0.278,-0.2811,-0.2735,-0.2512,-0.2205,0.0,0.0,0.0,0.0,0.0,0.0,0.0,0.0,-0.2973,-0.3501,-0.4357,-0.4357,-0.4893,-0.5776,-0.6148,-0.6492,-0.6843,-0.7321,-0.7618,-0.7801,-0.7801,-0.7574,-0.7255,-0.6872,-0.6606,-0.6336,-0.5937,-0.5855,-0.5771,-0.5212,-0.5196,-0.5254,-0.4906,-0.4668,-0.4464,-0.4085,-0.4108,0.0,0.0,-0.3089,-0.3165,-0.282,-0.2444,-0.2061,-0.17,-0.1717,-0.1622,-0.1081,-0.0823,-0.0491,0.0045,0.0449,0.0675,0.0584,0.0629,0.0719,0.0719,0.0719,0.0719,0.0719,0.0719,0.0719,0.0719,-0.0,-0.0403,-0.0403,-0.103,-0.1389,-0.1389,-0.1389,-0.1389,-0.1389,-0.1389,-0.1389,-0.1389,-0.1389,-0.1389,-0.139,-0.142,-0.1433,-0.1437,-0.1544,-0.1588,-0.1621,-0.1683,-0.1706,-0.1706,-0.1706,-0.1706,-0.1706,-0.6276,-0.6278,-0.626,-0.6236,-0.5985,-0.5784,-0.5837,-0.5739,-0.5715,-0.5797,-0.5935,-0.6054,-0.6141,-0.5845,-0.5626,-0.5633,-0.5148,-0.486,-0.4865,-0.4414,-0.3917,-0.3402,-0.3251,-0.3052,-0.2779,-0.2434,0.0,0.0,0.0,0.0,0.0,-0.248,-0.2782,-0.3396,-0.3359,-0.3857,-0.4738,-0.4771,-0.5162,-0.5791,-0.665,-0.7113,-0.7342,-0.802,-0.8232,-0.822,-0.8333,-0.8075,-0.7676,-0.7328,-0.7095,-0.6867,-0.6371,-0.6596,-0.6853,-0.598,-0.6071,-0.6377,-0.5861,-0.5523,-0.5303,-0.5196,-0.4987,-0.4669,0.0,0.0,0.0,-0.3986,-0.3415,-0.2968,-0.3173,-0.2962,-0.2582,-0.2225,-0.1823,-0.1445,-0.0999,-0.0307,0.0133,-0.0,0.0224,0.0404,0.0449,0.0624,0.0713,0.0719,0.0714,0.0668,0.0629,-0.0045,-0.0447,-0.0492,-0.1074,-0.1389,-0.1389,-0.1389,-0.1389,-0.1389,-0.1389,-0.1389,-0.1389,-0.1389,-0.1389,-0.1389,-0.1389,-0.1389,-0.1392,-0.144,-0.146,-0.1466,-0.1587,-0.1615,-0.1615,-0.1615,-0.1615,-0.1617,-0.6744,-0.6593,-0.6443,-0.6383,-0.6195,-0.6028,-0.5985,-0.5967,-0.6021,-0.6207,-0.6153,-0.6254,-0.6661,-0.615,-0.606,-0.6753,-0.5955,-0.5438,-0.5497,-0.5004,-0.4497,-0.4016,-0.3864,-0.3557,-0.3061,0.0,0.0,0.0,0.0,0.0,0.0,0.0,-0.2867,-0.3408,-0.3459,-0.4002,-0.4883,-0.5062,-0.5826,-0.6942,-0.7235,-0.6985,-0.6536,-0.7432,-0.7818,-0.7892,-0.8149,-0.8187,-0.8067,-0.7681,-0.7525,-0.7462,-0.7146,-0.6948,-0.6884,-0.7104,-0.6998,-0.6921,-0.7188,-0.7222,-0.7047,-0.6399,-0.6589,-0.6643,-0.5403,0.0,-0.5401,-0.4881,0.0,-0.4285,-0.409,0.0,0.0,-0.3506,-0.3156,-0.2844,-0.2503,-0.2005,-0.1621,-0.1472,-0.112,-0.0761,-0.0403,0.026,0.069,0.0717,0.0694,0.0561,0.0269,-0.0179,-0.0537,-0.085,-0.1209,-0.1389,-0.1389,-0.1389,-0.1389,-0.1389,-0.1389,-0.1389,-0.1389,-0.1389,-0.1389,-0.1389,-0.1389,-0.1389,-0.1389,-0.1396,-0.1398,-0.141,-0.157,-0.1615,-0.1615,-0.1615,-0.1615,-0.1623,-0.6927,-0.682,-0.6723,-0.6693,-0.6493,-0.633,-0.6301,-0.6424,-0.6649,-0.7001,-0.6668,-0.6507,-0.6828,-0.6372,-0.6287,-0.6952,-0.6339,-0.5914,-0.5944,-0.5219,-0.4711,-0.4513,-0.4119,-0.3901,-0.391,-0.3326,0.0,0.0,-0.256,0.0,0.0,0.0,-0.3375,-0.3935,-0.4195,-0.4948,-0.5971,-0.5602,-0.5985,-0.6869,-0.6826,-0.6635,-0.649,-0.7751,-0.8247,-0.8268,-0.8385,-0.8352,-0.8233,-0.8156,-0.7898,-0.7618,-0.7603,-0.7675,-0.7764,-0.7738,-0.7943,-0.8136,-0.7854,-0.7833,-0.7717,-0.713,-0.7084,-0.7065,-0.6622,-0.6228,-0.6075,-0.6411,0.0,0.0,0.0,0.0,0.0,0.0,-0.4292,-0.3873,-0.3653,-0.3191,-0.2821,-0.2652,-0.2492,-0.2095,-0.1417,-0.0786,-0.0374,-0.0357,-0.0258,-0.0257,-0.0313,-0.0716,-0.0895,-0.0895,-0.1209,-0.1389,-0.1389,-0.1389,-0.1389,-0.1389,-0.1389,-0.1389,-0.1389,-0.1389,-0.1389,-0.1389,-0.1389,-0.1389,-0.1389,-0.1389,-0.1389,-0.1393,-0.1443,-0.1368,-0.1226,-0.1415,-0.1388,-0.1272,-0.7017,-0.6954,-0.6914,-0.6874,-0.671,-0.6585,-0.655,-0.6724,-0.7034,-0.7541,-0.7087,-0.6885,-0.7315,-0.6815,-0.6721,-0.7389,-0.6822,-0.6503,-0.6637,-0.5753,-0.5223,-0.521,-0.4672,-0.4432,-0.4582,-0.3921,-0.3606,-0.3682,-0.3098,-0.2883,0.0,0.0,-0.3912,-0.4512,-0.4802,-0.5638,-0.6797,-0.6273,-0.6507,-0.722,-0.7106,-0.7102,-0.7246,-0.8129,-0.8536,-0.8673,-0.8706,-0.8656,-0.8511,-0.8545,-0.8207,-0.7841,-0.8043,-0.8216,-0.8382,-0.8379,-0.8746,-0.9092,-0.868,-0.8653,-0.8621,-0.7938,-0.7799,-0.7793,-0.7571,-0.7087,-0.6872,-0.763,-0.7204,0.0,0.0,0.0,-0.6476,-0.6045,0.0,-0.4989,-0.4611,-0.4203,-0.3782,-0.3364,-0.3333,-0.3057,-0.2334,-0.1971,-0.1675,-0.1354,-0.1266,-0.1139,-0.0937,-0.1209,-0.1298,-0.1164,-0.1389,-0.1479,-0.1389,-0.1389,-0.1389,-0.1389,-0.1389,-0.1389,-0.1389,-0.1389,-0.1389,-0.1389,-0.1389,-0.1389,-0.1389,-0.1389,-0.1389,-0.1389,-0.1389,-0.1209,-0.094,-0.1164,-0.1195,-0.1144,-0.7023,-0.6993,0.0,-0.6831,-0.6791,-0.6774,-0.6712,-0.6691,-0.6912,-0.7528,-0.7251,-0.7383,-0.8436,-0.7671,-0.7468,-0.847,-0.763,-0.726,-0.7704,-0.6879,-0.6328,-0.6255,-0.5797,-0.5304,-0.4805,-0.4768,-0.4471,-0.3891,-0.3861,-0.3922,0.0,0.0,0.0,0.0,-0.4986,-0.5696,-0.6904,-0.7089,-0.7678,-0.8543,-0.8676,-0.8852,-0.8939,-0.8353,-0.8393,-0.8822,-0.902,-0.9087,-0.9032,-0.8784,-0.85,-0.8306,-0.8501,-0.8376,-0.8276,-0.9095,-0.9387,-0.9455,-0.9838,-1.0201,-1.0213,-0.8976,-0.9186,-0.9398,-0.8162,-0.8008,-0.8139,-0.8163,-0.8053,-0.7939,-0.7961,-0.7934,-0.7697,-0.6974,-0.6734,0.0,0.0,-0.5095,-0.4623,-0.3452,-0.3361,-0.3248,-0.2904,-0.3084,-0.289,-0.204,-0.1968,-0.1834,-0.1605,-0.1568,-0.1658,-0.1749,-0.1793,-0.1658,-0.1389,-0.1389,-0.1389,-0.1389,-0.1389,-0.1389,-0.1389,-0.1389,-0.1389,-0.1389,-0.1389,-0.1389,-0.1389,-0.1389,-0.1389,-0.1389,-0.1389,-0.1209,-0.0895,-0.0895,-0.1149,-0.1437,-0.7076,0.0,-0.7017,-0.6891,-0.6868,-0.7118,-0.7836,-0.7356,-0.7385,-0.8756,-0.7955,-0.7655,-0.8693,-0.8213,-0.8066,-0.8684,-0.8094,-0.7722,-0.7794,-0.6927,-0.6517,-0.6755,-0.601,-0.5664,-0.578,-0.519,-0.477,-0.456,-0.4296,-0.4191,0.0,0.0,0.0,0.0,-0.5461,-0.6426,-0.7684,-0.7384,-0.7994,-0.9113,-0.8833,-0.8956,-0.9262,-0.8912,-0.8851,-0.9015,-0.9087,-0.9087,-0.9108,-0.9091,-0.8756,-0.8368,-0.8791,-0.892,-0.9008,-0.9565,-1.0149,-1.0617,-1.0766,-1.0916,-1.0909,-1.0182,-0.9966,-0.9793,-0.9277,-0.9082,-0.9049,-0.9226,-0.9377,-0.9373,-0.911,-0.8863,-0.8568,-0.806,-0.7331,-0.6631,0.0,-0.5366,-0.4753,-0.4327,-0.3729,-0.3332,-0.3294,-0.3123,-0.3025,-0.3061,-0.2964,-0.2806,-0.2534,-0.2767,-0.2591,-0.1838,-0.2015,-0.188,-0.1389,-0.1389,-0.1389,-0.1389,-0.1389,-0.1389,-0.1389,-0.1389,-0.1389,-0.1389,-0.1389,-0.1389,-0.1389,-0.1389,-0.1389,-0.1389,-0.1389,-0.1344,-0.1209,-0.1209,-0.1216,-0.1199,-0.7105,-0.728,-0.7314,-0.699,-0.7089,-0.7466,-0.8208,-0.8012,-0.8187,-0.9354,-0.8681,-0.8368,-0.904,-0.8769,-0.8629,-0.8887,-0.8595,-0.8238,-0.7924,-0.7383,-0.7102,-0.714,-0.6602,-0.6368,-0.6476,-0.5862,-0.5439,-0.5253,-0.4969,-0.4838,0.0,0.0,0.0,0.0,-0.5807,-0.6832,-0.8189,-0.7831,-0.8482,-0.9687,-0.9249,-0.9277,-0.9514,-0.9324,-0.9222,-0.919,-0.9222,-0.9249,-0.9249,-0.9345,-0.9009,-0.8661,-0.9147,-0.9294,-0.9364,-0.9766,-1.0315,-1.0757,-1.0757,-1.1014,-1.1168,-1.0587,-1.0571,-1.0559,-1.0152,-1.0094,-1.0125,-1.0313,-1.0518,-1.0595,-1.0316,-0.9853,-0.9376,-0.896,-0.7988,-0.7036,0.0,-0.5663,-0.5124,-0.4979,-0.418,-0.362,-0.3642,-0.3363,-0.3243,-0.3426,-0.3506,-0.3432,-0.3213,-0.3537,-0.3211,-0.2147,-0.2324,-0.21,-0.1389,-0.1389,-0.1389,-0.1389,-0.1389,-0.1389,-0.1389,-0.1389,-0.1389,-0.1389,-0.1389,-0.1389,-0.1389,-0.1389,-0.1389,-0.1389,-0.1389,-0.1344,-0.1209,-0.1209,-0.1179,-0.1119,-0.7105,-0.7583,-0.7798,-0.7156,-0.7438,-0.7797,-0.789,-0.8626,-0.9211,-0.9373,-0.9421,-0.9491,-0.9538,-0.9327,-0.9143,-0.9114,-0.9114,-0.8826,-0.8184,-0.8237,-0.8063,-0.7507,-0.756,-0.7379,-0.688,-0.6767,-0.6451,-0.5945,-0.5854,-0.5811,-0.5793,0.0,0.0,0.0,-0.6021,-0.6909,-0.8397,-0.8419,-0.9147,-1.0299,-0.9963,-0.9834,-0.9808,-0.9591,-0.9452,-0.936,-0.9464,-0.9491,-0.9491,-0.9491,-0.933,-0.9167,-0.9574,-0.9537,-0.9411,-0.9788,-0.9934,-0.995,-0.995,-1.0632,-1.1137,-1.0289,-1.0996,-1.1676,-1.0839,-1.1008,-1.1325,-1.1325,-1.1432,-1.1547,-1.1516,-1.0849,-1.0121,-0.9729,-0.8719,-0.7593,-0.6504,-0.609,-0.5739,-0.5413,-0.4731,-0.4212,-0.3968,-0.3819,-0.362,-0.3288,-0.3618,-0.378,-0.3622,-0.3825,-0.3559,-0.2763,-0.2717,-0.2319,-0.1433,-0.1433,-0.1389,-0.1389,-0.1386,-0.1386,-0.1389,-0.1386,-0.1386,-0.1389,-0.1389,-0.1389,-0.1389,-0.1389,-0.1389,-0.1389,-0.1389,-0.1209,-0.0895,-0.0897,-0.0991,-0.1163,-0.7208,-0.7577,-0.7953,-0.7773,-0.7441,-0.7666,-0.9012,-0.8915,-0.916,-1.0476,-1.0439,-1.0294,-1.0328,-1.0117,-0.9799,-0.9294,-0.9259,-0.9126,-0.887,-0.8513,-0.8409,-0.8653,-0.7986,-0.7692,-0.7916,-0.7158,-0.6675,-0.649,-0.6066,-0.5837,-0.5793,0.0,0.0,0.0,0.0,-0.7106,-0.8475,-0.8682,-0.9466,-1.059,-1.0343,-1.0249,-1.0218,-0.986,-0.9796,-0.9867,-0.9585,-0.9491,-0.9491,-0.9491,-0.933,-0.9164,-0.9456,-0.9608,-0.975,-1.0096,-1.0471,-1.08,-1.08,-1.1278,-1.1672,-1.147,-1.1673,-1.185,-1.1608,-1.1646,-1.1741,-1.1741,-1.2088,-1.23,-1.1999,-1.1522,-1.103,-1.062,-0.9606,-0.8441,-0.7271,-0.7042,-0.6835,-0.6388,-0.5961,-0.5374,-0.4632,-0.4443,-0.435,-0.4244,-0.4462,-0.4403,-0.3922,-0.4424,-0.4215,-0.312,-0.2988,-0.2588,-0.1921,-0.1567,-0.1389,-0.1388,-0.1344,-0.1346,-0.1387,-0.1343,-0.1347,-0.1389,-0.1389,-0.1389,-0.1389,-0.1389,-0.1389,-0.1389,-0.1389,-0.1209,-0.0853,-0.0602,-0.0759,-0.0972,-0.7751,-0.8326,-0.8947,-0.9145,-0.8772,-0.8767,-0.9764,-0.9685,-0.986,-1.0855,-1.089,-1.0744,-1.0619,-1.0408,-1.0156,-0.9762,-0.953,-0.9257,-0.8908,-0.884,-0.8835,-0.889,-0.8579,-0.8452,-0.8487,-0.7671,-0.7108,-0.6831,-0.6242,-0.5924,-0.5887,0.0,0.0,0.0,0.0,-0.7086,-0.824,-0.898,-0.9841,-1.0687,-1.0474,-1.0399,0.0,-1.0129,-1.0091,-1.0141,-0.9854,-0.971,-0.9611,-0.9544,-0.939,-0.9303,-0.9444,-0.958,-0.9715,-0.9929,-1.0201,-1.0459,-1.0488,-1.0876,-1.1337,-1.1567,-1.1628,-1.1689,-1.1925,-1.1974,-1.1974,-1.1974,-1.2398,-1.2697,-1.2437,-1.178,-1.103,-1.0216,-0.9543,-0.884,-0.8009,-0.7873,-0.7598,-0.6893,-0.6894,-0.658,-0.554,-0.4967,-0.4623,-0.4509,-0.4684,-0.4676,-0.4418,-0.4799,-0.4544,-0.3591,-0.3398,-0.3033,-0.2455,-0.2188,-0.1922,-0.1699,-0.1659,-0.1574,-0.1387,-0.1354,-0.1358,-0.1389,-0.1389,-0.1389,-0.1389,-0.1389,-0.1389,-0.1389,-0.1074,-0.085,-0.0628,-0.0276,-0.0516,-0.0955,-0.8638,-0.9464,-1.0261,-1.0586,-1.0536,-1.0455,-1.0431,-1.0725,-1.0994,-1.1036,-1.1258,-1.1278,-1.0866,-1.065,-1.0485,-1.0419,-0.9992,-0.9452,-0.8856,-0.9321,-0.9339,-0.8738,-0.9225,-0.9289,-0.8802,-0.8233,-0.7641,-0.7099,-0.6454,-0.6084,-0.6003,0.0,0.0,0.0,0.0,-0.7057,-0.8023,-0.9291,-1.0162,-1.0712,-1.0541,-1.0498,-1.0492,-1.0398,-1.0378,-1.0378,-1.021,-1.0021,-0.9802,-0.9585,-0.9517,-0.9517,-0.9517,-0.9517,-0.9544,-0.9585,-0.9617,-0.965,-0.977,-1.0165,-1.0663,-1.1247,-1.1345,-1.1437,-1.1976,-1.2044,-1.1989,-1.1989,-1.2362,-1.2677,-1.2687,-1.1844,-1.076,-0.9535,-0.9269,-0.916,-0.8853,-0.8749,-0.8323,-0.7298,-0.7749,0.0,-0.6536,-0.5548,-0.4845,-0.4594,-0.4683,-0.4792,-0.4914,-0.5034,-0.484,-0.4235,-0.3925,-0.3561,-0.3074,-0.2943,-0.2677,-0.2188,-0.2176,-0.1955,-0.1477,-0.1513,-0.147,-0.1389,-0.1389,-0.1389,-0.1389,-0.1389,-0.1389,-0.1344,-0.0716,-0.0447,-0.0403,-0.009,-0.0367,-0.1039,-0.9897,-1.0476,-1.0827,-1.036,-1.0835,-1.1369,-1.1629,-1.1786,-1.1962,-1.2257,-1.2742,-1.281,-1.2083,-1.1753,-1.1435,-1.0997,-1.0876,-1.06,-1.0042,-1.009,-0.9905,-0.9351,-0.9443,-0.9449,-0.9347,-0.8832,-0.8245,-0.7659,-0.7091,-0.6537,-0.6003,-0.6003,-0.6111,0.0,0.0,-0.7378,-0.8752,-0.9617,-1.0299,-1.0873,-1.0951,-1.0975,-1.0975,-1.0777,-1.0825,-1.0907,-1.055,-1.0279,-1.0021,-0.9756,-0.9664,-0.9664,-0.9664,-0.9664,-0.9658,-0.9684,-0.9684,-0.9782,-1.023,-1.042,-1.0755,-1.1769,-1.1671,-1.1437,-1.1976,-1.175,-1.1431,-1.1381,-1.1485,-1.1681,-1.2001,-1.1972,-1.1725,-1.1166,-1.0788,-1.0518,-1.0397,-1.0103,-0.9577,-0.8721,-0.8739,-0.8366,-0.7143,-0.6639,-0.6113,-0.5587,-0.5468,-0.5353,-0.5174,-0.5415,-0.5538,-0.5405,-0.463,-0.4168,-0.4035,-0.3293,-0.2854,-0.2764,-0.2709,-0.2415,-0.1964,-0.198,-0.1773,-0.1389,-0.1389,-0.1389,-0.1389,-0.1389,-0.1389,-0.1344,-0.0985,-0.0806,-0.0806,-0.0716,-0.081,-0.0905,-1.1711,-1.1992,-1.2074,-1.1703,-1.2113,-1.2497,-1.2525,-1.2815,-1.2968,-1.283,-1.2981,-1.2974,-1.2685,-1.2301,-1.1954,-1.1692,-1.1424,-1.1027,-1.045,-1.0414,-1.0171,-0.9615,-0.9617,-0.9617,-0.9617,-0.9076,-0.8506,-0.7894,-0.7642,-0.7041,-0.6159,-0.6441,-0.6628,-0.674,-0.7364,-0.8109,-0.8955,-0.9758,-1.0456,-1.1022,-1.1069,-1.1092,-1.1092,-1.1069,-1.1115,-1.1162,-1.0907,-1.0636,-1.0355,-1.0027,-0.9828,-0.971,-0.971,-0.971,-0.9766,-1.0063,-1.0183,-1.03,-1.0914,-1.1063,-1.1253,-1.1931,-1.1634,-1.1302,-1.1692,-1.158,-1.1375,-1.1353,-1.16,-1.1846,-1.1976,-1.1852,-1.1726,-1.1656,-1.1156,-1.0808,-1.0812,-1.0594,-1.0057,-0.9028,-0.9487,-0.9229,-0.7623,-0.746,-0.7095,-0.6145,-0.5957,-0.5855,-0.5679,-0.6078,-0.6212,-0.5923,-0.553,-0.5242,-0.5038,-0.4345,-0.3864,-0.3641,-0.3355,-0.2971,-0.2498,-0.2229,-0.1972,-0.1744,-0.1522,-0.1389,-0.1389,-0.1389,-0.1298,-0.1119,-0.0985,-0.0895,-0.0895,-0.0895,-0.1119,-0.1344,-1.3183,-1.3302,-1.3299,-1.3116,-1.3318,-1.3394,-1.3096,-1.3595,-1.3775,-1.3153,-1.3005,-1.2974,-1.3069,-1.2736,-1.2428,-1.2368,-1.1973,-1.1456,-1.0902,-1.0872,-1.0571,-0.9913,-0.9882,-0.9833,-0.971,-0.9292,-0.8777,-0.8191,-0.8081,-0.749,-0.6487,-0.6819,-0.7076,-0.7322,-0.8422,-0.9103,-0.9433,-1.0129,-1.0772,-1.1329,-1.1242,-1.1185,-1.1208,-1.1307,-1.133,-1.133,-1.1208,-1.1106,-1.0899,-1.0456,-1.0104,-0.9828,-0.9828,-0.9961,-1.0195,-1.0596,-1.0809,-1.1029,-1.1607,-1.1682,-1.1703,-1.2068,-1.1642,-1.1168,-1.1435,-1.142,-1.1333,-1.1307,-1.1723,-1.2025,-1.1877,-1.1618,-1.1481,-1.1611,-1.1101,-1.0713,-1.0838,-1.0673,-1.0183,-0.9128,-0.9858,-0.9702,-0.7902,-0.8029,-0.7739,-0.6567,-0.6352,-0.6301,-0.6321,-0.6751,-0.6855,-0.6476,-0.6588,-0.6395,-0.5987,-0.5518,-0.5043,-0.443,-0.4087,-0.3605,-0.3031,-0.2631,-0.232,-0.2099,-0.17,-0.1478,-0.1389,-0.1389,-0.1254,-0.0985,-0.0985,-0.0985,-0.0985,-0.0985,-0.1344,-0.1749,-1.3496,-1.3825,-1.4008,-1.3462,-1.3572,-1.3663,-1.3334,-1.383,-1.4039,-1.345,-1.3597,-1.369,-1.3376,-1.3376,-1.324,-1.2863,-1.2785,-1.2568,-1.2078,-1.2041,-1.1573,-1.0456,-1.042,-1.0214,-0.9722,-0.9661,-0.9372,-0.8825,-0.8334,-0.7759,-0.7114,-0.6736,-0.7003,-0.7894,-0.9323,-1.0346,-1.0985,-1.114,-1.1556,-1.2053,-1.163,-1.1474,-1.1474,-1.1474,-1.1474,-1.1474,-1.1474,-1.1642,-1.178,-1.1203,-1.066,-1.0235,-1.0235,-1.0831,-1.146,-1.1149,-1.1492,-1.2017,-1.2273,-1.1964,-1.1792,-1.2529,-1.1913,-1.1168,-1.1435,-1.1129,-1.0769,-1.0695,-1.1062,-1.132,-1.105,-1.1326,-1.1486,-1.1225,-1.0804,-1.0642,-1.1034,-1.0503,-0.997,-0.9743,-0.9591,-0.9076,-0.7908,-0.8147,-0.8016,-0.7087,-0.6737,-0.6706,-0.6973,-0.7281,-0.7532,-0.7725,-0.7698,-0.7404,-0.6862,-0.6531,-0.5896,-0.4918,-0.4874,-0.4395,-0.3519,-0.3475,-0.2943,-0.2099,-0.2056,-0.1788,-0.1389,-0.1389,-0.1389,-0.1344,-0.1344,-0.1344,-0.1344,-0.1344,-0.1523,-0.1793,-1.4652,-1.4413,-1.4362,-1.4507,-1.4141,-1.3817,-1.3897,-1.3931,-1.3788,-1.3329,-1.3581,-1.3742,-1.3581,-1.3425,-1.326,-1.3088,-1.3088,-1.2858,-1.235,-1.2319,-1.197,-1.1192,-1.1161,-1.1055,-1.0843,-1.0837,-1.0569,-0.9968,-0.9733,-0.9157,-0.8294,-0.8616,-0.9079,-0.9697,-1.1134,-1.1784,-1.1738,-1.189,-1.2329,-1.2881,-1.227,-1.2289,-1.2638,-1.2638,-1.2638,-1.2638,-1.2638,-1.2614,-1.2571,-1.2324,-1.1993,-1.1616,-1.1252,-1.1641,-1.2273,-1.2423,-1.2669,-1.2968,-1.3418,-1.3085,-1.2664,-1.2833,-1.2218,-1.1562,-1.151,-1.1339,-1.1162,-1.1162,-1.1162,-1.1198,-1.1256,-1.1206,-1.1219,-1.1374,-1.0846,-1.0511,-1.0753,-1.0475,-1.0103,-0.9734,-0.9542,-0.9087,-0.8187,-0.8185,-0.8122,-0.7838,-0.7507,-0.7284,-0.7239,-0.7848,-0.8108,-0.7921,-0.8435,-0.8452,-0.7923,-0.7255,-0.6583,-0.5899,-0.5305,-0.4599,-0.3819,-0.3563,-0.2879,-0.1984,-0.1769,-0.1567,-0.1389,-0.1389,-0.1389,-0.1389,-0.1389,-0.1389,-0.1389,-0.1389,-0.1658,-0.1974,-1.5482,-1.4972,-1.4768,-1.5248,-1.4729,-1.4244,-1.429,-1.415,-1.3842,-1.3397,-1.3547,-1.3642,-1.3547,-1.3527,-1.3438,-1.3232,-1.3198,-1.3035,-1.2647,-1.2655,-1.2404,-1.1851,-1.1833,-1.1751,-1.1588,-1.1588,-1.1399,-1.0953,-1.0737,-1.0237,-0.9523,-1.0321,-1.0856,-1.1277,-1.2684,-1.3116,-1.2763,-1.2892,-1.3237,-1.362,-1.2954,-1.2994,-1.3394,-1.3394,-1.3394,-1.3394,-1.3394,-1.3404,-1.3364,-1.3179,-1.3247,-1.3248,-1.2366,-1.2559,-1.3157,-1.3443,-1.3645,-1.3885,-1.4203,-1.3808,-1.3251,-1.2962,-1.2409,-1.1819,-1.1566,-1.1496,-1.1474,-1.1399,-1.1231,-1.11,-1.112,-1.0899,-1.0767,-1.0994,-1.0562,-1.0226,-1.0331,-1.0164,-0.9926,-0.9633,-0.9458,-0.9138,-0.849,-0.8578,-0.8652,-0.8606,-0.8556,-0.8407,-0.8075,-0.8573,-0.8838,-0.8723,-0.9251,-0.9315,-0.8905,-0.8088,-0.7286,-0.653,-0.5624,-0.4809,-0.406,-0.3535,-0.291,-0.2185,-0.1766,-0.1522,-0.1389,-0.1389,-0.1389,-0.1389,-0.1389,-0.1389,-0.1389,-0.1479,-0.1749,-0.2109,-1.564,-1.5448,-1.5374,-1.5389,-1.5344,-1.5048,-1.439,-1.4581,-1.4536,-1.3775,-1.3709,-1.3581,-1.3232,-1.3861,-1.3993,-1.326,-1.3198,-1.3198,-1.3192,-1.3192,-1.2941,-1.2423,-1.2404,-1.2146,-1.1594,-1.1588,-1.1588,-1.1581,-1.0975,-1.0678,-1.0691,-1.1295,-1.1787,-1.2231,-1.365,-1.4269,-1.4254,-1.429,-1.429,-1.4246,-1.3634,-1.3387,-1.3394,-1.3394,-1.3394,-1.3394,-1.3394,-1.3774,-1.4202,-1.3612,-1.4224,-1.5,-1.3479,-1.359,-1.4219,-1.3897,-1.4258,-1.47,-1.439,-1.3808,-1.3251,-1.2962,-1.2409,-1.1819,-1.1566,-1.1496,-1.1421,-1.1162,-1.1092,-1.092,-1.0323,-1.0223,-1.0104,-0.9781,-0.9729,-0.9716,-0.9722,-0.9432,-0.9298,-0.9558,-0.9298,-0.9007,-0.8711,-0.953,-0.9849,-0.9321,-0.9911,-1.0146,-0.9899,-0.951,-0.9722,-1.0639,-1.0288,-1.0025,-0.988,-0.9133,-0.8059,-0.67,-0.5933,-0.5148,-0.4256,-0.3606,-0.3128,-0.2851,-0.232,-0.1833,-0.1389,-0.1389,-0.1389,-0.1389,-0.1389,-0.1389,-0.1433,-0.1703,-0.1928,-0.2154,-1.6924,-1.6274,-1.5835,-1.6109,-1.556,-1.4928,-1.4452,-1.4259,-1.3973,-1.3425,-1.3547,-1.3581,-1.3232,-1.3397,-1.3472,-1.3232,-1.3198,-1.3198,-1.3198,-1.3198,-1.3117,-1.2941,-1.2941,-1.2981,-1.3013,-1.3045,-1.3045,-1.3045,-1.2703,-1.2649,-1.2887,-1.3087,-1.358,-1.432,-1.4783,-1.4993,-1.4964,-1.45,-1.4544,-1.4935,-1.4275,-1.429,-1.4696,-1.4696,-1.4696,-1.4696,-1.4696,-1.4827,-1.4957,-1.4761,-1.4964,-1.521,-1.4732,-1.4768,-1.4957,-1.4838,-1.4959,-1.5124,-1.4994,-1.4488,-1.3863,-1.3353,-1.2729,-1.2115,-1.1733,-1.163,-1.1586,-1.1421,-1.1376,-1.1201,-1.065,-1.0503,-1.033,-0.9905,-1.0092,-1.0176,-0.9812,-0.9997,-1.0034,-0.9707,-0.9212,-0.8998,-0.928,-0.9533,-0.9704,-0.9769,-1.0444,-1.0663,-1.0206,-1.0227,-1.0363,-1.0613,-1.0899,-1.0867,-1.0442,-0.9923,-0.892,-0.7391,-0.6742,-0.571,-0.4354,-0.364,-0.3248,-0.3124,-0.2424,-0.201,-0.1878,-0.1747,-0.1658,-0.1703,-0.1838,-0.1884,-0.1884,-0.1974,-0.2152,-0.2373,-1.7641,-1.7012,-1.6623,-1.6873,-1.6164,-1.5456,-1.5064,-1.4614,-1.4149,-1.3742,-1.3775,-1.3742,-1.352,-1.3357,-1.3267,-1.3198,-1.3198,-1.3198,-1.3198,-1.3198,-1.3198,-1.3198,-1.3329,-1.3486,-1.3709,-1.3848,-1.3914,-1.3914,-1.3799,-1.3925,-1.4234,-1.4234,-1.4633,-1.5313,-1.5313,-1.5313,-1.5284,-1.4943,-1.4979,-1.5277,-1.4936,-1.4987,-1.5313,-1.5313,-1.5313,-1.5313,-1.5313,-1.5313,-1.5313,-1.5313,-1.5313,-1.5313,-1.5313,-1.5313,-1.5313,-1.5313,-1.5313,-1.5313,-1.5313,-1.4819,-1.4166,-1.3554,-1.2889,-1.2267,-1.1733,-1.1623,-1.1564,-1.1391,-1.1353,-1.1208,-1.0784,-1.0663,-1.0576,-1.0373,-1.0598,-1.063,-1.021,-1.0405,-1.0368,-0.9772,-0.9522,-0.9524,-0.9831,-1.0201,-1.0487,-1.0687,-1.1324,-1.1545,-1.123,-1.1047,-1.106,-1.1391,-1.1472,-1.1324,-1.0981,-1.0427,-0.9389,-0.7946,-0.6977,-0.5858,-0.4621,-0.4152,-0.3791,-0.3473,-0.2864,-0.2497,-0.232,-0.2015,-0.1928,-0.1928,-0.2064,-0.2109,-0.2109,-0.2196,-0.2374,-0.2505,-1.7951,-1.7721,-1.7651,-1.7684,-1.7077,-1.6454,-1.6085,-1.5448,-1.4894,-1.4508,-1.4181,-1.396,-1.3993,-1.3675,-1.3391,-1.326,-1.3232,-1.3198,-1.3198,-1.3198,-1.3198,-1.3232,-1.352,-1.3709,-1.3775,-1.415,-1.4358,-1.4358,-1.4358,-1.4518,-1.4832,-1.4832,-1.4994,-1.5313,-1.5313,-1.5313,-1.5336,-1.5507,-1.547,-1.5336,-1.55,-1.547,-1.5313,-1.5313,-1.5306,-1.5306,-1.5306,-1.5313,-1.5313,-1.5313,-1.5313,-1.5313,-1.5313,-1.5306,-1.5313,-1.5306,-1.5313,-1.5313,-1.5313,-1.4863,-1.4231,-1.3646,-1.2943,-1.2265,-1.1693,-1.1548,-1.1444,-1.1185,-1.1139,-1.1045,-1.0784,-1.077,-1.0868,-1.1103,-1.1207,-1.1151,-1.079,-1.0741,-1.0523,-0.9833,-1.0168,-1.0458,-1.0413,-1.1303,-1.1886,-1.1886,-1.2408,-1.2691,-1.2655,-1.1861,-1.1803,-1.2656,-1.1957,-1.1584,-1.1547,-1.0723,-0.9663,-0.8425,-0.6848,-0.5736,-0.5144,-0.504,-0.4652,-0.3993,-0.36,-0.3204,-0.2763,-0.2373,-0.2198,-0.2154,-0.2199,-0.2154,-0.2199,-0.2417,-0.255,-0.255,-1.9185,-1.8536,-1.81,-1.8403,-1.7858,-1.7112,-1.6214,-1.5709,-1.5157,-1.4242,-1.3835,-1.3709,-1.396,-1.3934,-1.3835,-1.3742,-1.3425,-1.3198,-1.3198,-1.3198,-1.3295,-1.3581,-1.3642,-1.3973,-1.4543,-1.4637,-1.4801,-1.5056,-1.4801,-1.4839,-1.5185,-1.5185,-1.5215,-1.5313,-1.5313,-1.5395,-1.5522,-1.5425,-1.5448,-1.5529,-1.5418,-1.5381,-1.5374,-1.5374,-1.5403,-1.5433,-1.5396,-1.5374,-1.5374,-1.5306,-1.5313,-1.5336,-1.547,-1.5522,-1.55,-1.5343,-1.5313,-1.5336,-1.55,-1.5301,-1.495,-1.449,-1.3491,-1.2557,-1.2252,-1.1923,-1.1608,-1.1444,-1.1399,-1.133,-1.1045,-1.1374,-1.1654,-1.156,-1.2284,-1.2446,-1.1243,-1.1816,-1.1842,-1.0463,-1.0775,-1.1235,-1.1555,-1.1763,-1.1886,-1.1886,-1.2408,-1.2534,-1.2124,-1.2262,-1.2466,-1.2703,-1.252,-1.2264,-1.1962,-1.1468,-1.0481,-0.899,-0.7479,-0.6673,-0.6514,-0.5641,-0.5129,-0.4911,-0.4125,-0.373,-0.3598,-0.3342,-0.3078,-0.2815,-0.2997,-0.2954,-0.2733,-0.2777,-0.2822,-0.2822,-1.9654,-1.9219,-1.8903,-1.9116,-1.8605,-1.7944,-1.7375,-1.6749,-1.6108,-1.5531,-1.5189,-1.5019,-1.5222,-1.4942,-1.4719,-1.4679,-1.3986,-1.352,-1.3425,-1.3486,-1.3655,-1.3947,-1.4111,-1.4401,-1.4801,-1.498,-1.5163,-1.5381,-1.5163,-1.5209,-1.5485,-1.5485,-1.5522,-1.5617,-1.5617,-1.5668,-1.5776,-1.5675,-1.561,-1.558,-1.5514,-1.5455,-1.5418,-1.5492,-1.5529,-1.5514,-1.5485,-1.5448,-1.5389,-1.5328,-1.5313,-1.5336,-1.5529,-1.5631,-1.566,-1.55,-1.5448,-1.5448,-1.5448,-1.5448,-1.5323,-1.4809,-1.3857,-1.2985,-1.2878,-1.2424,-1.2003,-1.1925,-1.1693,-1.1538,-1.168,-1.183,-1.2059,-1.2368,-1.2826,-1.2786,-1.188,-1.2263,-1.2202,-1.1018,-1.1302,-1.1716,-1.1916,-1.2137,-1.2281,-1.2281,-1.2547,-1.2583,-1.2293,-1.2553,-1.2709,-1.2709,-1.2709,-1.252,-1.2108,-1.1308,-1.0384,-0.9379,-0.8201,-0.7528,-0.7288,-0.6256,-0.565,-0.5435,-0.4526,-0.4134,-0.4092,-0.3831,-0.361,-0.3391,-0.3396,-0.3396,-0.3353,-0.3176,-0.322,-0.3353,-1.9682,-1.9682,-1.9682,-1.9682,-1.9226,-1.8822,-1.8725,-1.7939,-1.7299,-1.7204,-1.6904,-1.6725,-1.6759,-1.6146,-1.5705,-1.5672,-1.4788,-1.4091,-1.3835,-1.3927,-1.4104,-1.4383,-1.4669,-1.4832,-1.4894,-1.5246,-1.5418,-1.5463,-1.5448,-1.5529,-1.5717,-1.5775,-1.5868,-1.6024,-1.6045,-1.608,-1.608,-1.6017,-1.5883,-1.5711,-1.5667,-1.5609,-1.5529,-1.5696,-1.5725,-1.5675,-1.5718,-1.5624,-1.5507,-1.5463,-1.544,-1.544,-1.5689,-1.5839,-1.5917,-1.5769,-1.5747,-1.5689,-1.5477,-1.5558,-1.5591,-1.5039,-1.4263,-1.3645,-1.3645,-1.3023,-1.2466,-1.2466,-1.2013,-1.1802,-1.2299,-1.2313,-1.251,-1.3231,-1.32,-1.2959,-1.2513,-1.241,-1.2107,-1.1388,-1.1637,-1.1852,-1.1799,-1.2203,-1.2474,-1.2474,-1.2474,-1.2474,-1.2474,-1.2547,-1.2589,-1.2589,-1.2667,-1.2484,-1.1999,-1.0987,-1.0225,-0.9702,-0.8999,-0.8427,-0.7964,-0.6875,-0.6204,-0.5862,-0.4884,-0.4497,-0.4453,-0.419,-0.4014,-0.3926,-0.3661,-0.3706,-0.3882,-0.3573,-0.3661,-0.3882,-1.9682,-1.9682,-1.9682,-1.9682,-1.96,-1.9338,-1.8792,-1.8315,-1.7835,-1.7263,-1.6904,-1.6801,-1.7081,-1.6518,-1.607,-1.6038,-1.5463,-1.4883,-1.4406,-1.4406,-1.454,-1.4797,-1.4859,-1.502,-1.5299,-1.5418,-1.5426,-1.5336,-1.5558,-1.5689,-1.5782,-1.6009,-1.6148,-1.6176,-1.6305,-1.6378,-1.6413,-1.607,-1.6022,-1.6156,-1.5703,-1.5718,-1.5975,-1.6039,-1.6191,-1.6421,-1.6394,-1.6211,-1.6032,-1.6168,-1.6042,-1.5894,-1.637,-1.6531,-1.6538,-1.6413,-1.6359,-1.6278,-1.5968,-1.6052,-1.6133,-1.5867,-1.5261,-1.4735,-1.4735,-1.3708,-1.2728,-1.2728,-1.2465,-1.2301,-1.2371,-1.3243,-1.3849,-1.3657,-1.4114,-1.4093,-1.2901,-1.2767,-1.2429,-1.1412,-1.1363,-1.1363,-1.125,-1.1291,-1.1339,-1.1339,-1.1339,-1.1339,-1.1339,-1.1766,-1.2007,-1.2007,-1.2474,-1.2335,-1.159,-1.1732,-1.1276,-1.0201,-1.0006,-0.9718,-0.9253,-0.7649,-0.6865,-0.6742,-0.5445,-0.49,-0.49,-0.4854,-0.4631,-0.4322,-0.4278,-0.4102,-0.3882,-0.3838,-0.3838,-0.3882,-1.998,-2.0023,-2.0135,-2.0273,-2.017,-1.9958,-1.9569,-1.9371,-1.9119,-1.8619,-1.8399,-1.8357,-1.8519,-1.7936,-1.7545,-1.7512,-1.6954,-1.6483,-1.6246,-1.5346,-1.4944,-1.5195,-1.5589,-1.6031,-1.6577,-1.6568,-1.6701,-1.6924,-1.66,-1.6607,-1.694,-1.6639,-1.6573,-1.6659,-1.712,-1.7106,-1.6779,-1.6878,-1.6768,-1.6493,-1.6168,-1.6148,-1.632,-1.6436,-1.6535,-1.6588,-1.6599,-1.6466,-1.632,-1.6378,-1.6309,-1.6227,-1.6504,-1.6644,-1.667,-1.644,-1.632,-1.6211,-1.6183,-1.6163,-1.6136,-1.6163,-1.5851,-1.554,-1.554,-1.4455,-1.3517,-1.3784,-1.3161,-1.2734,-1.331,-1.3775,-1.4104,-1.4272,-1.4426,-1.4319,-1.3685,-1.3575,-1.3248,-1.2424,-1.2114,-1.1784,-1.1406,-1.121,-1.1099,-1.1099,-1.1099,-1.1099,-1.1099,-1.1327,-1.1459,-1.1459,-1.2004,-1.1994,-1.1417,-1.1113,-1.0594,-0.9796,-0.9642,-0.9445,-0.923,-0.7691,-0.6991,-0.6907,-0.5577,-0.4987,-0.4987,-0.4987,-0.4898,-0.4721,-0.4499,-0.4456,-0.4456,-0.4234,-0.4322,-0.4499,-2.0319,-2.0429,-2.0545,-2.0753,-2.062,-2.0478,-2.0361,-2.025,-2.0112,-1.9846,-1.9818,-1.9818,-1.9818,-1.923,-1.8857,-1.8932,-1.8261,-1.7876,-1.7964,-1.6697,-1.5957,-1.5994,-1.6467,-1.7008,-1.7552,-1.7548,-1.777,-1.823,-1.7677,-1.7673,-1.8174,-1.7647,-1.7468,-1.7587,-1.8174,-1.8117,-1.7578,-1.7952,-1.7791,-1.726,-1.7108,-1.7081,-1.7119,-1.7101,-1.7089,-1.7021,-1.6922,-1.6763,-1.6625,-1.6651,-1.6591,-1.6565,-1.6678,-1.6789,-1.6789,-1.6528,-1.6359,-1.6285,-1.6348,-1.6274,-1.6191,-1.632,-1.6293,-1.6211,-1.6156,-1.5111,-1.4286,-1.4781,-1.388,-1.3292,-1.4266,-1.4392,-1.4419,-1.4779,-1.4624,-1.4401,-1.4157,-1.3837,-1.3427,-1.2859,-1.2223,-1.1656,-1.1176,-1.0893,-1.0732,-1.0732,-1.0732,-1.0732,-1.0732,-1.0846,-1.0972,-1.1099,-1.149,-1.153,-1.1114,-1.0453,-0.9901,-0.9389,-0.9333,-0.9212,-0.912,-0.7991,-0.7363,-0.7068,-0.5822,-0.5195,-0.4987,-0.4987,-0.4987,-0.4987,-0.4677,-0.4721,-0.4944,-0.4633,-0.4721,-0.4987,-2.0687,-2.0753,-2.0794,-2.0794,-2.0794,-2.0761,-2.0761,-2.0429,-2.0174,-2.0181,-2.0174,-2.0174,-2.0174,-1.9567,-1.9306,-1.9689,-1.8819,-1.8385,-1.8706,-1.8604,-1.8213,-1.7476,-1.7488,-1.7514,-1.7523,-1.7632,-1.7804,-1.8013,-1.8277,-1.86,-1.9018,-1.9145,-1.9211,-1.9239,-1.9405,-1.9405,-1.9211,-1.9126,-1.9082,-1.8997,-1.8722,-1.8779,-1.8932,-1.8265,-1.8145,-1.8277,-1.7658,-1.7248,-1.7026,-1.7314,-1.7216,-1.7018,-1.7338,-1.7354,-1.7224,-1.7001,-1.6977,-1.6943,-1.6659,-1.6562,-1.6562,-1.6562,-1.6763,-1.6858,-1.6615,-1.5582,-1.4781,-1.5261,-1.4587,-1.4131,-1.4818,-1.5427,-1.5644,-1.509,-1.5015,-1.4724,-1.3769,-1.2827,-1.2089,-1.1681,-1.0622,-0.9876,-0.976,-0.9659,-0.9611,-0.9611,-0.9611,-0.9611,-0.9611,-1.0101,-1.0594,-1.1081,-1.1135,-1.0959,-1.0561,-1.0547,-1.0167,-0.9422,-0.9902,-0.9903,-0.9534,-0.9081,-0.8391,-0.7507,-0.6596,-0.573,-0.4987,-0.4987,-0.4987,-0.4987,-0.4987,-0.4985,-0.4987,-0.4987,-0.4985,-0.4987,-2.1079,-2.1269,-2.1417,-2.1417,-2.1417,-2.1355,-2.1151,-2.0974,-2.0803,-2.0605,-2.0571,-2.0571,-2.0571,-2.0336,-2.0253,-2.0399,-2.0066,-1.9909,-2.002,-2.0052,-1.9736,-1.8989,-1.8974,-1.9143,-1.9543,-1.9609,-1.9756,-2.0067,-1.9708,-1.9731,-2.009,-1.9718,-1.9512,-1.9563,-2.0056,-2.0006,-1.9536,-1.9965,-1.9871,-1.9441,-1.9331,-1.9359,-1.9386,-1.8766,-1.851,-1.8419,-1.7833,-1.7489,-1.733,-1.7451,-1.7427,-1.7314,-1.7346,-1.741,-1.7425,-1.7384,-1.7352,-1.7288,-1.7002,-1.6901,-1.6952,-1.706,-1.7043,-1.696,-1.6866,-1.6161,-1.5591,-1.5895,-1.5343,-1.4978,-1.5529,-1.5829,-1.5911,-1.5667,-1.5345,-1.4924,-1.4359,-1.3489,-1.2638,-1.1912,-1.1109,-1.0527,-1.025,-1.0008,-0.9854,-0.9808,-0.9802,-0.971,-0.9517,-0.9683,-0.9887,-1.0113,-1.0119,-1.0183,-1.0385,-0.9892,-0.9556,-0.9335,-0.9592,-0.9682,-0.9571,-0.9163,-0.8472,-0.7549,-0.6674,-0.5813,-0.4987,-0.4987,-0.4987,-0.4987,-0.4987,-0.4987,-0.4987,-0.4987,-0.4987,-0.507,-2.1487,-2.167,-2.1789,-2.1789,-2.1789,-2.173,-2.1487,-2.1371,-2.1222,-2.099,-2.0958,-2.0958,-2.0958,-2.0958,-2.0982,-2.1103,-2.1071,-2.1063,-2.1103,-2.1182,-2.087,-2.0139,-2.0115,-2.0337,-2.0786,-2.0794,-2.0958,-2.1317,-2.0784,-2.0722,-2.1019,-2.0539,-2.0279,-2.0323,-2.0812,-2.0762,-2.034,-2.0897,-2.085,-2.04,-2.0471,-2.0498,-2.045,-1.985,-1.9538,-1.9303,-1.8464,-1.8072,-1.7979,-1.7738,-1.7662,-1.7631,-1.7561,-1.7551,-1.7595,-1.7658,-1.7627,-1.7549,-1.7336,-1.7215,-1.7167,-1.7264,-1.7142,-1.6993,-1.6993,-1.6467,-1.6056,-1.6333,-1.5689,-1.5226,-1.5787,-1.5821,-1.5678,-1.5411,-1.5164,-1.4775,-1.4211,-1.3474,-1.2671,-1.1924,-1.1353,-1.0879,-1.0518,-1.0248,-1.0046,-0.9925,-0.9899,-0.9802,-0.9544,-0.9517,-0.9491,-0.9491,-0.9491,-0.9665,-1.0059,-0.9308,-0.9001,-0.9071,-0.9205,-0.9313,-0.9417,-0.9423,-0.8755,-0.7549,-0.6967,-0.6064,-0.4987,-0.4987,-0.4987,-0.4987,-0.4987,-0.4987,-0.4994,-0.5058,-0.525,-0.5588,-2.1832,-2.1848,-2.1789,-2.1789,-2.1789,-2.1789,-2.1789,-2.1526,-2.1309,-2.1309,-2.1317,-2.1317,-2.1317,-2.1317,-2.1433,-2.1797,-2.1697,-2.1658,-2.1789,-2.199,-2.171,-2.0852,-2.0827,-2.0827,-2.0827,-2.0827,-2.0958,-2.1317,-2.1317,-2.1464,-2.1789,-2.1789,-2.1789,-2.1789,-2.1789,-2.1789,-2.1819,-2.2019,-2.2096,-2.2133,-2.2398,-2.2515,-2.2429,-2.1687,-2.1396,-2.1199,-1.9666,-1.9118,-1.9007,-1.8261,-1.8013,-1.8013,-1.8005,-1.7909,-1.7811,-1.7803,-1.7811,-1.778,-1.7718,-1.7486,-1.724,-1.706,-1.6993,-1.6993,-1.6993,-1.65,-1.612,-1.6525,-1.5548,-1.4806,-1.5486,-1.5429,-1.5016,-1.4143,-1.4393,-1.4258,-1.3058,-1.2392,-1.1878,-1.1534,-1.0971,-1.0478,-1.0242,-1.0141,-0.9995,-0.973,-0.971,-0.9664,-0.9611,-0.9544,-0.9491,-0.9491,-0.9491,-0.9491,-0.9491,-0.8905,-0.86,-0.8617,-0.8884,-0.9014,-0.9043,-0.9893,-0.9323,-0.759,-0.759,-0.6603,-0.5029,-0.5029,-0.5031,-0.5031,-0.5031,-0.5031,-0.5055,-0.526,-0.5844,-0.6627,-2.184,-2.1811,-2.184,-2.1998,-2.189,-2.184,-2.199,-2.1802,-2.1639,-2.1639,-2.1764,-2.1874,-2.1874,-2.2015,-2.2183,-2.2268,-2.226,-2.226,-2.2304,-2.2352,-2.2251,-2.1986,-2.1815,-2.171,-2.171,-2.171,-2.1769,-2.1874,-2.1874,-2.1903,-2.2019,-2.2019,-2.2019,-2.2019,-2.2019,-2.213,-2.2268,-2.2133,-2.2198,-2.2379,-2.2479,-2.2515,-2.2421,-2.1799,-2.1481,-2.1285,-2.0409,-2.0024,-1.9812,-1.9036,-1.8771,-1.8707,-1.8263,-1.8053,-1.7953,-1.8057,-1.791,-1.7718,-1.7718,-1.74,-1.7109,-1.7264,-1.7142,-1.6993,-1.6993,-1.6856,-1.6684,-1.662,-1.5912,-1.5367,-1.5565,-1.516,-1.4711,-1.4452,-1.4106,-1.3646,-1.3045,-1.2064,-1.1261,-1.0967,-1.0603,-1.036,-1.0279,-1.0587,-1.0674,-1.0361,-1.0097,-0.9951,-0.988,-0.969,-0.9538,-0.9491,-0.9491,-0.9438,-0.9298,-0.9334,-0.9414,-0.9508,-0.969,-0.9821,-0.9912,-1.0166,-0.9663,-0.8553,-0.835,-0.7604,-0.6531,-0.6295,-0.6176,-0.6176,-0.6176,-0.6176,-0.6288,-0.696,-0.7348,-0.7758,-2.2206,-2.2133,-2.2153,-2.2234,-2.2064,-2.1969,-2.2068,-2.1998,-2.192,-2.192,-2.2121,-2.2262,-2.2262,-2.2407,-2.2515,-2.2515,-2.2515,-2.2533,-2.2605,-2.2614,-2.2614,-2.2614,-2.2463,-2.2337,-2.2262,-2.2262,-2.2262,-2.2262,-2.2262,-2.2262,-2.2262,-2.2262,-2.2262,-2.2262,-2.2262,-2.2343,-2.2479,-2.2409,-2.2472,-2.2641,-2.272,-2.2738,-2.2712,-2.233,-2.2147,-2.1994,-2.1327,-2.1033,-2.0792,-1.971,-1.9117,-1.8802,-1.8426,-1.8255,-1.821,-1.8196,-1.8061,-1.7858,-1.7763,-1.7534,-1.7337,-1.7464,-1.7191,-1.6942,-1.7035,-1.6993,-1.6866,-1.6641,-1.607,-1.5605,-1.5605,-1.5191,-1.4703,-1.417,-1.3806,-1.3329,-1.2599,-1.1782,-1.1209,-1.104,-1.0883,-1.0726,-1.0636,-1.0913,-1.092,-1.0503,-1.0267,-1.0091,-0.9925,-0.9736,-0.9611,-0.9591,-0.9485,-0.9446,-0.9508,-0.9653,-0.9629,-0.9515,-0.9761,-0.9991,-1.011,-1.0277,-0.9908,-0.9089,-0.8719,-0.8135,-0.7425,-0.6917,-0.68,-0.6913,-0.6761,-0.68,-0.7041,-0.7831,-0.8434,-0.9059,-2.2807,-2.2686,-2.2625,-2.257,-2.2345,-2.2164,-2.22,-2.2172,-2.2164,-2.2164,-2.239,-2.256,-2.2579,-2.256,-2.256,-2.2587,-2.256,-2.2641,-2.2808,-2.2859,-2.2859,-2.2833,-2.2859,-2.2764,-2.256,-2.2542,-2.2542,-2.2542,-2.2542,-2.2542,-2.2542,-2.2542,-2.2542,-2.2542,-2.2542,-2.2542,-2.256,-2.2738,-2.2816,-2.2833,-2.3045,-2.3086,-2.3086,-2.3086,-2.3086,-2.3023,-2.2338,-2.2092,-2.1864,-2.0398,-1.9275,-1.8502,-1.8573,-1.8555,-1.8445,-1.8258,-1.8187,-1.8112,-1.79,-1.7811,-1.7758,-1.7689,-1.7264,-1.6942,-1.7191,-1.7035,-1.6815,-1.6693,-1.6146,-1.5654,-1.5629,-1.5424,-1.4863,-1.3618,-1.354,-1.32,-1.1985,-1.16,-1.1474,-1.1474,-1.1466,-1.1369,-1.1092,-1.1069,-1.0859,-1.0385,-1.026,-1.0116,-0.9899,-0.9802,-0.9782,-0.9756,-0.9556,-0.9657,-0.9997,-0.9904,-0.9589,-0.9093,-0.9537,-0.9797,-0.9926,-1.0316,-1.0089,-0.9403,-0.8951,-0.8488,-0.8018,-0.7245,-0.7161,-0.7466,-0.7043,-0.7161,-0.7579,-0.831,-0.9302,-1.0407,-2.2815,-2.278,-2.2815,-2.3017,-2.2841,-2.2712,-2.2925,-2.2789,-2.2643,-2.2643,-2.2781,-2.2935,-2.3105,-2.3026,-2.3052,-2.3253,-2.3102,-2.2986,-2.3036,-2.3223,-2.3238,-2.3036,-2.3247,-2.3223,-2.2995,-2.2816,-2.2729,-2.2729,-2.2729,-2.2729,-2.2729,-2.2729,-2.2729,-2.2729,-2.2729,-2.2816,-2.2961,-2.2859,-2.2885,-2.3036,-2.3086,-2.3086,-2.3086,-2.3086,-2.3086,-2.3068,-2.2926,-2.2865,-2.2724,-2.1803,-2.0153,-1.8599,-1.9231,-1.8904,-1.8258,-1.8208,-1.8048,-1.7914,-1.8078,-1.7886,-1.7712,-1.8013,-1.7833,-1.7566,-1.7447,-1.7352,-1.7264,-1.724,-1.6689,-1.6166,-1.5957,-1.5412,-1.4847,-1.438,-1.3659,-1.3045,-1.2758,-1.1833,-1.1185,-1.1185,-1.1279,-1.121,-1.0825,-1.0784,-1.0736,-1.0632,-1.0416,-1.0365,-1.0575,-1.0407,-1.0304,-1.026,-1.0612,-1.0577,-1.016,-1.0833,-1.0968,-1.0559,-1.0754,-1.0877,-1.0888,-1.0987,-1.0759,-1.0298,-0.9942,-0.9702,-0.9575,-0.8829,-0.8744,-0.908,-0.8667,-0.874,-0.9252,-1.0426,-1.1034,-1.1451,-2.3248,-2.3233,-2.3242,-2.3333,-2.3164,-2.304,-2.3173,-2.3074,-2.3014,-2.3069,-2.32,-2.3359,-2.3566,-2.3504,-2.3499,-2.3633,-2.3522,-2.3394,-2.3295,-2.3435,-2.3389,-2.3111,-2.3223,-2.3247,-2.3111,-2.2995,-2.2936,-2.2936,-2.2936,-2.2936,-2.2936,-2.2936,-2.2936,-2.2936,-2.2936,-2.2986,-2.3086,-2.2986,-2.3011,-2.3086,-2.3086,-2.3086,-2.3086,-2.3086,-2.3086,-2.3086,-2.3086,-2.2882,-2.2461,-2.168,-2.0394,-1.9073,-1.9117,-1.8767,-1.8348,-1.8348,-1.8246,-1.815,-1.831,-1.818,-1.81,-1.8403,-1.8284,-1.7992,-1.7664,-1.7572,-1.7511,-1.7416,-1.7016,-1.6651,-1.6508,-1.6064,-1.5567,-1.5146,-1.4545,-1.3921,-1.3237,-1.2493,-1.1885,-1.1578,-1.1593,-1.1542,-1.1347,-1.1324,-1.1263,-1.1134,-1.1003,-1.0929,-1.0994,-1.0884,-1.0739,-1.0494,-1.0899,-1.0956,-1.0588,-1.1196,-1.1577,-1.1774,-1.1572,-1.151,-1.1542,-1.1542,-1.1436,-1.1287,-1.089,-1.0852,-1.0981,-1.0196,-1.0104,-1.0402,-0.9801,-0.9919,-1.0584,-1.1627,-1.2552,-1.3363,-2.3725,-2.3712,-2.3691,-2.3567,-2.3449,-2.3353,-2.3353,-2.3376,-2.3436,-2.3535,-2.3622,-2.3756,-2.3958,-2.3908,-2.3858,-2.3795,-2.3816,-2.3719,-2.3517,-2.354,-2.3426,-2.3111,-2.3126,-2.316,-2.3086,-2.3086,-2.3086,-2.3086,-2.3086,-2.3086,-2.3086,-2.3086,-2.3086,-2.3086,-2.3086,-2.3086,-2.3086,-2.3086,-2.3086,-2.3086,-2.3086,-2.3135,-2.316,-2.316,-2.3199,-2.3214,-2.3214,-2.2753,-2.1993,-2.1322,-2.0527,-1.9679,-1.9008,-1.8707,-1.8593,-1.8593,-1.8593,-1.8593,-1.8593,-1.8593,-1.8631,-1.8788,-1.8677,-1.8399,-1.8023,-1.7901,-1.7813,-1.7676,-1.7461,-1.7287,-1.7247,-1.7052,-1.6717,-1.6112,-1.5783,-1.5193,-1.3933,-1.348,-1.3014,-1.2256,-1.2059,-1.1991,-1.1962,-1.1941,-1.1871,-1.1703,-1.1621,-1.1543,-1.1529,-1.1529,-1.1317,-1.0895,-1.1282,-1.1404,-1.1226,-1.1554,-1.2091,-1.2859,-1.2401,-1.2115,-1.2018,-1.2018,-1.206,-1.2071,-1.1693,-1.1735,-1.2029,-1.1233,-1.1148,-1.145,-1.0702,-1.0848,-1.1608,-1.2359,-1.3641,-1.5062,-2.3783,-2.3783,-2.3783,-2.3762,-2.3885,-2.3985,-2.3985,-2.4066,-2.4163,-2.4182,-2.404,-2.404,-2.4294,-2.422,-2.4039,-2.3816,-2.3846,-2.3771,-2.3526,-2.3655,-2.3558,-2.3111,-2.3319,-2.3342,-2.3119,-2.3086,-2.3086,-2.3086,-2.3086,-2.3086,-2.3086,-2.3086,-2.3086,-2.3086,-2.3086,-2.3086,-2.3086,-2.3086,-2.3086,-2.3086,-2.3086,-2.3247,-2.3458,-2.3458,-2.3544,-2.371,-2.371,-2.3199,-2.2495,-2.2402,-2.1401,-2.0192,-2.0011,-1.948,-1.893,-1.893,-1.893,-1.893,-1.893,-1.893,-1.8947,-1.8973,-1.8947,-1.8903,-1.8851,-1.8643,-1.8519,-1.8671,-1.8616,-1.8485,-1.8248,-1.8174,-1.8054,-1.7736,-1.7025,-1.632,-1.5727,-1.4964,-1.4066,-1.2978,-1.234,-1.1955,-1.1853,-1.171,-1.1777,-1.2108,-1.1684,-1.1831,-1.2799,-1.2834,-1.259,-1.1996,-1.2954,-1.309,-1.2227,-1.2703,-1.3283,-1.3907,-1.3835,-1.3342,-1.2496,-1.2496,-1.2354,-1.2108,-1.2029,-1.2029,-1.2071,-1.1535,-1.1577,-1.1945,-1.1456,-1.154,-1.2113,-1.3083,-1.4144,-1.5108,-2.3946,-2.3976,-2.3987,-2.4077,-2.4144,-2.42,-2.42,-2.4257,-2.433,-2.4401,-2.4293,-2.4311,-2.4541,-2.4472,-2.4383,-2.4257,-2.4275,-2.4182,-2.3958,-2.4037,-2.3928,-2.3567,-2.3664,-2.3655,-2.3491,-2.3499,-2.3522,-2.3553,-2.3247,-2.3086,-2.3086,-2.3168,-2.3256,-2.3319,-2.3362,-2.3422,-2.3499,-2.3522,-2.3553,-2.3544,-2.354,-2.3619,-2.3714,-2.3719,-2.3792,-2.3846,-2.3816,-2.3581,-2.32,-2.2756,-2.214,-2.1506,-2.107,-2.0671,-2.0318,-1.9856,-1.9729,-1.962,-1.9132,-1.9005,-1.9031,-1.913,-1.9081,-1.9064,-1.9286,-1.9157,-1.8964,-1.8904,-1.8771,-1.8599,-1.8479,-1.8318,-1.8191,-1.8072,-1.764,-1.711,-1.6488,-1.5956,-1.5302,-1.439,-1.4015,-1.3822,-1.3756,-1.3573,-1.3516,-1.369,-1.3377,-1.3396,-1.3902,-1.3949,-1.3702,-1.3176,-1.3947,-1.4048,-1.337,-1.3893,-1.4281,-1.4551,-1.4551,-1.4317,-1.3867,-1.3564,-1.3348,-1.3213,-1.2842,-1.272,-1.2691,-1.2478,-1.252,-1.2685,-1.2253,-1.2398,-1.297,-1.3618,-1.454,-1.541]},{"header":{"parameterUnit":"m.s-1","parameterCategory":1,"la1":30.6,"la2":28.766,"lo1":-90.7593,"lo2":-88.6598,"dy":0.0162,"dx":0.0183,"nx":116,"ny":114,"refTime":"2024-07-01T18:00:00:Z","depth":0,"parameterNumber":3,"parameterNumberName":"V-component_of_WINDS"},"data":[0.0,0.0,0.0,0.0,0.0,0.0,0.0,0.0,0.0,0.0,0.0,0.0,0.0,0.0,0.0,0.0,0.0,0.0,0.0,0.0,0.0,0.0,0.0,0.0,0.0,0.0,0.0,0.0,0.0,0.0,0.0,0.0,0.0,0.0,0.0,0.0,0.0,0.0,0.0,0.0,0.0,0.0,0.0,0.0,0.0,0.0,0.0,0.0,0.0,0.0,0.0,0.0,0.0,0.0,0.0,0.0,0.0,0.0,0.0,0.0,0.0,0.0,0.0,0.0,0.0,0.0,0.0,0.0,0.0,0.0,0.0,0.0,0.0,0.0,0.0,0.0,0.0,0.0,0.0,0.0,0.0,0.0,0.0,0.0,0.0,0.0,0.0,0.0,0.0,0.0,0.0,0.0,0.0,0.0,0.0,0.0,0.0,0.0,0.0,0.0,0.0,0.0,0.0,0.0,0.0,0.0,0.0,0.0,0.0,0.0,0.0,0.0,0.0,0.0,0.0,0.0,0.0,0.0,0.0,0.0,0.0,0.0,0.0,0.0,0.0,0.0,0.0,0.0,0.0,0.0,0.0,0.0,0.0,0.0,0.0,0.0,0.0,0.0,0.0,0.0,0.0,0.0,0.0,0.0,0.0,0.0,0.0,0.0,0.0,0.0,0.0,0.0,0.0,0.0,0.0,0.0,0.0,0.0,0.0,0.0,0.0,0.0,0.0,0.0,0.0,0.0,0.0,0.0,0.0,0.0,0.0,0.0,0.0,0.0,0.0,0.0,0.0,0.0,0.0,0.0,0.0,0.0,0.0,0.0,0.0,0.0,0.0,0.0,0.0,0.0,0.0,0.0,0.0,0.0,0.0,0.0,0.0,0.0,0.0,0.0,0.0,0.0,0.0,0.0,0.0,0.0,0.0,0.0,0.0,0.0,0.0,0.0,0.0,0.0,0.0,0.0,0.0,0.0,0.0,0.0,0.0,0.0,0.0,0.0,0.0,0.0,0.0,0.0,0.0,0.0,0.0,0.0,0.0,0.0,0.0,0.0,0.0,0.0,0.0,0.0,0.0,0.0,0.0,0.0,0.0,0.0,0.0,0.0,0.0,0.0,0.0,0.0,0.0,0.0,0.0,0.0,0.0,0.0,0.0,0.0,0.0,0.0,0.0,0.0,0.0,0.0,0.0,0.0,0.0,0.0,0.0,0.0,0.0,0.0,0.0,0.0,0.0,0.0,0.0,0.0,0.0,0.0,0.0,0.0,0.0,0.0,0.0,0.0,0.0,0.0,0.0,0.0,0.0,0.0,0.0,0.0,0.0,0.0,0.0,0.0,0.0,0.0,0.0,0.0,0.0,0.0,0.0,0.0,0.0,0.0,0.0,0.0,0.0,0.0,0.0,0.0,0.0,0.0,0.0,0.0,0.0,0.0,0.0,0.0,0.0,0.0,0.0,0.0,0.0,0.0,0.0,0.0,0.0,0.0,0.0,0.0,0.0,0.0,0.0,0.0,0.0,0.0,0.0,0.0,0.0,0.0,0.0,0.0,0.0,0.0,0.0,0.0,0.0,0.0,0.0,0.0,0.0,0.0,0.0,0.0,0.0,0.0,0.0,0.0,0.0,0.0,0.0,0.0,0.0,0.0,0.0,0.0,0.0,0.0,0.0,0.0,0.0,0.0,0.0,0.0,0.0,0.0,0.0,0.0,0.0,0.0,0.0,0.0,0.0,0.0,0.0,0.0,0.0,0.0,0.0,0.0,0.0,0.0,0.0,0.0,0.0,0.0,0.0,0.0,0.0,0.0,0.0,0.0,0.0,0.0,0.0,0.0,0.0,0.0,0.0,0.0,0.0,0.0,0.0,0.0,0.0,0.0,0.0,0.0,0.0,0.0,0.0,0.0,0.0,0.0,0.0,0.0,0.0,0.0,0.0,0.0,0.0,0.0,0.0,0.0,0.0,0.0,0.0,0.0,0.0,0.0,0.0,0.0,0.0,0.0,0.0,0.0,0.0,0.0,0.0,0.0,0.0,0.0,0.0,0.0,0.0,0.0,0.0,0.0,0.0,0.0,0.0,0.0,0.0,0.0,0.0,0.0,0.0,0.0,0.0,0.0,0.0,0.0,0.0,0.0,0.0,0.0,0.0,0.0,0.0,0.0,0.0,0.0,0.0,0.0,0.0,0.0,0.0,0.0,0.0,0.0,0.0,0.0,0.0,0.0,0.0,0.0,0.0,0.0,0.0,0.0,0.0,0.0,0.0,0.0,0.0,0.0,0.0,0.0,0.0,0.0,0.0,0.0,0.0,0.0,0.0,0.0,0.0,0.0,0.0,0.0,0.0,0.0,0.0,0.0,0.0,0.0,0.0,0.0,0.0,0.0,0.0,0.0,0.0,0.0,0.0,0.0,0.0,0.0,0.0,0.0,0.0,0.0,0.0,0.0,0.0,0.0,0.0,0.0,0.0,0.0,0.0,0.0,0.0,0.0,0.0,0.0,0.0,0.0,0.0,0.0,0.0,0.0,0.0,0.0,0.0,0.0,0.0,0.0,0.0,0.0,0.0,0.0,0.0,0.0,0.0,0.0,0.0,0.0,0.0,0.0,0.0,0.0,0.0,0.0,0.0,0.0,0.0,0.0,0.0,0.0,0.0,0.0,0.0,0.0,0.0,0.0,0.0,0.0,0.0,0.0,0.0,0.0,0.0,0.0,0.0,0.0,0.0,0.0,0.0,0.0,0.0,0.0,0.0,0.0,0.0,0.0,0.0,0.0,0.0,0.0,0.0,0.0,0.0,0.0,0.0,0.0,0.0,0.0,0.0,0.0,0.0,0.0,0.0,0.0,0.0,0.0,0.0,0.0,0.0,0.0,0.0,0.0,0.0,0.0,0.0,0.0,0.0,0.0,0.0,0.0,0.0,0.0,0.0,0.0,0.0,0.0,0.0,0.0,0.0,0.0,0.0,0.0,0.0,0.0,0.0,0.0,0.0,0.0,0.0,0.0,0.0,0.0,0.0,0.0,0.0,0.0,0.0,0.0,0.0,0.0,0.0,0.0,0.0,0.0,0.0,0.0,0.0,0.0,0.0,0.0,0.0,0.0,0.0,0.0,0.0,0.0,0.0,0.0,0.0,0.0,0.0,0.0,0.0,0.0,0.0,0.0,0.0,0.0,0.0,0.0,0.0,0.0,0.0,0.0,0.0,0.0,0.0,0.0,0.0,0.0,0.0,0.0,0.0,0.0,0.0,0.0,0.0,0.0,0.0,0.0,0.0,0.0,0.0,0.0,0.0,0.0,0.0,0.0,0.0,0.0,0.0,0.0,0.0,0.0,0.0,0.0,0.0,0.0,0.0,0.0,0.0,0.0,0.0,0.0,0.0,0.0,0.0,0.0,0.0,0.0,0.0,0.0,0.0,0.0,0.0,0.0,0.0,0.0,0.0,0.0,0.0,0.0,0.0,0.0,0.0,0.0,0.0,0.0,0.0,0.0,0.0,0.0,0.0,0.0,0.0,0.0,0.0,0.0,0.0,0.0,0.0,0.0,0.0,0.0,0.0,0.0,0.0,0.0,0.0,0.0,0.0,0.0,0.0,0.0,0.0,0.0,0.0,0.0,0.0,0.0,0.0,0.0,0.0,0.0,0.0,0.0,0.0,0.0,0.0,0.0,0.0,0.0,0.0,0.0,0.0,0.0,0.0,0.0,0.0,0.0,0.0,0.0,0.0,0.0,0.0,0.0,0.0,0.0,0.0,0.0,0.0,0.0,0.0,0.0,0.0,0.0,0.0,0.0,0.0,0.0,0.0,0.0,0.0,0.0,0.0,0.0,0.0,0.0,0.0,0.0,0.0,0.0,0.0,0.0,0.0,0.0,0.0,0.0,0.0,0.0,0.0,0.0,0.0,0.0,0.0,0.0,0.0,0.0,0.0,0.0,0.0,0.0,0.0,0.0,0.0,0.0,0.0,0.0,0.0,0.0,0.0,0.0,0.0,0.0,0.0,0.0,0.0,0.0,0.0,0.0,0.0,0.0,0.0,0.0,0.0,0.0,0.0,0.0,0.0,0.0,0.0,0.0,0.0,0.0,0.0,0.0,0.0,0.0,0.0,0.0,0.0,0.0,0.0,0.0,0.0,0.0,0.0,0.0,0.0,0.0,0.0,0.0,0.0,0.0,0.0,0.0,0.0,0.0,0.0,0.0,0.0,0.0,0.0,0.0,0.0,0.0,0.0,0.0,0.0,0.0,0.0,0.0,0.0,0.0,0.0,0.0,0.0,0.0,0.0,0.0,0.0,0.0,0.0,0.0,0.0,0.0,0.0,0.0,0.0,0.0,0.0,0.0,0.0,0.0,0.0,0.0,0.0,0.0,0.0,0.0,0.0,0.0,0.0,0.0,0.0,0.0,0.0,0.0,0.0,0.0,0.0,0.0,0.0,0.0,0.0,0.0,0.0,0.0,0.0,0.0,0.0,0.0,0.0,0.0,0.0,0.0,0.0,0.0,0.0,0.0,0.0,0.0,0.0,0.0,0.0,0.0,0.0,0.0,0.0,0.0,0.0,0.0,0.0,0.0,0.0,0.0,0.0,0.0,0.0,0.0,0.0,0.0,0.0,0.0,0.0,0.0,0.0,0.0,0.0,0.0,0.0,0.0,0.0,0.0,0.0,0.0,0.0,0.0,0.0,0.0,0.0,0.0,0.0,0.0,0.0,0.0,0.0,0.0,0.0,0.0,0.0,0.0,0.0,0.0,0.0,0.0,0.0,0.0,0.0,0.0,0.0,0.0,0.0,0.0,0.0,0.0,0.0,0.0,0.0,0.0,0.0,0.0,0.0,0.0,0.0,0.0,0.0,0.0,0.0,0.0,0.0,0.0,0.0,0.0,0.0,0.0,0.0,0.0,0.0,0.0,0.0,0.0,0.0,0.0,0.0,0.0,0.0,0.0,0.0,0.0,0.0,0.0,0.0,0.0,0.0,0.0,0.0,0.0,0.0,0.0,0.0,0.0,0.0,0.0,0.0,0.0,0.0,0.0,0.0,0.0,0.0,0.0,0.0,0.0,0.0,0.0,0.0,0.0,0.0,0.0,0.0,0.0,0.0,0.0,0.0,0.0,0.0,0.0,0.0,0.0,0.0,0.0,0.0,0.0,0.0,0.0,0.0,0.0,0.0,0.0,0.0,0.0,0.0,0.0,0.0,0.0,0.0,0.0,0.0,0.0,0.0,0.0,0.0,0.0,0.0,0.0,0.0,0.0,0.0,0.0,0.0,0.0,0.0,0.0,0.0,0.0,0.0,0.0,0.0,0.0,0.0,0.0,0.0,0.0,0.0,0.0,0.0,0.0,0.0,0.0,0.0,0.0,0.0,0.0,0.0,0.0,0.0,0.0,0.0,0.0,0.0,0.0,0.0,0.0,0.0,0.0,0.0,0.0,0.0,0.0,0.0,0.0,0.0,0.0,0.0,0.0,0.0,0.0,0.0,0.0,0.0,0.0,0.0,0.0,0.0,0.0,0.0,0.0,0.0,0.0,0.0,0.0,0.0,0.0,0.0,0.0,0.0,0.0,0.0,0.0,0.0,0.0,0.0,0.0,0.0,0.0,0.0,0.0,0.0,0.0,0.0,0.0,0.0,0.0,0.0,0.0,0.0,0.0,0.0,0.0,0.0,0.0,0.0,0.0,0.0,0.0,0.0,0.0,0.0,0.0,0.0,0.0,0.0,0.0,0.0,0.0,0.0,0.0,0.0,0.0,0.0,0.0,0.0,0.0,0.0,0.0,0.0,0.0,0.0,0.0,0.0,0.0,0.0,0.0,0.0,0.0,0.0,0.0,0.0,0.0,0.0,0.0,0.0,0.0,0.0,0.0,0.0,0.0,0.0,0.0,0.0,0.0,0.0,0.0,0.0,0.0,0.0,0.0,0.0,0.0,0.0,0.0,0.0,0.0,0.0,0.0,0.0,0.0,0.0,0.0,0.0,0.0,0.0,0.0,0.0,0.0,0.0,0.0,0.0,0.0,0.0,0.0,0.0,0.0,0.0,0.0,0.0,0.0,0.0,0.0,0.0,0.0,0.0,0.0,0.0,0.0,0.0,0.0,0.0,0.0,0.0,0.0,0.0,0.0,-1.5295,-1.3931,0.0,0.0,0.0,0.0,0.0,0.0,0.0,0.0,0.0,0.0,0.0,0.0,0.0,0.0,0.0,0.0,0.0,0.0,0.0,0.0,0.0,0.0,0.0,-0.611,-0.5379,-0.5379,-0.573,-0.6137,-0.6546,0.0,0.0,0.0,0.0,0.0,-0.8539,-0.8934,-0.9136,-0.9173,-0.9593,-0.9815,-0.9829,-0.9031,-0.8221,-0.7465,0.0,0.0,0.0,0.0,0.0,0.0,0.0,0.0,0.0,0.0,0.0,0.0,0.0,0.0,0.0,0.0,0.0,0.0,0.0,0.0,0.0,0.0,0.0,0.0,0.0,0.0,0.0,0.0,0.0,0.0,0.0,0.0,0.0,0.0,0.0,0.0,0.0,0.0,0.0,0.0,0.0,0.0,0.0,0.0,0.0,0.0,0.0,0.0,0.0,0.0,0.0,0.0,0.0,0.0,0.0,0.0,0.0,0.0,0.0,0.0,0.0,0.0,0.0,0.0,0.0,0.0,0.0,0.0,0.0,0.0,-1.8315,-1.7406,0.0,0.0,0.0,0.0,0.0,0.0,0.0,0.0,0.0,0.0,0.0,0.0,0.0,0.0,0.0,0.0,0.0,0.0,0.0,0.0,0.0,-0.7398,-0.7404,-0.6693,-0.6209,-0.6214,-0.6818,-0.7263,-0.7418,-0.7479,0.0,0.0,0.0,-0.7723,-0.7723,-0.8375,-0.8715,-0.8727,-0.9476,-0.9837,-0.9833,-0.9946,-0.9333,-0.8177,-0.8913,0.0,0.0,0.0,0.0,0.0,0.0,0.0,0.0,0.0,0.0,0.0,0.0,0.0,0.0,0.0,0.0,0.0,0.0,0.0,0.0,0.0,0.0,0.0,0.0,0.0,0.0,0.0,0.0,0.0,0.0,0.0,0.0,0.0,0.0,0.0,0.0,0.0,0.0,0.0,0.0,0.0,0.0,0.0,0.0,0.0,0.0,0.0,0.0,0.0,0.0,0.0,0.0,0.0,0.0,0.0,0.0,0.0,0.0,0.0,0.0,0.0,0.0,0.0,-2.0256,-2.0714,-2.1377,-2.0665,-2.1123,-2.2435,-2.1721,-2.156,-2.17,-2.0474,0.0,0.0,0.0,0.0,0.0,0.0,0.0,0.0,0.0,0.0,0.0,0.0,0.0,0.0,0.0,0.0,0.0,0.0,0.0,-0.8176,-0.8241,-0.7521,-0.7047,-0.7047,-0.7138,-0.7525,-0.828,-0.8342,0.0,0.0,-0.938,-0.9378,-0.9378,-0.9483,-0.9569,-0.9622,-0.9864,-0.9976,-0.9975,-0.9986,-1.0249,-1.0721,-1.0894,-1.0909,-1.0798,0.0,0.0,0.0,0.0,0.0,0.0,0.0,0.0,0.0,0.0,0.0,0.0,0.0,0.0,0.0,0.0,0.0,0.0,0.0,0.0,0.0,0.0,0.0,0.0,0.0,0.0,0.0,0.0,0.0,0.0,0.0,0.0,0.0,0.0,0.0,0.0,0.0,0.0,0.0,0.0,0.0,-1.4854,-1.5185,0.0,0.0,0.0,0.0,0.0,0.0,0.0,0.0,0.0,0.0,0.0,0.0,0.0,-1.9769,-2.1276,-2.2153,-2.2971,-2.3721,-2.4481,-2.49,-2.5007,-2.49,-2.4968,-2.5183,-2.5063,0.0,-2.1839,-2.2382,0.0,0.0,0.0,0.0,0.0,0.0,0.0,0.0,0.0,0.0,0.0,0.0,0.0,0.0,0.0,0.0,0.0,0.0,0.0,0.0,0.0,-0.8087,-0.7869,-0.7873,-0.8319,-0.8773,-0.9156,-0.9175,-0.9338,-0.9684,-0.9701,-0.9717,-0.9758,-1.0238,-1.0758,-1.1323,-1.1407,-1.1424,-1.1348,-1.1454,-1.1647,-1.1895,-1.2502,-1.2492,-1.2036,-1.2101,0.0,0.0,0.0,0.0,0.0,0.0,0.0,0.0,0.0,0.0,0.0,0.0,0.0,0.0,0.0,0.0,0.0,0.0,0.0,0.0,0.0,0.0,0.0,0.0,0.0,0.0,0.0,0.0,0.0,0.0,0.0,0.0,0.0,0.0,0.0,0.0,0.0,0.0,0.0,-1.3424,-1.5029,-1.6013,-1.6899,-1.7094,0.0,0.0,0.0,0.0,0.0,0.0,0.0,0.0,0.0,-2.1367,-2.1874,-2.2718,-2.3975,-2.4374,-2.4754,-2.5144,-2.5524,-2.5699,-2.5699,-2.5697,-2.5704,-2.5697,-2.5704,-2.5047,-2.3954,-2.3349,-2.2673,-2.1946,0.0,0.0,0.0,0.0,-2.1022,-2.0749,0.0,0.0,0.0,0.0,0.0,0.0,0.0,0.0,0.0,0.0,0.0,0.0,-0.8703,-0.8703,-0.8713,-0.8729,-0.9323,-0.9698,0.0,0.0,-0.9695,-0.9701,-0.9717,-0.9751,-0.98,-1.0669,-1.1585,-1.2525,-1.2592,-1.2572,-1.2454,-1.2607,-1.2704,-1.2785,-1.3537,-1.3535,-1.2954,-1.3007,-1.2695,0.0,0.0,0.0,0.0,0.0,0.0,0.0,0.0,0.0,0.0,0.0,0.0,0.0,0.0,0.0,0.0,0.0,0.0,0.0,0.0,0.0,0.0,0.0,0.0,0.0,0.0,0.0,0.0,0.0,0.0,0.0,0.0,0.0,0.0,0.0,0.0,0.0,0.0,-1.4583,-1.5889,-1.7194,-1.8315,-1.8536,0.0,0.0,0.0,0.0,0.0,0.0,-2.0198,-2.225,-2.3526,-2.376,-2.4394,-2.5036,-2.5689,-2.5699,-2.5703,-2.57,-2.57,-2.5704,-2.5704,-2.5701,-2.5697,-2.5697,-2.5703,-2.5703,-2.5595,-2.4295,-2.3774,-2.3638,-2.2389,-2.1901,-2.1979,-2.2633,-2.2457,-2.2184,0.0,0.0,0.0,0.0,0.0,0.0,0.0,0.0,0.0,0.0,0.0,-0.954,-0.9537,-0.9543,-0.9567,-0.9634,-0.9671,-0.9698,0.0,0.0,-0.9701,-0.9701,-0.9758,-0.98,-0.98,-1.0722,-1.1647,-1.2592,-1.2665,-1.266,-1.2586,-1.2597,-1.3009,-1.3726,-1.378,-1.3846,-1.3928,-1.3928,-1.3913,-1.3796,0.0,0.0,0.0,0.0,0.0,0.0,0.0,0.0,0.0,0.0,0.0,0.0,0.0,0.0,0.0,0.0,0.0,0.0,0.0,0.0,0.0,0.0,0.0,0.0,0.0,0.0,0.0,0.0,0.0,0.0,0.0,0.0,0.0,0.0,0.0,0.0,0.0,0.0,0.0,-1.9058,-2.0568,0.0,0.0,0.0,0.0,-1.9204,-2.1455,-2.2903,-2.2903,-2.3809,-2.4705,-2.5543,-2.5611,-2.566,-2.5699,-2.5699,-2.5704,-2.5698,-2.5698,-2.5697,-2.5699,-2.5699,-2.5699,-2.57,-2.5703,-2.5703,-2.5693,-2.5608,-2.557,-2.5561,-2.5482,-2.5443,-2.5453,-2.5492,-2.5482,-2.5463,0.0,0.0,0.0,-0.95,-0.95,-0.95,-0.95,-0.95,-0.9508,-0.9561,-0.9586,-0.9601,0.0,-0.964,-0.9672,-0.9698,-0.9698,-0.9698,-0.9698,0.0,-0.9931,-1.0443,-1.0505,-1.1072,-1.2282,-1.2677,-1.3324,-1.4263,-1.4305,-1.4272,-1.4211,-1.4245,-1.4398,-1.4638,-1.4683,-1.4734,-1.4766,-1.4767,-1.4473,-1.397,-1.366,-1.3032,0.0,0.0,0.0,0.0,0.0,0.0,0.0,0.0,0.0,0.0,0.0,0.0,0.0,0.0,0.0,0.0,0.0,0.0,0.0,0.0,0.0,0.0,0.0,0.0,0.0,0.0,0.0,0.0,0.0,0.0,0.0,0.0,0.0,0.0,0.0,0.0,0.0,-2.0743,-2.1919,0.0,-2.1776,-2.227,-2.2611,-2.2552,-2.341,-2.4179,-2.4744,-2.5066,-2.5377,-2.5689,-2.5699,-2.5699,-2.5699,-2.5699,-2.5704,-2.5698,-2.5698,-2.5699,-2.57,-2.5703,-2.5703,-2.5703,-2.5699,-2.5696,-2.5697,-2.5697,-2.5702,-2.5697,-2.5697,-2.5701,-2.5697,-2.5697,-2.5697,-2.5696,-0.9484,-0.9501,0.0,-0.95,-0.95,-0.95,-0.95,-0.95,-0.9526,-0.9596,-0.9602,-0.96,-0.9597,-0.9665,-0.9698,-0.9698,-0.9698,-0.9698,-0.9698,-0.9697,-0.994,-1.0471,-1.0803,-1.1837,-1.369,-1.3774,-1.4255,0.0,0.0,0.0,0.0,0.0,-1.5181,-1.5143,-1.5181,-1.5207,-1.5195,-1.5205,-1.4912,-1.4439,-1.4443,-1.3926,-1.3138,0.0,0.0,0.0,0.0,0.0,0.0,0.0,0.0,0.0,0.0,0.0,0.0,0.0,0.0,0.0,0.0,0.0,0.0,0.0,0.0,0.0,0.0,0.0,0.0,0.0,0.0,0.0,0.0,0.0,0.0,0.0,0.0,0.0,0.0,-1.9429,-2.0906,-2.2074,-2.3233,-2.3827,-2.3535,-2.3786,-2.4218,-2.4803,-2.4842,-2.5085,-2.567,-2.5699,-2.5699,-2.5699,-2.57,-2.5704,-2.5704,-2.5704,-2.5698,-2.5704,-2.5704,-2.57,-2.5703,-2.5701,-2.5699,-2.5699,-2.5701,-2.5697,-2.5697,-2.5704,-2.5696,-2.5702,-2.5699,-2.5701,-2.5697,-2.5701,-2.5702,-2.5702,-0.9484,-0.9492,-0.9501,-0.95,-0.95,-0.95,-0.95,-0.95,-0.9526,-0.9596,-0.9602,-0.96,-0.9597,-0.9665,-0.9698,-0.9698,-0.9698,-0.9698,-0.9698,-0.9703,-0.9727,-0.9773,-1.0679,-1.2024,-1.3799,-1.3838,-1.4283,0.0,0.0,0.0,0.0,0.0,0.0,0.0,-1.5237,-1.5255,-1.5281,-1.5277,-1.5298,-1.5337,-1.5309,-1.4786,-1.4037,0.0,0.0,0.0,0.0,0.0,0.0,0.0,0.0,0.0,0.0,0.0,0.0,0.0,0.0,0.0,0.0,0.0,0.0,0.0,0.0,0.0,0.0,0.0,0.0,0.0,0.0,0.0,0.0,0.0,0.0,0.0,0.0,0.0,-2.0464,-2.2004,-2.3047,-2.3077,-2.4574,-2.5274,-2.4423,-2.5157,-2.5699,-2.5699,-2.5699,-2.5699,-2.5699,-2.5699,-2.5699,-2.5699,-2.5697,-2.5701,-2.5701,-2.5696,-2.5702,-2.5702,-2.5702,-2.5699,-2.5697,-2.5697,-2.5697,-2.5697,-2.5697,-2.5697,-2.5697,-2.5697,-2.5704,-2.57,-2.5702,-2.5717,-2.574,-2.5741,-2.5742,-2.5742,-0.9421,-0.9466,-0.9501,-0.95,-0.95,-0.95,-0.95,-0.95,-0.9525,-0.9585,-0.9601,-0.9625,-0.9665,-0.9689,-0.9698,-0.9698,-0.9698,-0.9698,-0.9698,-0.9697,-1.0265,-1.1526,-1.2534,-1.3589,-1.4717,0.0,0.0,0.0,0.0,0.0,0.0,0.0,0.0,0.0,0.0,-1.6471,-1.7016,-1.7062,-1.6725,-1.6116,-1.5531,-1.5159,-1.4937,0.0,0.0,0.0,0.0,0.0,0.0,0.0,0.0,0.0,0.0,0.0,0.0,0.0,0.0,0.0,0.0,0.0,0.0,0.0,0.0,0.0,0.0,0.0,0.0,0.0,0.0,0.0,0.0,0.0,0.0,0.0,-2.0453,-2.2042,-2.2278,-2.3252,-2.4179,-2.481,-2.5311,-2.5507,-2.5274,-2.5479,-2.5653,-2.5699,-2.5699,-2.5699,-2.5699,-2.5699,-2.57,-2.57,-2.5696,-2.5695,-2.5696,-2.5699,-2.5702,-2.5702,-2.5702,-2.5699,-2.5697,-2.5697,-2.5697,-2.5697,-2.5697,-2.5697,-2.5697,-2.5697,-2.5697,-2.5703,-2.5702,-2.6093,-2.664,-2.664,-2.6641,-2.6553,-0.9403,-0.9457,-0.9501,-0.95,-0.95,-0.95,-0.95,-0.95,-0.9525,-0.9584,-0.9601,-0.9625,-0.9698,-0.9698,-0.9698,-0.9698,-0.9698,-0.9698,-0.9698,-1.0072,-1.091,-1.2322,0.0,-1.4227,0.0,0.0,0.0,0.0,0.0,0.0,0.0,0.0,0.0,0.0,0.0,-1.6946,-1.7693,-1.7763,-1.7515,-1.7006,-1.657,-1.5974,-1.5334,-1.5346,-1.4799,-1.409,-1.4458,-1.401,-1.3239,-1.324,0.0,0.0,0.0,0.0,0.0,0.0,0.0,0.0,0.0,0.0,0.0,0.0,0.0,0.0,0.0,0.0,0.0,0.0,0.0,0.0,0.0,0.0,0.0,0.0,-2.2317,-2.3634,-2.3993,-2.4482,-2.4985,-2.5505,-2.5564,-2.556,-2.5564,-2.5585,-2.5615,-2.5659,-2.5659,-2.5663,-2.5658,-2.5658,-2.5666,-2.5704,-2.5697,-2.5698,-2.5702,-2.5703,-2.5702,-2.5698,-2.5698,-2.5696,-2.5697,-2.5697,-2.5697,-2.5697,-2.5696,-2.5698,-2.5698,-2.5698,-2.5701,-2.5703,0.0,0.0,0.0,0.0,-2.6689,-2.6934,-0.9403,-0.9448,-0.9501,-0.95,-0.95,-0.95,-0.95,-0.95,-0.9525,-0.9584,-0.9601,-0.9625,-0.9698,-0.9698,-0.9698,-0.9698,-0.9698,-0.9743,-0.9841,-1.0651,0.0,-1.2607,-1.3389,-1.4249,0.0,0.0,0.0,0.0,0.0,0.0,0.0,0.0,0.0,0.0,0.0,-1.7234,-1.8008,-1.808,-1.8048,-1.7956,-1.8036,-1.7099,-1.5666,-1.5568,-1.5057,-1.4471,-1.5148,-1.4865,-1.4161,-1.4158,0.0,0.0,0.0,0.0,0.0,0.0,0.0,0.0,0.0,0.0,0.0,0.0,0.0,0.0,0.0,0.0,0.0,0.0,0.0,0.0,0.0,0.0,0.0,0.0,-2.3822,-2.4617,-2.5388,-2.5502,-2.5502,-2.5502,-2.5502,-2.5502,-2.5492,-2.5564,-2.5601,-2.5601,-2.5611,-2.5607,-2.5604,-2.561,0.0,0.0,0.0,-2.5703,-2.5703,-2.5696,-2.5697,-2.5699,-2.5699,-2.5699,-2.5699,-2.5697,-2.5697,-2.5699,-2.5702,-2.5703,-2.57,-2.57,-2.5701,-2.5703,-2.581,-2.585,-2.585,-2.585,-2.6338,-2.6992,-0.9403,-0.9457,-0.9492,-0.9501,-0.95,-0.95,-0.95,-0.95,-0.9525,-0.9584,-0.9601,-0.9625,-0.9698,-0.9698,-0.9698,-0.9698,-0.9698,-1.0002,0.0,0.0,-1.1948,-1.3485,0.0,0.0,0.0,0.0,0.0,0.0,0.0,0.0,0.0,0.0,0.0,0.0,0.0,-1.9074,-1.9881,-1.9949,-1.9575,-1.8942,-1.9003,-1.8384,-1.7346,-1.6639,-1.6259,-1.6052,-1.5575,-1.5281,-1.5134,-1.513,-1.513,-1.5091,-1.4868,0.0,0.0,0.0,0.0,0.0,0.0,0.0,0.0,0.0,0.0,0.0,0.0,0.0,0.0,0.0,0.0,0.0,0.0,0.0,0.0,-2.3876,-2.4718,-2.5308,-2.548,-2.5499,-2.5499,-2.5499,-2.5499,-2.5495,-2.5502,-2.5554,-2.5599,-2.5604,-2.5651,-2.5679,-2.5685,-2.5683,-2.5686,-2.5701,-2.5699,-2.5702,-2.5702,-2.5699,-2.5701,-2.5698,-2.5698,0.0,-2.5698,-2.5701,-2.5697,-2.5699,-2.5702,-2.5698,-2.5693,-2.5693,-2.5668,-2.5687,-2.6452,-2.6748,-2.6748,-2.6748,-2.6855,-2.6904,-0.9394,-0.9421,-0.9457,-0.9492,-0.95,-0.95,-0.95,-0.95,-0.9517,-0.9594,-0.9601,-0.9608,-0.9648,-0.9681,-0.9698,-0.9698,-0.9736,0.0,0.0,-1.1576,-1.2479,0.0,0.0,0.0,0.0,0.0,0.0,0.0,0.0,0.0,0.0,0.0,0.0,0.0,0.0,-1.9585,-2.0405,-2.0474,-2.0253,-1.9857,-1.9922,-1.9667,-1.9107,-1.7801,-1.7296,-1.7248,-1.6848,-1.6417,-1.6048,-1.6048,-1.576,-1.5387,-1.5357,-1.5027,-1.4743,0.0,0.0,0.0,0.0,0.0,0.0,0.0,0.0,0.0,0.0,0.0,0.0,0.0,0.0,-2.019,-2.1473,0.0,-2.3889,-2.4764,-2.5246,-2.5501,-2.5501,-2.553,-2.554,-2.5501,-2.553,-2.5538,-2.5503,-2.5558,-2.5599,-2.56,-2.563,-2.5657,-2.5702,-2.57,-2.5901,-2.6344,-2.6353,-2.6562,-2.6998,-2.7001,-2.6999,-2.7004,-2.7,-2.7001,-2.6992,-2.655,-2.6353,-2.6334,-2.5888,-2.5697,-2.5693,-2.5706,-2.5923,-2.6258,-2.6317,-2.6347,-2.6348,-2.6348,-2.6631,-2.6943,-0.9394,-0.9394,-0.9421,-0.9492,-0.95,-0.95,-0.95,-0.95,-0.9526,-0.9596,-0.9594,-0.96,-0.9597,-0.9648,-0.9681,0.0,0.0,0.0,0.0,0.0,0.0,0.0,0.0,0.0,0.0,0.0,0.0,0.0,0.0,0.0,0.0,0.0,0.0,0.0,0.0,-1.977,-2.0439,-2.0497,-2.0518,-2.0521,-2.0578,-2.0603,-2.0446,-1.9042,-1.8398,-1.8231,-1.8057,-1.7552,-1.6931,-1.6758,-1.6227,-1.5621,-1.5453,-1.488,-1.4408,-1.5105,-1.4806,0.0,0.0,0.0,0.0,0.0,0.0,0.0,0.0,-1.8767,-1.966,-1.9844,-2.112,-2.2624,-2.3971,-2.436,-2.4716,-2.5414,-2.553,-2.5521,-2.554,-2.5588,-2.5586,-2.5529,-2.5718,-2.5826,-2.5779,-2.5824,-2.5851,-2.5853,-2.5713,-2.5646,-2.5699,-2.5864,-2.6271,-2.6982,-2.7158,-2.7588,-2.8291,-2.8472,-2.8467,-2.8301,-2.8466,-2.8457,-2.8281,-2.7568,-2.7246,-2.7207,-2.6514,-2.6197,-2.6182,-2.6198,-2.6566,-2.7069,-2.6449,-2.6199,-2.615,-2.582,-2.6143,-2.6748,-0.9394,-0.9403,-0.9421,-0.9484,-0.95,-0.95,-0.95,-0.95,-0.9526,-0.9596,-0.9604,-0.9602,-0.9597,-0.9605,-0.9638,-0.9698,0.0,0.0,0.0,0.0,0.0,0.0,0.0,0.0,0.0,0.0,0.0,0.0,0.0,0.0,0.0,0.0,0.0,0.0,0.0,-2.0431,-2.0578,-2.059,-2.0591,-2.0591,-2.0603,-2.0603,-2.0583,-2.0378,-1.9832,-1.9051,-1.828,-1.7937,-1.7739,-1.6962,-1.664,-1.642,-1.5638,-1.5329,-1.5252,-1.5297,0.0,-1.5178,-1.527,-1.5371,-1.601,-1.8374,-1.8451,-1.8709,0.0,-2.183,-2.1649,-2.2481,-2.3378,-2.4072,-2.4247,-2.4917,-2.549,-2.5646,-2.5627,-2.5608,-2.5666,-2.5675,-2.566,-2.5595,-2.6282,-2.6747,-2.6743,-2.6748,-2.6752,-2.6747,-2.6094,-2.5692,-2.57,-2.6432,-2.6903,-2.7002,-2.7754,-2.8203,-2.8301,-2.9072,-2.9072,-2.831,-2.9082,-2.9053,-2.8301,-2.8203,-2.8154,-2.8154,-2.8047,-2.7978,-2.7922,-2.7983,-2.7987,-2.7968,-2.7998,-2.797,-2.7745,-2.6247,-2.5762,-2.5849,-0.9394,-0.9394,-0.9412,-0.9439,-0.9474,-0.95,-0.95,-0.95,-0.9508,-0.9543,-0.9578,-0.9603,-0.9599,-0.964,-0.9687,-0.9749,-1.0576,0.0,-1.2392,0.0,0.0,0.0,0.0,0.0,0.0,0.0,0.0,0.0,0.0,0.0,0.0,0.0,0.0,0.0,0.0,-2.0566,-2.0603,-2.0603,-2.0603,-2.0603,-2.0603,-2.0603,-2.0603,-2.0603,-2.0368,-2.0007,-1.9636,-1.9187,0.0,0.0,-1.7121,-1.6554,-1.5675,-1.5404,-1.539,-1.5368,-1.5693,0.0,-1.7287,-1.8309,-1.9342,-2.0414,-2.113,-2.1832,-2.2829,-2.3137,-2.3315,-2.3718,-2.4471,-2.506,-2.506,-2.5346,-2.5603,-2.5647,-2.6042,-2.6196,-2.5753,-2.6138,-2.6255,-2.5716,-2.6435,-2.6936,-2.6899,-2.6933,-2.6958,-2.6958,-2.7122,-2.6768,-2.5752,-2.7012,-2.7764,-2.7764,-2.8603,-2.9297,-2.9814,-3.0166,-3.0166,-2.9824,-3.0176,-3.0166,-2.9805,-2.9287,-2.8779,-2.83,-2.8264,-2.8512,-2.8916,-2.8436,-2.851,-2.8875,-2.8423,-2.8255,-2.8171,-2.7468,-2.7209,-2.7141,-0.9358,-0.9394,-0.9403,-0.9403,-0.9439,-0.9474,-0.95,-0.95,-0.95,-0.95,-0.9543,-0.9578,-0.9601,-0.9641,-0.9712,-0.9794,-1.0822,-1.1751,0.0,-1.359,0.0,0.0,0.0,0.0,0.0,0.0,0.0,0.0,0.0,0.0,0.0,0.0,0.0,0.0,-2.0603,-2.0603,-2.0603,-2.0603,-2.0603,-2.0622,-2.0856,-2.0808,-2.0632,-2.0866,-2.0808,-2.0603,-2.0603,-2.0193,0.0,0.0,-1.7744,-1.7178,-1.5831,-1.5557,-1.5762,-1.5764,-1.6502,-1.7699,-1.9439,-2.0842,-2.1906,-2.2366,-2.3407,-2.4225,-2.3891,-2.4248,-2.466,-2.4676,-2.5187,-2.5629,-2.5636,-2.5632,-2.5632,-2.5632,-2.6358,-2.6639,-2.5817,-2.6454,-2.668,-2.5801,-2.6264,-2.6807,-2.7244,-2.7335,-2.7461,-2.7695,-2.8076,-2.7754,-2.6484,-2.7842,-2.8662,-2.8662,-2.9502,-3.0381,-3.125,-3.1484,-3.1592,-3.1592,-3.1826,-3.1816,-3.1562,-3.0713,-2.9971,-2.9355,-2.9074,-2.9302,-2.9843,-2.9189,-2.9279,-2.9766,-2.916,-2.8942,-2.8973,-2.9,-2.8708,-2.8213,-0.9303,-0.9358,-0.9394,-0.9403,-0.9403,-0.943,-0.9482,-0.95,-0.95,-0.95,-0.9508,-0.9525,-0.9592,-0.9598,-0.9652,-0.9784,-1.1372,-1.2393,-1.249,-1.411,0.0,0.0,0.0,0.0,0.0,0.0,0.0,0.0,0.0,0.0,0.0,0.0,0.0,0.0,-2.0603,-2.0603,-2.0603,-2.0603,-2.0603,-2.0671,-2.152,-2.1354,-2.069,-2.154,-2.1344,-2.0603,-2.0603,0.0,0.0,0.0,-1.8543,-1.8768,-1.6212,-1.5978,0.0,-1.666,-1.7829,-1.9505,-2.1245,-2.1765,-2.2189,-2.3823,-2.4264,-2.4532,-2.5413,-2.5587,-2.5584,-2.5642,-2.5681,-2.5706,-2.5698,-2.5703,-2.5703,-2.5703,-2.6426,-2.6689,-2.582,-2.6455,-2.6679,-2.5801,-2.5723,-2.6396,-2.8086,-2.8262,-2.8613,-2.9463,-2.876,-2.8281,-2.8223,-2.9072,-2.956,-2.956,-3.041,-3.1279,-3.2148,-3.293,-3.332,-3.333,-3.418,-3.4141,-3.3301,-3.249,-3.2109,-3.2031,-3.1194,-3.0833,-3.0845,-3.0759,-3.0699,-3.0665,-3.0712,-3.0682,-3.064,-3.0774,-2.9745,-2.8298,-0.9293,-0.9321,-0.9348,-0.9394,-0.9394,-0.9403,-0.943,-0.9474,-0.95,-0.95,-0.9543,0.0,0.0,0.0,0.0,0.0,-1.0866,-1.1826,-1.2516,-1.3625,0.0,0.0,0.0,0.0,0.0,0.0,0.0,0.0,0.0,0.0,0.0,0.0,0.0,0.0,-2.0603,-2.0603,-2.0603,-2.0603,-2.0934,-2.1442,-2.1149,-2.1208,-2.1432,-2.1149,-2.0856,-2.0515,0.0,0.0,0.0,0.0,-1.7333,-1.7323,-1.5861,0.0,0.0,-1.8088,-1.9234,-2.0382,-2.1548,-2.2678,-2.3657,-2.4234,-2.48,-2.5305,-2.563,-2.5678,-2.5669,-2.5703,-2.5704,-2.5705,-2.5703,-2.5703,-2.5703,-2.5703,-2.6924,-2.7559,-2.6689,-2.7812,-2.8193,-2.6728,-2.6562,-2.6787,-2.7383,-2.7959,-2.8418,-2.8721,-2.9004,-2.8662,-2.75,-2.8809,-2.96,-2.96,-3.1006,-3.1904,-3.2197,-3.2998,-3.3398,-3.3398,-3.3701,-3.3682,-3.3369,-3.2516,-3.2452,-3.2918,-3.1464,-3.116,-3.1645,-3.0998,-3.0771,-3.083,-3.0809,-3.0788,-3.0767,-3.0816,-3.0457,-2.9882,-0.9262,-0.9293,-0.9312,-0.9358,-0.9385,0.0,0.0,0.0,0.0,0.0,0.0,0.0,0.0,0.0,0.0,0.0,0.0,-1.1418,-1.2091,-1.2905,0.0,0.0,0.0,0.0,0.0,0.0,0.0,0.0,0.0,0.0,0.0,0.0,0.0,0.0,0.0,-2.0579,-2.0604,-2.0569,-2.09,-2.1413,-2.1159,-2.1208,-2.1413,-2.1159,-2.0866,0.0,0.0,0.0,0.0,-1.7294,-1.7109,-1.7421,0.0,0.0,0.0,0.0,-2.0378,-2.1318,-2.2478,-2.3584,-2.4473,-2.4785,-2.5293,-2.5703,-2.5703,-2.5703,-2.5703,-2.5703,-2.5703,-2.5703,-2.5703,-2.5703,-2.5703,-2.5703,-2.7158,-2.7998,-2.7119,-2.8496,-2.9072,-2.7627,-2.7461,-2.7588,-2.79,-2.8437,-2.876,-2.876,-2.957,-2.958,-2.8447,-2.9746,-3.0527,-3.0527,-3.1894,-3.2783,-3.3086,-3.3613,-3.4023,-3.4326,-3.4335,-3.4333,-3.4304,-3.3428,-3.3334,-3.3768,-3.202,-3.1579,-3.2026,-3.1112,-3.079,-3.0862,-3.082,-3.08,-3.0802,-3.0804,-3.0801,-3.0733,-0.9197,-0.9252,-0.9303,0.0,0.0,0.0,0.0,0.0,0.0,0.0,0.0,0.0,0.0,0.0,0.0,0.0,0.0,0.0,-1.1285,0.0,0.0,0.0,-1.3865,-1.4362,-1.5336,-1.6135,-1.6991,0.0,0.0,0.0,0.0,0.0,0.0,0.0,0.0,-2.0545,-2.0604,-2.0526,-2.0574,-2.073,-2.152,-2.1364,-2.0749,-2.154,0.0,0.0,0.0,0.0,0.0,0.0,0.0,0.0,0.0,0.0,0.0,0.0,-2.1346,-2.2382,-2.3975,-2.4431,-2.4668,-2.5488,-2.5703,-2.5703,-2.5703,-2.5703,-2.5703,-2.5703,-2.5703,-2.5693,-2.5644,-2.5674,-2.5693,-2.5644,-2.7129,-2.8008,-2.7178,-2.8574,-2.9336,-2.8467,-2.8408,-2.874,-2.9521,-2.9678,-2.9726,-2.9726,-3.0459,-3.0918,-3.0957,-3.1748,-3.2217,-3.2256,-3.3047,-3.3857,-3.4687,-3.4736,-3.5176,-3.5996,-3.6005,-3.6003,-3.5974,-3.5097,-3.4716,-3.4666,-3.2919,-3.2168,-3.2102,-3.1229,-3.084,-3.0801,-3.0801,-3.0801,-3.08,-3.0798,-3.0801,-3.0801,0.0,0.0,0.0,0.0,0.0,0.0,0.0,0.0,0.0,0.0,0.0,0.0,0.0,0.0,0.0,0.0,0.0,0.0,-1.125,0.0,0.0,0.0,0.0,0.0,-1.6155,-1.5821,0.0,0.0,0.0,0.0,0.0,0.0,0.0,0.0,0.0,-2.0585,-2.0604,-2.0578,-2.0957,-2.153,0.0,-2.1188,-2.152,0.0,0.0,0.0,0.0,0.0,0.0,0.0,0.0,0.0,0.0,-2.0359,-2.1401,0.0,0.0,-2.3861,-2.4279,-2.487,-2.542,-2.5644,-2.5703,-2.5703,-2.5703,-2.5703,-2.5703,-2.5703,-2.5703,-2.5498,-2.4853,-2.5264,-2.5488,-2.4844,-2.6738,-2.8223,-2.7998,-2.9473,-3.0254,-2.9365,-2.9844,-3.0068,-2.9639,-3.0771,-3.1543,-3.1543,-3.1143,-3.1182,-3.1826,-3.208,-3.2471,-3.3076,-3.3916,-3.4482,-3.4697,-3.5336,-3.5779,-3.6003,-3.5995,-3.6003,-3.5974,-3.5098,-3.505,-3.5574,-3.3827,-3.3075,-3.2997,-3.2126,-3.1386,-3.08,-3.08,-3.08,-3.0798,-3.0804,-3.0801,-3.0801,0.0,0.0,0.0,0.0,0.0,0.0,0.0,0.0,0.0,0.0,0.0,0.0,0.0,0.0,0.0,0.0,0.0,0.0,0.0,0.0,0.0,0.0,0.0,0.0,0.0,0.0,0.0,0.0,0.0,0.0,0.0,0.0,0.0,0.0,0.0,0.0,-1.8892,0.0,0.0,0.0,0.0,0.0,0.0,0.0,0.0,0.0,0.0,0.0,0.0,0.0,0.0,-2.0076,-2.1305,-2.2028,-2.2594,-2.3433,0.0,-2.448,-2.487,-2.5331,-2.5703,-2.5703,-2.5703,-2.5596,-2.5225,-2.5127,-2.5029,-2.4678,-2.458,-2.4414,-2.3916,-2.4541,-2.4971,-2.4482,-2.6269,-2.7861,-2.8252,-2.9473,-3.0293,-3.0176,-3.0596,-3.0853,-3.0711,-3.1608,-3.249,-3.3203,-3.2471,-3.2207,-3.2695,-3.3086,-3.3496,-3.3965,-3.4824,-3.5273,-3.5273,-3.5761,-3.6001,-3.6001,-3.6001,-3.6001,-3.5981,-3.5486,-3.5545,-3.5903,-3.4159,-3.3398,-3.33,-3.2051,-3.1241,-3.0801,-3.0801,-3.0801,-3.0801,-3.0801,-3.0801,-3.0801,0.0,0.0,0.0,0.0,0.0,0.0,0.0,0.0,0.0,-0.95,-0.95,-0.955,0.0,0.0,0.0,0.0,0.0,0.0,0.0,0.0,0.0,0.0,0.0,0.0,0.0,0.0,0.0,0.0,0.0,0.0,0.0,0.0,0.0,0.0,0.0,0.0,0.0,0.0,0.0,0.0,0.0,0.0,0.0,0.0,0.0,0.0,0.0,0.0,0.0,0.0,-2.1627,-2.1364,-2.2808,-2.3345,-2.3589,-2.4352,-2.4572,-2.4743,-2.5488,-2.5703,-2.5703,-2.5703,-2.5703,-2.5469,-2.46,-2.4404,-2.417,-2.335,-2.3154,-2.3076,-2.2959,-2.374,-2.4355,-2.4248,-2.5791,-2.7304,-2.8169,-2.9037,-2.9907,-3.077,-3.0975,-3.1315,-3.2019,-3.2348,-3.31,-3.45,-3.4072,-3.375,-3.375,-3.4463,-3.4873,-3.4873,-3.5605,-3.5996,-3.5996,-3.6003,-3.6001,-3.6001,-3.6001,-3.6001,-3.6001,-3.6001,-3.5942,-3.574,-3.4227,-3.3437,-3.3115,-3.1602,-3.0899,-3.0801,-3.0801,-3.0801,-3.0801,-3.0801,-3.0801,-3.0801,0.0,0.0,0.0,0.0,0.0,0.0,0.0,0.0,0.0,0.0,0.0,0.0,0.0,0.0,0.0,0.0,0.0,0.0,0.0,0.0,0.0,0.0,0.0,0.0,0.0,0.0,0.0,0.0,0.0,0.0,0.0,0.0,0.0,0.0,0.0,0.0,0.0,0.0,0.0,0.0,0.0,0.0,0.0,0.0,0.0,0.0,0.0,0.0,0.0,0.0,-2.3267,-2.3792,-2.4075,-2.4672,-2.5278,-2.5434,-2.5475,-2.5509,-2.5663,-2.5703,-2.5703,-2.5703,-2.5703,-2.5469,-2.46,-2.4404,0.0,-2.3291,-2.3154,-2.2959,-2.2236,-2.3359,-2.416,-2.3437,-2.5391,-2.7282,-2.8099,-2.8972,-2.9816,-3.0636,-3.1369,-3.1864,-3.2001,-3.3332,-3.4301,-3.4579,-3.5187,-3.5547,-3.5547,-3.5693,-3.5771,-3.5771,-3.5921,-3.5999,-3.5999,-3.6003,-3.6001,-3.6001,-3.6001,-3.6001,-3.6001,-3.6001,-3.5613,-3.491,-3.4608,-3.3661,-3.2295,-3.2002,-3.1446,-3.0801,-3.0801,-3.0801,-3.0801,-3.0801,-3.0801,-3.0801,0.0,0.0,0.0,0.0,0.0,0.0,0.0,0.0,0.0,0.0,0.0,0.0,0.0,0.0,0.0,0.0,0.0,0.0,0.0,0.0,0.0,0.0,0.0,0.0,0.0,0.0,-1.4639,0.0,0.0,0.0,0.0,0.0,0.0,0.0,0.0,0.0,0.0,0.0,0.0,0.0,0.0,0.0,0.0,0.0,0.0,0.0,0.0,0.0,0.0,0.0,-2.3033,-2.3882,-2.479,-2.5356,-2.5697,-2.5697,-2.5375,-2.5115,-2.5584,-2.5369,-2.5135,-2.5585,-2.5361,-2.4805,-2.3916,0.0,0.0,-2.1982,-2.1816,-2.1719,-2.1299,-2.2246,-2.3105,-2.3154,-2.4557,-2.6087,-2.7355,-2.8269,-2.9117,-2.9931,-3.0787,-3.1494,-3.1904,-3.3141,-3.41,-3.4517,-3.5395,-3.5912,-3.5947,-3.5984,-3.5999,-3.5999,-3.5995,-3.6,-3.5996,-3.5995,-3.6001,-3.6004,-3.6001,-3.6001,-3.5981,-3.5535,-3.5096,-3.4647,-3.3739,-3.2871,-3.206,-3.1612,-3.1182,-3.0801,-3.0801,-3.0801,-3.0801,-3.0801,-3.0801,-3.0801,0.0,0.0,0.0,0.0,0.0,0.0,0.0,0.0,0.0,0.0,0.0,0.0,0.0,0.0,0.0,0.0,0.0,0.0,0.0,0.0,0.0,0.0,0.0,0.0,0.0,0.0,0.0,-1.528,0.0,0.0,0.0,0.0,0.0,0.0,-1.54,0.0,0.0,0.0,0.0,0.0,0.0,0.0,0.0,0.0,0.0,0.0,0.0,0.0,0.0,0.0,-2.2297,-2.309,-2.4652,-2.5273,-2.5424,-2.5424,-2.5073,-2.4832,-2.5506,-2.5203,-2.4839,-2.551,-2.5026,-2.417,-2.3301,-2.248,0.0,-2.0781,-2.0596,-2.0596,-2.0596,-2.1309,-2.2178,0.0,-2.3871,-2.4985,-2.6664,-2.764,-2.8473,-2.9284,-3.0144,-3.0994,-3.1806,-3.2735,-3.3529,-3.4148,-3.502,-3.563,-3.5894,-3.5946,-3.5891,-3.5714,-3.5702,-3.5613,-3.5422,-3.542,-3.5418,-3.5416,-3.5435,-3.5437,-3.54,-3.473,-3.432,-3.4074,-3.2694,-3.1993,-3.1771,-3.1083,-3.0798,-3.0798,-3.0804,-3.0801,-3.0801,-3.0801,-3.0801,-3.0801,0.0,0.0,0.0,0.0,0.0,0.0,0.0,0.0,0.0,0.0,0.0,0.0,0.0,0.0,0.0,0.0,0.0,0.0,0.0,0.0,0.0,0.0,0.0,0.0,0.0,0.0,0.0,-1.5207,-1.5281,0.0,0.0,0.0,0.0,0.0,0.0,-1.5365,-1.5225,0.0,0.0,0.0,0.0,0.0,0.0,0.0,0.0,0.0,0.0,0.0,0.0,0.0,0.0,-2.2093,-2.3041,-2.3876,-2.4524,-2.4524,0.0,0.0,-2.5683,-2.5642,-2.5595,-2.5602,-2.4995,-2.417,-2.3301,0.0,-2.165,-2.0781,-2.0596,-2.0596,-2.0596,-2.1309,-2.2168,-2.2978,0.0,-2.4986,-2.6665,-2.7599,-2.8412,-2.9205,-3.0075,-3.0926,-3.1729,-3.2658,-3.3209,-3.3229,-3.4091,-3.4994,-3.5853,-3.5909,-3.5552,-3.4746,-3.4729,-3.4355,-3.3561,-3.3546,-3.3555,-3.3551,-3.3613,-3.3613,-3.3547,-3.353,-3.3093,-3.2334,-3.2168,-3.1649,-3.0905,-3.0829,-3.08,-3.08,-3.08,-3.0801,-3.0801,-3.0801,-3.0801,-3.0801,0.0,0.0,0.0,0.0,0.0,0.0,0.0,0.0,0.0,0.0,0.0,0.0,0.0,0.0,0.0,0.0,0.0,0.0,0.0,0.0,0.0,0.0,0.0,0.0,0.0,0.0,0.0,-1.5203,-1.5266,0.0,0.0,0.0,0.0,0.0,0.0,-1.54,-1.5382,0.0,0.0,0.0,0.0,0.0,0.0,0.0,0.0,0.0,0.0,0.0,-1.8701,0.0,0.0,0.0,-2.126,-2.2125,0.0,0.0,-2.4269,-2.4355,-2.541,-2.5287,-2.4988,-2.5531,-2.4601,-2.3485,-2.3172,-2.2041,-2.0967,-2.0664,-2.0596,-2.0596,-2.0596,-2.0879,-2.1572,-2.2939,-2.3418,-2.4202,-2.5878,-2.6808,-2.7626,-2.8421,-2.9292,-3.0152,-3.0994,-3.1883,-3.2628,-3.3122,-3.3509,-3.3883,-3.4247,-3.4808,-3.4966,-3.4612,-3.4092,-3.3646,-3.3301,-3.3304,-3.3297,-3.3294,-3.3326,-3.3332,-3.3278,-3.283,-3.2429,-3.2075,-3.1553,-3.1122,-3.0801,-3.08,-3.0803,-3.0795,-3.08,-3.0797,-3.0797,-3.0796,-3.0801,-3.0801,0.0,0.0,0.0,0.0,0.0,0.0,0.0,0.0,0.0,0.0,0.0,0.0,0.0,0.0,0.0,0.0,0.0,0.0,0.0,0.0,0.0,0.0,0.0,0.0,0.0,0.0,0.0,-1.5168,-1.5245,-1.5268,0.0,0.0,-1.5384,-1.5397,0.0,0.0,0.0,0.0,0.0,0.0,0.0,0.0,0.0,0.0,0.0,0.0,0.0,0.0,0.0,0.0,0.0,0.0,0.0,0.0,0.0,0.0,-2.3758,-2.3814,-2.5303,-2.5199,-2.4837,-2.5508,-2.4338,-2.3042,-2.3093,-2.1773,-2.0537,-2.0586,-2.0596,-2.0596,-2.0596,-2.0596,-2.1094,-2.2568,-2.2978,-2.3601,-2.5042,-2.6157,-2.7026,-2.7579,-2.8412,-2.9378,-3.0489,-3.1388,-3.2268,-3.3157,-3.2992,-3.2962,-3.3221,-3.3608,-3.3824,-3.3824,-3.3243,-3.2795,-3.2532,-3.2531,-3.2531,-3.2532,-3.2533,-3.2524,-3.2508,-3.196,-3.1704,-3.1646,-3.1038,-3.0772,-3.0774,-3.0775,-3.0768,-3.0771,-3.0795,-3.0799,-3.08,-3.0797,-3.08,-3.08,0.0,0.0,0.0,0.0,0.0,0.0,0.0,0.0,0.0,0.0,0.0,0.0,0.0,0.0,0.0,0.0,0.0,0.0,0.0,0.0,0.0,0.0,0.0,0.0,0.0,0.0,0.0,0.0,0.0,-1.5201,-1.5197,-1.5274,-1.5338,-1.5396,0.0,0.0,0.0,0.0,0.0,0.0,0.0,0.0,0.0,0.0,0.0,0.0,0.0,0.0,0.0,0.0,0.0,0.0,0.0,-1.9219,-1.9741,0.0,-2.372,-2.458,-2.5459,-2.5644,-2.5593,-2.5598,-2.4341,-2.3101,-2.3101,-2.1802,-2.0596,-2.0596,-2.0596,-2.0596,-2.0596,-2.0596,-2.0889,-2.1768,-2.2578,-2.3408,-2.4287,-2.5853,-2.6879,-2.6821,-2.758,-2.877,-3.044,-3.1385,-3.2291,-3.3235,-3.2506,-3.239,-3.3254,-3.2487,-3.2031,-3.2031,-3.2021,-3.1603,-3.0746,-3.0736,-3.0736,-3.0736,-3.073,-3.0724,-3.0726,-3.079,-3.0782,-3.0707,-3.07,-3.0705,-3.0697,-3.07,-3.0701,-3.0706,-3.0771,-3.0801,-3.0804,-3.08,-3.0801,-3.08,0.0,0.0,0.0,0.0,0.0,0.0,0.0,0.0,0.0,0.0,0.0,0.0,0.0,0.0,0.0,0.0,0.0,0.0,0.0,0.0,0.0,0.0,0.0,0.0,0.0,0.0,0.0,0.0,0.0,0.0,-1.4386,-1.5014,-1.4986,-1.4467,-1.5067,-1.5326,0.0,0.0,0.0,0.0,0.0,0.0,-1.5309,0.0,0.0,0.0,0.0,0.0,0.0,0.0,0.0,0.0,0.0,0.0,0.0,-1.9743,-2.1511,-2.281,-2.3693,-2.3914,-2.3894,-2.3885,-2.3042,-2.2213,-2.2214,-2.1342,-2.054,-2.0594,-2.0596,-2.0596,-2.0596,-2.0596,-2.1084,-2.2549,-2.2959,-2.3611,-2.5083,-2.571,-2.6436,-2.7544,-2.8941,-3.0041,-3.0608,-3.0921,-3.1198,-3.1496,-3.1273,-3.1224,-3.1506,-3.1263,-3.138,-3.1975,-3.1419,-3.0982,-3.07,-3.07,-3.07,-3.07,-3.0708,-3.0701,-3.0707,-3.0716,-3.0726,-3.0707,-3.0698,-3.0701,-3.0707,-3.0698,-3.0699,-3.0706,-3.072,-3.0762,-3.0804,-3.08,-3.0801,-3.08,0.0,0.0,0.0,0.0,0.0,0.0,0.0,0.0,0.0,0.0,0.0,0.0,0.0,0.0,0.0,0.0,0.0,0.0,0.0,0.0,0.0,0.0,0.0,0.0,0.0,0.0,0.0,0.0,0.0,0.0,0.0,0.0,0.0,-1.4021,-1.4574,0.0,0.0,0.0,0.0,0.0,0.0,0.0,-1.4398,0.0,0.0,0.0,0.0,0.0,0.0,0.0,0.0,0.0,0.0,0.0,0.0,0.0,-1.8568,-1.9925,-2.2425,-2.3103,-2.31,-2.3101,-2.2457,-2.1841,-2.1842,-2.1159,-2.0546,-2.0595,-2.0596,-2.0596,-2.0596,-2.0596,-2.1064,-2.248,-2.293,-2.3588,-2.5015,-2.5459,-2.614,-2.7488,-2.9128,-3.0161,-3.0205,-3.0508,-3.07,-3.07,-3.07,-3.07,-3.07,-3.07,-3.0952,-3.1487,-3.0982,-3.07,-3.07,-3.07,-3.07,-3.07,-3.07,-3.07,-3.07,-3.07,-3.07,-3.07,-3.07,-3.07,0.0,-3.07,-3.0698,-3.0705,-3.0705,-3.0726,-3.0768,-3.0785,-3.08,-3.08,0.0,0.0,0.0,0.0,0.0,0.0,0.0,0.0,0.0,0.0,0.0,0.0,0.0,0.0,0.0,0.0,0.0,0.0,0.0,0.0,0.0,0.0,0.0,0.0,0.0,0.0,0.0,-1.3815,-1.4738,-1.4762,-1.3911,0.0,0.0,0.0,-1.4056,0.0,0.0,0.0,0.0,0.0,-1.4668,-1.436,0.0,0.0,0.0,0.0,0.0,0.0,0.0,0.0,0.0,0.0,0.0,0.0,0.0,0.0,0.0,0.0,0.0,-2.2644,-2.2666,-2.2801,-2.2274,-2.1731,-2.179,-2.1178,0.0,-2.0596,-2.0596,-2.0615,-2.0684,-2.0693,-2.0996,-2.1934,-2.2695,-2.3499,-2.437,-2.5292,-2.6151,-2.6906,-2.8475,-2.9492,-2.9484,-3.0217,-3.07,-3.07,-3.07,-3.07,-3.07,-3.07,-3.07,-3.07,-3.07,-3.07,-3.07,-3.07,-3.07,-3.07,-3.07,-3.07,-3.07,-3.07,-3.07,-3.07,-3.07,-3.07,-3.07,-3.07,-3.0697,-3.0714,-3.0704,-3.0703,-3.0706,-3.078,-3.0797,-3.0791,0.0,0.0,0.0,0.0,0.0,0.0,0.0,0.0,0.0,0.0,0.0,0.0,0.0,0.0,0.0,0.0,0.0,0.0,0.0,0.0,0.0,0.0,0.0,0.0,0.0,0.0,0.0,-1.2979,-1.4471,-1.4785,-1.3995,-1.4607,0.0,0.0,0.0,0.0,0.0,0.0,0.0,0.0,-1.5123,-1.5028,0.0,0.0,0.0,0.0,-1.5151,-1.4797,0.0,0.0,0.0,0.0,0.0,0.0,0.0,0.0,-1.493,-1.4957,-1.7513,0.0,-1.8518,-1.9859,-2.0049,-2.0087,0.0,-2.0752,-2.0596,-2.0596,0.0,-2.0801,-2.1475,-2.1592,-2.208,-2.3574,-2.3975,-2.4404,-2.5272,-2.6665,-2.766,-2.7794,-2.9341,-3.0389,-3.0389,-3.0583,-3.07,-3.07,-3.07,-3.07,-3.07,-3.07,-3.07,-3.07,-3.07,-3.07,-3.07,-3.07,-3.07,-3.07,-3.07,-3.07,-3.07,-3.07,-3.07,-3.07,-3.07,-3.07,-3.07,-3.07,-3.0732,-3.0764,-3.0716,-3.0734,-3.0781,-3.0786,-3.0805,-3.0701,0.0,0.0,0.0,0.0,0.0,0.0,0.0,0.0,0.0,0.0,0.0,0.0,0.0,0.0,0.0,0.0,0.0,0.0,0.0,0.0,0.0,0.0,0.0,0.0,0.0,0.0,0.0,0.0,0.0,-1.4579,0.0,0.0,0.0,0.0,0.0,0.0,0.0,0.0,0.0,0.0,-1.496,0.0,0.0,0.0,0.0,0.0,-1.534,-1.5049,0.0,-1.4689,-1.3801,-1.2783,0.0,0.0,0.0,0.0,-1.3924,-1.3759,-1.4701,-1.6094,-1.7521,-1.8474,-1.9295,-2.0019,-2.0488,0.0,0.0,0.0,0.0,-2.0869,-2.1738,-2.1904,-2.2451,-2.4131,-2.4404,-2.4697,-2.5575,-2.6803,-2.774,-2.81,-2.9303,-3.0257,-3.0658,-3.07,-3.07,-3.07,-3.07,-3.0525,-3.0117,-3.0098,-2.9923,-2.9525,-2.9515,-2.9894,-3.069,-3.07,-3.07,-3.07,-3.07,-3.07,-3.07,-3.07,-3.07,-3.07,-3.07,-3.07,-3.07,-3.07,-3.0716,-3.0711,-3.0273,-3.0141,-3.0156,-2.9749,-2.9628,-2.9587,0.0,0.0,0.0,0.0,0.0,0.0,0.0,0.0,0.0,0.0,0.0,0.0,0.0,0.0,0.0,0.0,0.0,0.0,0.0,0.0,0.0,0.0,0.0,0.0,0.0,0.0,0.0,0.0,0.0,0.0,0.0,0.0,-1.2972,0.0,0.0,0.0,0.0,0.0,0.0,-1.3232,-1.471,0.0,0.0,0.0,0.0,0.0,0.0,0.0,0.0,-1.5318,-1.4811,-1.4112,-1.4244,0.0,0.0,0.0,0.0,0.0,-1.3252,-1.5488,-1.7798,-1.7805,-1.9112,-2.0439,-2.0566,0.0,0.0,0.0,0.0,0.0,0.0,-2.2076,-2.2642,-2.432,-2.4599,-2.4863,-2.5595,-2.6403,-2.719,-2.7911,-2.8724,-2.9499,-3.0224,-3.0302,-3.0302,-3.0302,-3.0302,-2.9981,-2.9243,-2.9204,-2.8864,-2.812,-2.81,-2.8806,-3.0299,-3.0309,-3.037,-3.0496,-3.0496,-3.0503,-3.0503,-3.0639,-3.0629,-3.0526,-3.051,-3.051,-3.0516,-3.0364,-3.0315,-3.0238,-2.9513,-2.9257,-2.9226,-2.8475,-2.8239,-2.8278,0.0,0.0,0.0,0.0,0.0,0.0,0.0,0.0,0.0,0.0,0.0,0.0,0.0,0.0,0.0,0.0,0.0,0.0,0.0,0.0,0.0,0.0,0.0,0.0,0.0,0.0,0.0,0.0,0.0,0.0,-1.3797,-1.3797,-1.4192,0.0,0.0,0.0,0.0,0.0,0.0,-1.4922,-1.5188,0.0,0.0,0.0,0.0,0.0,0.0,0.0,0.0,-1.5062,-1.4743,-1.4138,-1.4879,0.0,0.0,0.0,0.0,0.0,-1.4824,-1.5937,-1.6904,-1.69,-1.8211,-1.9687,-2.043,0.0,0.0,0.0,0.0,0.0,0.0,-2.2921,-2.3474,-2.5215,-2.55,-2.5553,-2.5683,-2.6435,-2.7006,-2.7091,-2.7858,-2.8408,-2.8486,-2.8498,-2.8498,-2.8498,-2.8498,-2.844,-2.8304,-2.8295,-2.8236,-2.81,-2.81,-2.8265,-2.8581,-2.8528,-2.8874,-2.9602,-2.9602,-2.9596,-2.9621,-3.0354,-3.0335,-2.9679,-2.9613,-2.9629,-2.963,-2.8885,-2.8578,-2.8567,-2.8442,-2.8428,-2.8455,-2.8271,-2.824,-2.8193,0.0,0.0,0.0,0.0,0.0,0.0,0.0,0.0,0.0,0.0,0.0,0.0,0.0,0.0,0.0,0.0,0.0,0.0,0.0,0.0,0.0,0.0,0.0,0.0,0.0,0.0,0.0,0.0,0.0,-1.268,-1.2661,-1.309,-1.3761,-1.4603,0.0,0.0,0.0,0.0,-1.5298,-1.5298,0.0,0.0,0.0,0.0,0.0,0.0,0.0,0.0,0.0,0.0,-1.4333,-1.4149,-1.5034,0.0,0.0,0.0,0.0,0.0,-1.4141,-1.5664,-1.7178,-1.623,-1.8018,-2.0107,-2.0505,0.0,0.0,0.0,0.0,0.0,0.0,-2.3802,-2.4225,-2.5488,-2.5703,-2.5702,-2.5697,-2.6006,-2.6405,-2.6851,-2.7253,-2.7657,-2.8058,-2.81,-2.81,-2.81,-2.81,-2.7906,-2.7476,-2.7446,-2.7239,-2.6761,-2.6751,-2.6758,-2.6792,-2.6758,-2.7424,-2.8752,-2.8752,-2.8753,-2.8773,-2.9166,-2.9148,-2.8797,-2.8759,-2.8773,-2.8768,-2.8365,-2.82,-2.8153,-2.7681,-2.7539,-2.7545,-2.7028,-2.6874,-2.684,0.0,0.0,0.0,0.0,0.0,0.0,0.0,0.0,0.0,0.0,0.0,0.0,0.0,0.0,0.0,0.0,0.0,0.0,0.0,0.0,0.0,0.0,0.0,0.0,0.0,0.0,-1.1217,-1.142,-1.1891,-1.1904,-1.1511,-1.2134,-1.2976,0.0,0.0,0.0,0.0,0.0,-1.5301,-1.5299,0.0,0.0,0.0,0.0,0.0,0.0,0.0,0.0,0.0,0.0,0.0,0.0,0.0,0.0,0.0,-1.5378,-1.5391,-1.5149,-1.4001,-1.58,-1.7676,-1.6338,-1.832,-2.0654,-2.0864,-2.1424,0.0,0.0,0.0,0.0,0.0,-2.4547,-2.49,-2.5575,-2.5677,-2.5675,-2.5704,-2.5661,-2.5869,-2.652,-2.6602,-2.6843,-2.7456,-2.7508,-2.7508,-2.7508,-2.7508,-2.7252,-2.6631,-2.6604,-2.6285,-2.562,-2.5605,-2.5609,-2.5619,-2.5619,-2.6395,-2.7902,-2.7902,-2.7896,-2.793,-2.8111,-2.8101,-2.7919,-2.7924,-2.792,-2.7896,-2.7701,-2.7608,-2.7549,-2.6885,-2.6646,-2.6605,-2.5944,-2.57,-2.5701,0.0,0.0,0.0,0.0,0.0,0.0,0.0,0.0,0.0,0.0,0.0,0.0,0.0,0.0,0.0,0.0,0.0,0.0,0.0,0.0,0.0,0.0,0.0,0.0,0.0,-0.9816,-1.068,-1.1489,-1.0747,-1.0757,-1.1502,-1.1564,-1.2452,-1.4006,0.0,0.0,0.0,0.0,-1.5303,-1.5297,-1.5303,0.0,0.0,0.0,0.0,0.0,0.0,0.0,0.0,0.0,0.0,0.0,0.0,0.0,-1.5308,-1.5313,-1.535,-1.554,-1.6157,-1.715,-1.7969,-1.7842,-1.9219,-2.081,-2.1621,-2.1852,0.0,-2.2857,0.0,-2.3374,-2.4241,-2.5005,-2.5532,-2.56,-2.5612,-2.5635,-2.5693,-2.5703,-2.5691,-2.5687,-2.5688,-2.5717,-2.5772,-2.5786,-2.5786,-2.5786,-2.5786,-2.5747,-2.5698,-2.5687,-2.5654,-2.56,-2.5599,-2.5629,-2.5687,-2.5687,-2.6126,-2.6995,-2.6995,-2.7032,-2.7114,-2.7862,-2.779,-2.7091,-2.7095,-2.7086,-2.7019,-2.6209,-2.5879,-2.5867,-2.5808,-2.5792,-2.5793,-2.572,-2.5699,-2.5703,0.0,0.0,0.0,0.0,0.0,0.0,0.0,0.0,0.0,0.0,0.0,0.0,0.0,0.0,0.0,0.0,0.0,0.0,0.0,0.0,0.0,0.0,0.0,-0.801,-0.888,-0.9752,-1.036,-1.0694,-1.0355,-1.092,-1.2313,-1.2309,0.0,0.0,0.0,0.0,0.0,0.0,0.0,-1.4597,-1.5101,-1.478,0.0,0.0,0.0,0.0,0.0,0.0,0.0,0.0,-1.2166,-1.2533,-1.3032,-1.379,-1.4487,-1.4487,-1.4917,-1.5355,-1.5111,-1.649,-1.7867,-1.7332,-1.8906,0.0,0.0,-2.1901,-2.2894,-2.3732,-2.4342,-2.4823,-2.5149,-2.5463,-2.5652,-2.5605,-2.56,-2.5608,-2.5629,-2.5639,-2.5625,-2.5603,-2.5595,-2.5594,-2.5601,-2.5601,-2.5601,-2.5601,-2.5601,-2.5601,-2.5601,-2.56,-2.5595,-2.5599,-2.5642,-2.5668,-2.5701,-2.5701,-2.5854,-2.6151,-2.6151,-2.6174,-2.6196,-2.6512,-2.6476,-2.6185,-2.6191,-2.6188,-2.6171,-2.5836,-2.5697,-2.57,-2.57,-2.5694,-2.5704,-2.5703,-2.5703,-2.5697,0.0,0.0,0.0,0.0,0.0,0.0,0.0,0.0,0.0,0.0,0.0,0.0,0.0,0.0,0.0,0.0,0.0,0.0,0.0,0.0,0.0,0.0,0.0,-0.7716,-0.8845,-0.9478,-0.9912,-1.0169,-1.019,-1.0812,-1.1987,0.0,0.0,0.0,0.0,0.0,0.0,0.0,0.0,0.0,-1.4701,-1.4564,0.0,0.0,0.0,0.0,0.0,0.0,0.0,0.0,-1.127,-1.1599,-1.2146,-1.2897,-1.3641,-1.3921,-1.4467,-1.4906,-1.4568,-1.6198,-1.7786,-1.6923,0.0,0.0,-2.101,-2.2093,-2.3431,-2.4572,-2.5269,-2.5674,-2.5704,-2.5679,-2.5652,-2.561,-2.5595,-2.5598,-2.5598,-2.5597,-2.5597,-2.5601,-2.56,-2.5604,-2.5601,-2.5601,-2.5601,-2.5601,-2.5601,-2.5601,-2.5601,-2.56,-2.5595,-2.5601,-2.5665,-2.5701,-2.5697,-2.5697,-2.5697,-2.5697,-2.5697,-2.5697,-2.5697,-2.5697,-2.5697,-2.5697,-2.57,-2.5703,-2.5699,-2.5697,-2.5694,-2.5699,-2.5699,-2.5699,-2.5699,-2.5699,-2.5703,-2.5697,0.0,0.0,0.0,0.0,0.0,0.0,0.0,0.0,0.0,0.0,0.0,0.0,0.0,0.0,0.0,0.0,0.0,0.0,0.0,0.0,0.0,0.0,0.0,-0.7093,-0.8751,-0.887,-0.9307,-1.0094,-1.017,-1.0201,-1.0234,-1.1106,0.0,0.0,0.0,0.0,0.0,0.0,0.0,0.0,-1.4077,-1.4088,-1.3992,0.0,0.0,0.0,0.0,0.0,0.0,0.0,-1.0767,-1.1492,-1.1492,0.0,-1.2868,-1.3728,-1.4043,-1.428,-1.5081,-1.6617,-1.7782,0.0,0.0,0.0,-2.1909,-2.2533,-2.3597,-2.5336,-2.5654,-2.5624,-2.5693,-2.5644,-2.5601,-2.5601,-2.5602,-2.5601,-2.5596,-2.5602,-2.5601,-2.5596,-2.5601,-2.56,-2.5597,-2.5601,-2.5601,-2.5601,-2.5601,-2.5601,-2.5601,-2.5595,-2.5601,-2.5601,-2.5673,-2.5697,-2.5697,-2.5697,-2.5697,-2.5697,-2.5697,-2.5697,-2.5697,-2.5697,-2.5697,-2.5699,-2.57,-2.5703,-2.5699,-2.5697,-2.5694,-2.5699,-2.5699,-2.5699,-2.5699,-2.5699,-2.5699,-2.5699,0.0,0.0,0.0,0.0,0.0,0.0,0.0,0.0,0.0,0.0,0.0,0.0,0.0,0.0,0.0,0.0,0.0,0.0,0.0,0.0,0.0,0.0,0.0,0.0,0.0,0.0,-0.9883,-1.017,-1.0237,-1.0557,0.0,0.0,0.0,-1.154,0.0,0.0,0.0,0.0,0.0,0.0,-1.2943,-1.3188,-1.3085,0.0,0.0,0.0,0.0,0.0,0.0,0.0,0.0,0.0,-1.0592,0.0,-1.2752,-1.3013,-1.3569,-1.4293,-1.5138,-1.6212,0.0,-1.7529,0.0,0.0,0.0,-2.3404,0.0,-2.5467,-2.5684,-2.566,-2.563,-2.5606,-2.5599,-2.5605,-2.56,-2.5596,-2.56,-2.56,-2.5596,-2.56,-2.56,-2.5599,-2.5601,-2.5601,-2.5601,-2.5601,-2.5604,-2.5595,-2.5595,-2.564,-2.5671,-2.5671,-2.5691,-2.5697,-2.5697,-2.5697,-2.5697,-2.5697,-2.5697,-2.5697,-2.5697,-2.5697,-2.5702,-2.57,-2.5703,-2.5698,-2.5695,-2.5704,-2.5697,-2.5699,-2.5699,-2.5699,-2.5699,-2.5699,-2.5699,-2.5699,0.0,0.0,0.0,0.0,0.0,0.0,0.0,0.0,0.0,0.0,0.0,0.0,0.0,0.0,0.0,0.0,0.0,0.0,0.0,0.0,0.0,0.0,0.0,0.0,0.0,-0.907,-0.9646,0.0,0.0,0.0,0.0,0.0,0.0,-1.1006,0.0,-1.121,0.0,0.0,0.0,0.0,-1.2025,-1.2452,-1.2671,0.0,0.0,0.0,0.0,0.0,0.0,0.0,0.0,0.0,-1.0174,0.0,0.0,-1.2537,-1.3138,-1.3919,-1.5488,-1.6553,0.0,-1.8296,-2.0198,-2.2167,-2.3346,-2.4267,-2.5029,-2.5545,-2.5658,-2.5646,-2.5609,-2.5595,-2.56,-2.5597,-2.5601,-2.5601,-2.5601,-2.5601,-2.5601,-2.5601,-2.5601,-2.5601,-2.5601,-2.5601,-2.5597,-2.5599,-2.56,-2.5605,-2.56,-2.5655,-2.57,-2.57,-2.5701,-2.5697,-2.5697,-2.5697,-2.5697,-2.5697,-2.5697,-2.5697,-2.5697,-2.5697,-2.5705,-2.5703,-2.5699,-2.5695,-2.5704,-2.5697,-2.5699,-2.5699,-2.5699,-2.5699,-2.5699,-2.5699,-2.5699,-2.5699,0.0,0.0,-0.9028,-0.9101,0.0,0.0,0.0,0.0,0.0,0.0,0.0,-0.9847,0.0,0.0,0.0,-0.8808,0.0,0.0,0.0,0.0,0.0,0.0,0.0,0.0,0.0,0.0,0.0,0.0,0.0,0.0,0.0,0.0,-1.0196,-1.0196,0.0,-1.0196,0.0,0.0,0.0,0.0,-1.1281,-1.176,-1.2377,-1.1583,0.0,0.0,0.0,0.0,0.0,0.0,0.0,0.0,-1.024,-1.0321,-1.075,-1.2418,-1.2864,-1.3372,-1.5987,-1.7282,-1.8112,-1.9062,-2.0625,-2.2349,-2.4011,-2.502,-2.5603,-2.5595,-2.5597,-2.5601,-2.5598,-2.5595,-2.5601,-2.5601,-2.5601,-2.5601,-2.5601,-2.5601,-2.5597,-2.5597,-2.5597,-2.5597,-2.5597,-2.5597,-2.5604,-2.56,-2.5615,-2.5614,-2.5611,-2.5671,-2.57,-2.57,-2.5703,-2.5697,-2.5699,-2.5697,-2.5699,-2.5701,-2.5699,-2.5699,-2.5701,-2.5699,-2.5697,-2.5703,-2.5701,-2.5704,-2.5699,-2.5699,-2.5699,-2.5699,-2.5699,-2.5699,-2.5699,-2.5699,-2.5699,-2.5699,0.0,0.0,-0.8274,-0.8391,0.0,0.0,0.0,0.0,-0.9706,-0.9721,-0.9763,-0.9812,-0.9839,-0.9719,0.0,-0.964,-0.971,0.0,0.0,0.0,0.0,0.0,0.0,0.0,0.0,0.0,0.0,0.0,0.0,0.0,0.0,0.0,0.0,-1.0196,0.0,-1.0196,0.0,0.0,0.0,-1.0386,-1.0383,-1.0492,-1.0637,-1.0452,-1.0381,0.0,0.0,0.0,0.0,0.0,0.0,0.0,-1.1188,-1.164,-1.2369,-1.3431,-1.3286,-1.3369,-1.599,-1.6841,0.0,-1.8906,-2.1034,-2.3023,-2.4076,-2.4986,-2.56,-2.5599,-2.5596,-2.5599,-2.56,-2.5597,-2.5601,-2.5601,-2.5601,-2.5601,-2.5601,-2.5604,-2.56,-2.56,-2.5595,-2.5595,-2.5595,-2.5595,-2.5599,-2.5603,-2.5652,-2.5681,-2.5684,-2.5688,-2.5703,-2.5703,-2.5695,-2.5702,-2.5701,-2.5702,-2.5697,-2.5703,-2.5702,-2.5703,-2.5703,-2.5702,-2.5703,-2.5699,-2.5704,-2.5697,-2.5699,-2.5699,-2.5699,-2.5699,-2.5699,-2.5699,-2.5699,-2.5699,-2.5699,-2.5699,0.0,0.0,0.0,0.0,0.0,0.0,0.0,0.0,-0.9488,-0.9173,-0.9458,-0.9579,-0.9254,-0.9233,0.0,0.0,-0.8958,-0.858,0.0,0.0,0.0,0.0,0.0,0.0,0.0,0.0,0.0,0.0,0.0,0.0,0.0,0.0,0.0,-1.0144,0.0,-1.0144,0.0,0.0,-1.0044,-1.0049,-1.0052,-1.0044,-1.0049,-1.0044,-1.0049,-1.0058,-1.0091,0.0,0.0,0.0,0.0,0.0,0.0,0.0,-1.2866,-1.3745,-1.3434,-1.3461,-1.65,0.0,0.0,-1.9335,0.0,-2.2649,-2.3493,-2.4029,-2.4476,-2.489,-2.5313,-2.5595,-2.5597,-2.5601,-2.5601,-2.5601,-2.5601,-2.5597,-2.5604,-2.56,-2.5605,-2.5604,-2.5603,-2.5601,-2.5601,-2.5601,-2.5605,-2.5645,-2.5684,-2.5703,-2.5698,-2.5705,-2.5697,-2.5697,-2.5704,-2.5699,-2.5702,-2.5702,-2.5703,-2.57,-2.5703,-2.5701,-2.5702,-2.5698,-2.5704,-2.5698,-2.5704,-2.5699,-2.5699,-2.5699,-2.5699,-2.5699,-2.5699,-2.5699,-2.5699,-2.5699,-2.5699,-2.5699,0.0,0.0,0.0,0.0,0.0,0.0,0.0,0.0,0.0,-0.8518,-0.888,-0.9023,-0.861,-0.8523,-0.8582,0.0,0.0,0.0,-0.7622,0.0,0.0,0.0,0.0,0.0,0.0,0.0,0.0,0.0,0.0,0.0,0.0,0.0,0.0,-1.0096,0.0,0.0,0.0,0.0,-1.0006,-1.0001,-1.0004,-0.9913,-0.9788,-0.9943,-0.9911,-0.9806,-1.0015,-1.0077,-1.0068,-1.002,0.0,0.0,0.0,0.0,-1.2873,-1.3745,-1.3544,-1.3718,-1.6907,0.0,-1.7675,-1.994,-2.1153,-2.1965,-2.262,-2.2891,-2.3202,-2.3925,-2.4649,-2.5154,-2.5154,-2.5271,-2.5329,-2.5183,-2.5286,-2.5385,-2.5382,-2.5391,-2.5453,-2.5596,-2.5619,-2.5622,-2.5622,-2.5622,-2.5639,-2.5703,-2.5703,-2.5698,-2.5697,-2.5697,-2.5697,-2.5697,-2.5699,-2.5703,-2.5703,-2.5702,-2.5698,-2.5705,-2.5705,-2.5699,-2.5703,-2.5703,-2.5703,-2.5703,-2.57,-2.5699,-2.5699,-2.5699,-2.5699,-2.5699,-2.5699,-2.5699,-2.5699,-2.5699,-2.5699,-2.5699,0.0,0.0,0.0,0.0,0.0,0.0,0.0,0.0,0.0,0.0,-0.7857,-0.7753,-0.8358,-0.8465,-0.8785,-0.9486,-0.956,-0.9246,0.0,0.0,0.0,0.0,0.0,0.0,0.0,0.0,0.0,0.0,0.0,0.0,0.0,0.0,0.0,-1.0096,0.0,0.0,0.0,0.0,-1.0006,-1.0001,-0.9998,-0.9551,-0.8959,-0.9718,-0.9528,-0.8978,-0.9742,-1.0013,-1.0009,-1.0001,-1.0579,0.0,0.0,0.0,-1.2868,-1.3744,-1.3972,-1.436,-1.6339,0.0,-1.9132,0.0,-2.1115,-2.1741,-2.1852,-2.2464,-2.3027,-2.3154,-2.327,-2.3348,-2.3348,-2.396,-2.4226,-2.3464,-2.3976,-2.4467,-2.4467,-2.452,-2.4843,-2.5597,-2.5686,-2.5693,-2.5693,-2.5693,-2.5693,-2.5705,-2.5695,-2.5695,-2.5697,-2.5697,-2.5697,-2.5697,-2.5699,-2.5703,-2.5701,-2.57,-2.5701,-2.57,-2.57,-2.57,-2.5697,-2.5697,-2.5697,-2.5697,-2.5699,-2.5699,-2.5699,-2.5699,-2.5699,-2.5699,-2.5699,-2.5699,-2.5699,-2.5699,-2.5699,-2.5699,0.0,0.0,0.0,0.0,0.0,0.0,0.0,0.0,0.0,0.0,0.0,-0.761,-0.7064,-0.7825,-0.8548,-0.8938,-0.8985,0.0,0.0,0.0,0.0,0.0,0.0,0.0,0.0,0.0,0.0,0.0,0.0,0.0,0.0,-0.9498,-0.9562,0.0,0.0,0.0,0.0,0.0,-0.9744,-0.9363,-0.9812,-0.9769,-0.947,-0.9855,-1.0039,-1.0086,-1.0025,-1.0006,-0.9997,-0.9999,-1.0551,-1.1262,-1.132,0.0,0.0,0.0,-1.3318,-1.3863,-1.6093,-1.7916,-1.9409,0.0,-2.0769,-2.1148,-2.16,-2.1648,-2.1735,-2.2236,-2.1939,-2.1886,-2.2829,-2.3309,-2.345,-2.3062,-2.3315,-2.3586,-2.362,-2.4066,-2.4539,-2.4927,-2.4971,-2.516,-2.5648,-2.5258,-2.517,-2.5658,-2.5697,-2.5697,-2.5697,-2.5704,-2.5698,-2.5698,-2.5703,-2.5696,-2.5701,-2.5701,-2.5704,-2.5699,-2.5699,-2.5699,-2.5699,-2.5699,-2.5699,-2.5699,-2.5699,-2.5699,-2.5699,-2.5699,-2.5699,-2.5699,-2.5699,-2.5699,-2.5699,-2.5699,-2.5699,-2.5699,0.0,0.0,0.0,0.0,0.0,0.0,0.0,0.0,0.0,0.0,0.0,-0.7189,-0.6007,0.0,0.0,0.0,-0.851,0.0,0.0,0.0,0.0,0.0,0.0,0.0,0.0,0.0,0.0,0.0,0.0,0.0,-0.9538,-0.9136,-0.9267,0.0,-0.9931,-0.9935,0.0,0.0,0.0,-0.9134,-0.9718,-0.9969,-1.002,-1.0187,-1.0653,-1.1118,-1.0504,-1.0292,-1.0271,-1.0072,-1.0404,-1.0903,-1.0954,-1.1568,0.0,0.0,0.0,0.0,0.0,0.0,-1.9027,-1.9679,-2.0163,-2.057,-2.0943,-2.0745,-2.0661,-2.1307,-2.0936,-2.0877,-2.2115,-2.2517,-2.26,-2.2406,-2.2546,-2.2685,-2.2763,-2.3337,-2.3842,-2.4046,-2.4065,-2.4407,-2.5287,-2.4585,-2.4426,-2.5297,-2.516,-2.5043,-2.5043,-2.5045,-2.5038,-2.5038,-2.5042,-2.5037,-2.5037,-2.5255,-2.5368,-2.5368,-2.5592,-2.5699,-2.5699,-2.5699,-2.5699,-2.5699,-2.5699,-2.5699,-2.5699,-2.5699,-2.5699,-2.5699,-2.5699,-2.5699,-2.5699,-2.5699,-2.5699,-2.5699,0.0,0.0,0.0,0.0,0.0,0.0,0.0,0.0,0.0,0.0,0.0,-0.5828,-0.5809,-0.6556,-0.7372,-0.8142,-0.8959,0.0,0.0,0.0,0.0,0.0,0.0,0.0,0.0,0.0,0.0,0.0,0.0,0.0,-0.8594,-0.9318,-0.9634,-0.9628,-0.9818,-0.9866,-0.981,0.0,0.0,-0.984,-0.9818,-0.9885,-1.0075,-1.0709,-1.1051,-1.1188,-1.1075,-1.1083,-1.102,-1.0262,-1.0035,-1.0063,-1.0068,-1.0669,-1.1369,0.0,0.0,0.0,0.0,-1.6686,0.0,-1.8017,-1.9231,-2.0201,-1.9412,-1.984,-2.0425,-2.0458,-2.0492,-2.0506,-2.0535,-2.1206,-2.1526,-2.0752,-2.1266,-2.1788,-2.1862,-2.1961,-2.2309,-2.3082,-2.3169,-2.3511,-2.4378,-2.3677,-2.3531,-2.4397,-2.3696,-2.3238,-2.3238,-2.3238,-2.324,-2.324,-2.3237,-2.3244,-2.3244,-2.405,-2.4471,-2.4481,-2.5309,-2.5699,-2.5699,-2.5699,-2.5699,-2.5699,-2.5699,-2.5699,-2.5699,-2.5699,-2.5699,-2.5699,-2.5699,-2.5699,-2.5699,-2.5699,-2.5699,-2.5699,0.0,0.0,0.0,0.0,0.0,0.0,0.0,0.0,0.0,0.0,0.0,0.0,0.0,-0.5969,-0.6491,-0.7296,-0.8592,0.0,0.0,0.0,0.0,0.0,0.0,0.0,0.0,0.0,0.0,0.0,0.0,-0.6657,-0.8498,-0.8225,-0.8633,-0.9605,-0.9724,-0.9759,-0.9738,-0.9782,0.0,-0.9044,-0.9582,-1.0145,-1.0669,-1.0907,-1.1638,-1.2481,-1.1945,-1.1456,-1.103,-1.0742,-1.0354,-1.0006,-1.0006,-1.0207,-1.0582,-1.119,-1.2274,-1.3579,0.0,0.0,0.0,-1.7773,-1.874,-1.948,-1.9165,-1.9767,-2.0403,-2.04,-2.0415,-2.0434,-2.0395,-2.0662,-2.0794,-2.0542,-2.0706,-2.0885,-2.0961,-2.1467,-2.1937,-2.223,-2.2303,-2.2662,-2.3491,-2.2818,-2.2672,-2.3501,-2.3277,-2.3101,-2.3101,-2.3102,-2.3105,-2.3105,-2.3103,-2.3103,-2.3103,-2.3413,-2.3848,-2.4403,-2.4715,-2.5163,-2.5699,-2.5699,-2.5699,-2.5699,-2.5699,-2.5699,-2.5699,-2.5699,-2.5699,-2.5699,-2.5699,-2.5699,-2.5699,-2.5699,-2.5699,-2.5699,0.0,0.0,0.0,-0.4389,0.0,-0.4891,-0.6141,-0.6371,-0.6557,-0.7003,0.0,0.0,0.0,0.0,-0.6263,-0.6842,-0.8109,0.0,0.0,0.0,0.0,0.0,0.0,0.0,0.0,0.0,0.0,0.0,0.0,0.0,0.0,-0.7342,-0.7886,-0.9122,-0.8917,-0.914,0.0,0.0,-0.9409,-0.8971,-0.9778,-1.0463,-1.1056,-1.1516,-1.2382,-1.3261,-1.2684,-1.217,-1.1729,-1.1434,-1.0891,-1.0342,-1.0342,-1.0165,-1.0089,-1.0713,-1.177,-1.2988,-1.4168,0.0,0.0,-1.7332,-1.8091,-1.8688,-1.8668,-1.9336,-1.9966,-1.9956,-2.0205,-2.04,-2.04,-2.0381,-2.0391,-2.0463,-2.041,-2.0385,-2.0463,-2.0957,-2.1344,-2.1364,-2.1404,-2.1757,-2.2613,-2.1949,-2.1813,-2.2633,-2.2428,-2.2262,-2.2262,-2.2263,-2.2246,-2.2225,-2.2231,-2.2231,-2.2232,-2.2523,-2.2952,-2.3526,-2.3819,-2.4423,-2.5261,-2.5261,-2.5416,-2.5699,-2.5699,-2.5699,-2.5699,-2.5699,-2.5699,-2.5699,-2.5699,-2.5699,-2.5699,-2.5699,-2.5699,-2.5699,-0.4203,-0.4314,-0.4405,-0.4405,-0.442,-0.4693,-0.5479,-0.5621,-0.5638,-0.5664,0.0,0.0,0.0,0.0,0.0,-0.6887,-0.7568,-0.8099,-0.8345,0.0,0.0,0.0,0.0,0.0,0.0,0.0,0.0,0.0,0.0,0.0,0.0,0.0,-0.7522,-0.8142,-0.7411,-0.8019,-0.9551,-0.9551,-0.9609,-0.9747,-1.0403,-1.0804,-1.1176,-1.254,-1.3207,-1.3411,-1.3283,-1.3256,-1.3166,-1.2315,-1.1589,-1.1026,-1.1007,-1.0504,-0.9896,-0.9897,-1.1156,-1.2576,0.0,0.0,0.0,-1.6551,-1.7218,-1.7841,-1.7781,-1.8441,-1.9066,-1.9093,-1.9769,-2.0371,-2.039,-2.0349,-2.0314,-2.0388,-2.0336,-2.0317,-2.0395,-2.04,-2.0427,-2.0487,-2.05,-2.0862,-2.177,-2.11,-2.0954,-2.1801,-2.1081,-2.0603,-2.0603,-2.0601,-2.0566,-2.051,-2.0498,-2.0499,-2.05,-2.1338,-2.1776,-2.1815,-2.2659,-2.3517,-2.4364,-2.4364,-2.4822,-2.5621,-2.565,-2.566,-2.566,-2.5689,-2.5699,-2.5699,-2.5699,-2.5699,-2.5699,-2.5699,-2.5699,-2.5699,-0.4261,-0.434,-0.4405,-0.4405,-0.484,-0.5264,-0.5496,-0.6023,-0.6588,0.0,0.0,0.0,-0.7155,-0.7376,-0.7293,-0.6805,-0.7424,-0.7727,-0.7403,-0.8093,-0.7856,-0.6391,0.0,0.0,0.0,0.0,0.0,0.0,0.0,0.0,0.0,0.0,0.0,0.0,-0.7139,-0.758,-0.8513,-0.8513,-0.8885,-0.9493,-0.9681,-1.0519,-1.1696,-1.2077,-1.2961,-1.3977,-1.3941,-1.3585,-1.3115,-1.2875,-1.2379,-1.1768,-1.1242,-1.0525,-0.9887,-0.9841,-1.0702,-1.1801,-1.2449,0.0,0.0,0.0,0.0,0.0,-1.6931,-1.7566,-1.8337,-1.8967,-1.9295,-1.9637,-2.0218,-2.0345,-2.0366,-2.0336,-2.0308,-2.0344,-2.0457,-2.0464,-2.0477,-2.0497,-2.0536,-2.0666,-2.0934,-2.0739,-2.07,-2.0944,-2.0739,-2.0603,-2.0603,-2.0601,-2.0586,-2.0566,-2.0527,-2.0496,-2.0501,-2.074,-2.1182,-2.1805,-2.2036,-2.262,-2.3458,-2.3458,-2.3585,-2.3848,-2.4491,-2.4764,-2.4812,-2.5436,-2.5699,-2.5699,-2.5699,-2.5699,-2.5699,-2.5699,-2.5699,-2.5699,-0.5142,-0.5244,-0.5283,-0.5315,-0.567,-0.5952,-0.5952,-0.6386,-0.6841,0.0,0.0,0.0,-0.7621,-0.7699,-0.7437,-0.6766,-0.7097,-0.7235,-0.6975,-0.7686,-0.7475,-0.6021,-0.6703,-0.6366,0.0,0.0,0.0,0.0,0.0,0.0,0.0,0.0,0.0,0.0,-0.6107,-0.6706,-0.7952,-0.7623,-0.8189,-0.9364,-0.9987,-1.0647,-1.1324,-1.226,-1.2988,-1.3528,-1.3832,-1.3729,-1.3433,-1.3408,-1.3004,-1.2361,-1.1346,-1.0905,-1.0649,-0.9994,-1.0709,-1.1832,-1.2339,-1.3147,-1.408,-1.4992,0.0,0.0,-1.5593,-1.6697,-1.7849,-1.8017,-1.8903,-1.9788,-2.0292,-2.039,-2.0414,-2.0419,-2.0396,-2.0396,-2.0453,-2.0457,-2.0474,-2.0497,-2.0533,-2.0566,-2.0603,-2.0603,-2.0603,-2.0603,-2.0603,-2.0603,-2.0603,-2.0601,-2.0585,-2.0557,-2.0519,-2.0504,-2.0497,-2.0496,-2.0753,-2.126,-2.126,-2.1708,-2.2562,-2.2562,-2.2757,-2.3127,-2.3643,-2.3858,-2.3926,-2.4803,-2.5368,-2.5699,-2.5699,-2.5699,-2.5699,-2.5699,-2.5699,-2.5699,0.0,-0.6473,-0.649,-0.6558,-0.6652,-0.6696,-0.6612,-0.6722,-0.6782,0.0,-0.725,-0.7622,-0.7622,-0.7671,-0.7472,-0.6866,-0.6807,-0.6791,-0.6755,-0.7449,-0.7235,-0.5812,-0.6472,-0.6215,-0.4808,0.0,0.0,0.0,0.0,0.0,0.0,0.0,0.0,0.0,-0.4783,-0.5675,-0.7619,-0.69,-0.7628,-0.9382,-1.0719,-1.0914,-1.0641,-1.2699,-1.3117,-1.2693,-1.3359,-1.3717,-1.3868,-1.3824,-1.344,-1.2768,-1.1504,-1.1516,-1.1727,-1.0419,-1.1099,-1.2297,-1.2404,-1.3078,-1.395,-1.4752,-1.5168,0.0,-1.4204,-1.5883,-1.743,-1.6729,-1.8393,-2.0007,-2.0168,-2.0233,-2.0289,-2.0407,-2.0468,-2.0483,-2.0427,-2.0413,-2.0439,-2.05,-2.0513,-2.0533,-2.0593,-2.0603,-2.0603,-2.0603,-2.0603,-2.0603,-2.0603,-2.0593,-2.0557,-2.0504,-2.0503,-2.0497,-2.05,-2.05,-2.05,-2.05,-2.05,-2.0909,-2.1659,-2.1659,-2.2075,-2.2815,-2.2913,-2.2961,-2.302,-2.3897,-2.4773,-2.5572,-2.566,-2.5699,-2.5699,-2.5699,-2.5699,-2.5699,-0.6135,-0.6267,-0.6343,-0.6351,-0.6983,-0.7277,-0.6694,-0.712,-0.7497,-0.7487,-0.8017,-0.8383,-0.8383,-0.8395,-0.8162,-0.7564,-0.7497,-0.7033,-0.5922,-0.66,-0.6385,-0.4912,-0.5611,-0.5594,-0.4658,-0.484,0.0,0.0,0.0,0.0,0.0,0.0,0.0,0.0,-0.4502,-0.5322,-0.6822,-0.6671,-0.7793,-0.9719,-1.0165,-1.0664,-1.1222,-1.2301,-1.296,-1.3325,-1.3536,-1.3658,-1.3765,-1.392,-1.3462,-1.2796,-1.2588,-1.2238,-1.1858,-1.1577,-1.1801,-1.229,-1.2983,-1.3326,-1.3562,-1.3884,-1.4969,0.0,-1.4231,-1.5309,-1.6576,-1.6525,-1.6914,-1.7476,-1.8202,-1.8893,-1.9359,-1.9394,-2.0019,-2.0514,-2.0557,-2.0562,-2.0574,-2.0578,-2.0578,-2.059,-2.0603,-2.0603,-2.0603,-2.0603,-2.0603,-2.0603,-2.0603,-2.0547,-2.0505,-2.0504,-2.0504,-2.0503,-2.05,-2.05,-2.05,-2.05,-2.05,-2.0588,-2.0753,-2.0753,-2.0851,-2.1055,-2.1747,-2.2046,-2.2114,-2.2991,-2.3867,-2.4715,-2.5426,-2.5699,-2.5699,-2.5699,-2.5699,-2.5699,-0.7054,-0.7199,-0.7249,-0.7249,-0.7728,-0.7972,-0.7595,-0.7896,-0.814,-0.811,-0.8335,-0.8487,-0.845,-0.8538,-0.8504,-0.8263,-0.7904,-0.7397,-0.6697,-0.6681,-0.6222,-0.5147,-0.5517,-0.5576,-0.5207,-0.4866,0.0,0.0,0.0,0.0,0.0,0.0,0.0,0.0,-0.4947,-0.5769,-0.7145,-0.7145,-0.7985,-0.938,-1.0182,-1.0967,-1.1734,-1.2428,-1.2933,-1.3244,-1.3244,-1.3387,-1.3573,-1.3782,-1.3619,-1.3283,-1.2952,-1.315,-1.3272,-1.2131,-1.2392,-1.3086,-1.321,-1.3275,-1.3438,-1.4016,-1.4812,0.0,0.0,-1.4689,-1.573,-1.6202,-1.6352,-1.6788,-1.8065,-1.8681,-1.9013,-1.9042,-1.9836,-2.0463,-2.0498,-2.0561,-2.0604,-2.0597,-2.0596,-2.0603,-2.0603,-2.0603,-2.0603,-2.0603,-2.0603,-2.0603,-2.0603,-2.0537,-2.0504,-2.0504,-2.0501,-2.05,-2.05,-2.05,-2.05,-2.05,-2.05,-2.05,-2.05,-2.05,-2.05,-2.0519,-2.0958,-2.1153,-2.1221,-2.2085,-2.2708,-2.3186,-2.4062,-2.4403,-2.4403,-2.4403,-2.4403,-2.4403,-0.7961,-0.8145,-0.8158,-0.8164,-0.8314,-0.8455,-0.8454,-0.8509,-0.8513,-0.8434,-0.8398,-0.8409,-0.8491,-0.8544,-0.8747,-0.9147,-0.8401,-0.7891,-0.79,-0.7202,-0.6487,-0.5805,-0.5835,-0.5832,-0.5761,-0.519,0.0,0.0,0.0,0.0,0.0,-0.4521,-0.4867,-0.5409,-0.5455,-0.6295,-0.7656,-0.7636,-0.8221,-0.9267,-1.0388,-1.1112,-1.1637,-1.2409,-1.2737,-1.278,-1.2893,-1.3113,-1.3362,-1.3567,-1.3702,-1.3697,-1.3136,-1.383,-1.453,-1.2825,-1.3245,-1.4157,-1.3808,-1.3757,-1.3906,-1.4373,-1.4797,-1.4809,0.0,0.0,0.0,-1.5693,-1.5897,-1.6413,-1.7766,-1.8188,-1.8374,-1.845,-1.9377,-2.0036,-1.9897,-2.0115,-2.0361,-2.0557,-2.0575,-2.0582,-2.0581,-2.044,-2.0417,-2.0593,-2.0437,-2.0419,-2.0586,-2.0537,-2.0503,-2.0502,-2.0499,-2.05,-2.05,-2.05,-2.05,-2.05,-2.05,-2.05,-2.05,-2.05,-2.05,-2.05,-2.05,-2.05,-2.0549,-2.126,-2.1552,-2.165,-2.2689,-2.3098,-2.3098,-2.3098,-2.3098,-2.3117,-0.7724,-0.7892,-0.8027,-0.8025,-0.8147,-0.8259,-0.8314,-0.8327,-0.8288,-0.8162,-0.8239,-0.8529,-0.9126,-0.8783,-0.907,-1.0449,-0.9348,-0.8578,-0.8587,-0.7893,-0.7162,-0.6427,-0.6462,-0.6223,-0.5638,0.0,0.0,0.0,0.0,0.0,0.0,0.0,-0.4771,-0.5401,-0.5404,-0.6192,-0.7519,-0.7399,-0.8556,-1.0489,-1.0527,-1.0307,-1.0113,-1.1499,-1.1982,-1.2038,-1.2791,-1.3102,-1.3164,-1.3371,-1.3437,-1.3461,-1.351,-1.3711,-1.4037,-1.4485,-1.4839,-1.5187,-1.5773,-1.594,-1.5644,-1.4372,-1.5153,-1.565,-1.3542,0.0,-1.5357,-1.4802,0.0,-1.4945,-1.5131,0.0,0.0,-1.6497,-1.7898,-1.875,-1.8099,-1.8682,-1.9513,-2.0406,-2.0507,-2.0513,-2.0514,-1.9871,-1.9773,-2.0544,-1.988,-1.9777,-2.0565,-2.0536,-2.0501,-2.05,-2.0501,-2.05,-2.05,-2.05,-2.05,-2.05,-2.05,-2.05,-2.05,-2.05,-2.05,-2.05,-2.05,-2.05,-2.051,-2.0607,-2.0646,-2.0812,-2.2455,-2.3098,-2.3098,-2.3098,-2.3098,-2.3205,-0.7626,-0.7709,-0.7768,-0.7768,-0.7911,-0.803,-0.8065,-0.8524,-0.8783,-0.8492,-0.8768,-0.9081,-0.927,-0.9271,-0.9681,-1.0704,-0.9903,-0.9328,-0.9286,-0.8231,-0.7466,-0.7152,-0.6788,-0.669,-0.6876,-0.6062,0.0,0.0,-0.4998,0.0,0.0,0.0,-0.5376,-0.6003,-0.6428,-0.7335,-0.8527,-0.8189,-0.8791,-0.9949,-0.9978,-0.9837,-0.9851,-1.171,-1.2401,-1.2433,-1.2789,-1.2985,-1.3049,-1.3052,-1.321,-1.3396,-1.337,-1.4135,-1.4994,-1.4864,-1.5506,-1.6229,-1.6194,-1.615,-1.6,-1.5467,-1.5456,-1.5325,-1.4282,-1.3989,-1.4056,-1.457,0.0,0.0,0.0,0.0,0.0,0.0,-1.7056,-1.7836,-1.7563,-1.7872,-1.8329,-1.8867,-1.8928,-1.9134,-1.9646,-1.8958,-1.9059,-2.0436,-1.9735,-1.9617,-2.0496,-2.0515,-2.0498,-2.0498,-2.0501,-2.05,-2.05,-2.05,-2.05,-2.05,-2.05,-2.05,-2.05,-2.05,-2.05,-2.05,-2.05,-2.05,-2.05,-2.05,-2.05,-2.0568,-2.1309,-2.1588,-2.1586,-2.1594,-2.1909,-2.2405,-0.7557,-0.7589,-0.7612,-0.7635,-0.7753,-0.7847,-0.7876,-0.8453,-0.8843,-0.8713,-0.9111,-0.9519,-0.9797,-0.9962,-1.04,-1.127,-1.0556,-1.0111,-1.0269,-0.8944,-0.8159,-0.8179,-0.7513,-0.734,-0.774,-0.669,-0.6341,-0.6746,-0.5618,-0.5045,0.0,0.0,-0.6111,-0.6721,-0.7256,-0.8165,-0.9269,-0.8876,-0.9165,-0.9892,-0.9962,-1.0143,-1.0543,-1.1939,-1.2595,-1.2738,-1.2727,-1.2773,-1.2858,-1.2789,-1.3008,-1.3311,-1.3453,-1.4448,-1.5518,-1.5352,-1.6109,-1.6921,-1.6675,-1.6535,-1.6386,-1.6186,-1.5557,-1.4891,-1.4467,-1.3761,-1.3487,-1.4502,-1.4139,0.0,0.0,0.0,-1.5636,-1.5546,0.0,-1.6977,-1.6628,-1.6857,-1.7236,-1.7721,-1.7766,-1.8024,-1.8673,-1.7998,-1.8234,-1.9993,-1.9314,-1.9312,-2.0437,-2.0501,-2.0496,-2.0504,-2.05,-2.0503,-2.05,-2.05,-2.05,-2.05,-2.05,-2.05,-2.05,-2.05,-2.05,-2.05,-2.05,-2.05,-2.05,-2.05,-2.05,-2.05,-2.05,-2.0501,-2.0496,-2.0504,-2.105,-2.1835,-0.7498,-0.7566,0.0,-0.7687,-0.7709,-0.7724,-0.779,-0.7834,-0.8057,-0.8621,-0.8994,-0.9709,-1.0994,-1.0854,-1.123,-1.2616,-1.1474,-1.0969,-1.1694,-1.0343,-0.956,-0.9632,-0.8927,-0.8246,-0.7615,-0.7557,-0.7225,-0.6605,-0.6555,-0.6496,0.0,0.0,0.0,0.0,-0.7497,-0.8172,-0.9287,-0.9073,-0.9827,-1.1133,-1.1005,-1.1536,-1.236,-1.1819,-1.2042,-1.2599,-1.253,-1.2507,-1.2546,-1.2662,-1.2842,-1.3165,-1.4009,-1.4435,-1.493,-1.6408,-1.6848,-1.7057,-1.7749,-1.7757,-1.7252,-1.6027,-1.5364,-1.4681,-1.3518,-1.387,-1.4459,-1.4501,-1.5306,-1.6011,-1.6055,-1.6089,-1.5869,-1.5216,-1.5962,0.0,0.0,-1.5338,-1.6392,-1.7554,-1.7701,-1.7742,-1.7831,-1.7057,-1.727,-1.9012,-1.8342,-1.8621,-2.0396,-2.0497,-2.0499,-2.0502,-2.0498,-2.0499,-2.05,-2.05,-2.05,-2.05,-2.05,-2.05,-2.05,-2.05,-2.05,-2.05,-2.05,-2.05,-2.05,-2.05,-2.05,-2.05,-2.05,-2.0501,-2.0498,-2.0498,-2.1053,-2.1926,-0.7489,0.0,-0.7557,-0.762,-0.7627,-0.794,-0.8857,-0.8845,-0.8998,-0.9725,-0.9956,-1.0298,-1.0929,-1.1149,-1.1627,-1.2576,-1.1832,-1.1448,-1.1775,-1.0417,-0.9845,-1.0401,-0.9255,-0.8722,-0.8985,-0.8029,-0.7417,-0.7192,-0.6711,-0.6454,0.0,0.0,0.0,0.0,-0.7871,-0.8645,-0.966,-0.92,-0.9698,-1.0812,-1.1005,-1.1567,-1.2291,-1.2211,-1.2351,-1.2522,-1.2507,-1.2507,-1.2479,-1.2455,-1.2681,-1.301,-1.3094,-1.4002,-1.514,-1.5533,-1.6321,-1.7156,-1.7397,-1.7384,-1.7042,-1.6138,-1.5419,-1.4656,-1.3626,-1.3722,-1.4,-1.3873,-1.4579,-1.5296,-1.5466,-1.5586,-1.5617,-1.5566,-1.5632,-1.5528,0.0,-1.5048,-1.5192,-1.5602,-1.5836,-1.6194,-1.6749,-1.6066,-1.6522,-1.8795,-1.8198,-1.8499,-2.0272,-2.033,-2.0363,-2.0494,-2.0458,-2.0461,-2.05,-2.05,-2.05,-2.05,-2.05,-2.05,-2.05,-2.05,-2.05,-2.05,-2.05,-2.05,-2.05,-2.05,-2.05,-2.05,-2.05,-2.0503,-2.0501,-2.0501,-2.1421,-2.2869,-0.7487,-0.7672,-0.7774,-0.7595,-0.777,-0.8219,-0.9075,-0.9506,-0.9932,-1.0435,-1.0864,-1.1155,-1.1314,-1.1636,-1.2042,-1.2517,-1.2162,-1.1875,-1.1747,-1.0793,-1.0381,-1.0686,-0.9741,-0.9309,-0.9555,-0.865,-0.8064,-0.7824,-0.7367,-0.7138,0.0,0.0,0.0,0.0,-0.8141,-0.8864,-0.9803,-0.9415,-0.9888,-1.0949,-1.1271,-1.1663,-1.2123,-1.2318,-1.2407,-1.2419,-1.2407,-1.2387,-1.2387,-1.229,-1.2514,-1.284,-1.2884,-1.3779,-1.4841,-1.4967,-1.5658,-1.6407,-1.6407,-1.6483,-1.6403,-1.577,-1.5309,-1.4804,-1.4038,-1.4152,-1.4393,-1.4259,-1.4952,-1.5635,-1.5809,-1.5768,-1.5682,-1.5598,-1.5263,-1.5004,0.0,-1.4657,-1.4471,-1.4563,-1.4822,-1.5079,-1.5315,-1.5169,-1.5764,-1.742,-1.7623,-1.8294,-1.973,-2.0062,-2.0275,-2.0425,-2.0395,-2.041,-2.05,-2.05,-2.05,-2.05,-2.05,-2.05,-2.05,-2.05,-2.05,-2.05,-2.05,-2.05,-2.05,-2.05,-2.05,-2.05,-2.05,-2.0503,-2.0501,-2.0501,-2.1599,-2.3303,-0.7487,-0.799,-0.8217,-0.7641,-0.8046,-0.8472,-0.8572,-0.975,-1.069,-1.0783,-1.1634,-1.2203,-1.2153,-1.2377,-1.2526,-1.2487,-1.2487,-1.2261,-1.1687,-1.1494,-1.1149,-1.0623,-1.0405,-1.0017,-0.9426,-0.94,-0.9085,-0.8451,-0.8478,-0.8495,-0.8508,0.0,0.0,0.0,-0.8288,-0.8804,-0.9703,-0.9684,-1.0384,-1.1489,-1.1769,-1.1877,-1.1898,-1.2112,-1.2208,-1.2254,-1.2223,-1.2203,-1.2203,-1.2203,-1.2326,-1.2617,-1.3299,-1.3684,-1.4019,-1.4718,-1.4938,-1.4962,-1.4962,-1.5254,-1.5471,-1.504,-1.5066,-1.508,-1.4648,-1.5082,-1.5588,-1.5588,-1.6327,-1.696,-1.6993,-1.6627,-1.6119,-1.542,-1.5026,-1.4664,-1.4271,-1.4262,-1.4386,-1.4574,-1.4779,-1.4569,-1.3725,-1.4506,-1.5079,-1.5145,-1.6663,-1.7976,-1.8854,-1.968,-2.0187,-2.0301,-2.0297,-2.0357,-2.0487,-2.0497,-2.05,-2.05,-2.0461,-2.0461,-2.05,-2.0461,-2.0461,-2.05,-2.05,-2.05,-2.05,-2.05,-2.05,-2.05,-2.05,-2.0501,-2.0508,-2.0547,-2.1608,-2.3154,-0.7497,-0.7915,-0.8271,-0.812,-0.791,-0.8221,-0.9622,-0.9858,-1.0399,-1.1841,-1.2441,-1.2712,-1.2697,-1.2891,-1.2828,-1.239,-1.2343,-1.2333,-1.2265,-1.1716,-1.1574,-1.1965,-1.0892,-1.049,-1.0846,-0.9852,-0.9273,-0.9141,-0.8663,-0.8454,-0.8508,0.0,0.0,0.0,0.0,-0.8659,-0.9622,-0.9475,-1.0107,-1.1208,-1.1437,-1.1534,-1.1549,-1.1855,-1.1883,-1.1811,-1.2104,-1.2203,-1.2203,-1.2203,-1.2326,-1.2498,-1.2549,-1.3044,-1.3606,-1.3644,-1.4022,-1.4397,-1.4397,-1.4832,-1.528,-1.5152,-1.5144,-1.5168,-1.5059,-1.5177,-1.5301,-1.5301,-1.5897,-1.6471,-1.6667,-1.6764,-1.6824,-1.6832,-1.6555,-1.6216,-1.5864,-1.5818,-1.5908,-1.6114,-1.6266,-1.5831,-1.4472,-1.5245,-1.5819,-1.5838,-1.68,-1.7824,-1.8854,-1.8973,-1.9411,-2.0269,-2.0299,-2.0344,-2.0418,-2.0477,-2.05,-2.049,-1.9837,-1.9867,-2.048,-1.9828,-1.9886,-2.05,-2.05,-2.05,-2.05,-2.05,-2.05,-2.05,-2.05,-2.0501,-2.0578,-2.1232,-2.1745,-2.2264,-0.7717,-0.8399,-0.9144,-0.9469,-0.9366,-0.9609,-1.0656,-1.0899,-1.1343,-1.2432,-1.3094,-1.3328,-1.2939,-1.3084,-1.3058,-1.2722,-1.2419,-1.2173,-1.1983,-1.1839,-1.1831,-1.196,-1.1437,-1.1166,-1.1262,-1.0226,-0.9562,-0.9317,-0.8671,-0.8382,-0.8407,0.0,0.0,0.0,0.0,-0.8408,-0.9191,-0.9546,-1.0236,-1.1115,-1.133,-1.1399,0.0,-1.1601,-1.1608,-1.1564,-1.1848,-1.1991,-1.2083,-1.2161,-1.2293,-1.2346,-1.2252,-1.2541,-1.2892,-1.2765,-1.2998,-1.3268,-1.3245,-1.3735,-1.4317,-1.4607,-1.4684,-1.4761,-1.5059,-1.512,-1.512,-1.512,-1.5656,-1.6179,-1.6355,-1.6439,-1.6508,-1.6589,-1.6446,-1.628,-1.6151,-1.6141,-1.6111,-1.6043,-1.634,-1.5984,-1.4526,-1.54,-1.5731,-1.4981,-1.607,-1.7005,-1.7558,-1.8227,-1.8925,-1.9615,-2.0036,-2.0292,-2.036,-2.0391,-2.0427,-2.0447,-1.996,-1.9997,-2.048,-1.9993,-2.0042,-2.05,-2.05,-2.05,-2.05,-2.05,-2.05,-2.05,-2.0499,-2.05,-2.0557,-2.1082,-2.1498,-2.1874,-0.8233,-0.922,-1.0261,-1.0819,-1.1299,-1.1612,-1.1738,-1.2338,-1.2815,-1.2921,-1.3779,-1.4052,-1.3241,-1.3328,-1.3421,-1.3336,-1.279,-1.2208,-1.1594,-1.2038,-1.2061,-1.1439,-1.1914,-1.1889,-1.1266,-1.0633,-1.0003,-0.9336,-0.8722,-0.8375,-0.8301,0.0,0.0,0.0,0.0,-0.819,-0.8755,-0.9748,-1.0523,-1.1092,-1.1254,-1.1307,-1.13,-1.1347,-1.1326,-1.1326,-1.149,-1.1681,-1.1891,-1.2104,-1.2182,-1.2182,-1.2182,-1.2182,-1.2161,-1.2104,-1.2091,-1.2077,-1.2119,-1.2553,-1.3167,-1.3951,-1.4073,-1.4187,-1.4856,-1.4939,-1.4871,-1.4871,-1.5335,-1.5796,-1.595,-1.5934,-1.5877,-1.5792,-1.5814,-1.5866,-1.5972,-1.603,-1.5903,-1.5475,-1.5887,0.0,-1.4343,-1.5346,-1.5367,-1.3631,-1.5081,-1.6048,-1.6072,-1.7554,-1.8549,-1.8906,-1.9731,-2.0196,-2.0266,-2.0296,-2.0332,-2.0391,-2.0274,-2.0306,-2.0484,-2.0364,-2.0377,-2.05,-2.05,-2.05,-2.05,-2.05,-2.05,-2.0503,-2.0495,-2.0503,-2.0514,-2.0566,-2.1032,-2.1625,-0.9475,-1.0028,-1.041,-1.0092,-1.1122,-1.2245,-1.2972,-1.3147,-1.3461,-1.4163,-1.4854,-1.5065,-1.4528,-1.4709,-1.4637,-1.4075,-1.3921,-1.3567,-1.2912,-1.2973,-1.2734,-1.2077,-1.2141,-1.2149,-1.2018,-1.1305,-1.0648,-1.0027,-0.9367,-0.8794,-0.8301,-0.8301,-0.8221,0.0,0.0,-0.8376,-0.9223,-0.9786,-1.0389,-1.092,-1.0856,-1.0832,-1.0832,-1.1015,-1.0968,-1.0859,-1.1166,-1.1416,-1.1681,-1.1941,-1.2041,-1.2041,-1.2041,-1.2041,-1.2033,-1.2012,-1.2012,-1.2134,-1.2689,-1.2925,-1.3281,-1.4534,-1.4412,-1.4187,-1.4856,-1.4574,-1.4179,-1.4244,-1.4311,-1.4554,-1.5223,-1.596,-1.6515,-1.6711,-1.6934,-1.708,-1.7051,-1.7238,-1.719,-1.6664,-1.6699,-1.6244,-1.4975,-1.5832,-1.5823,-1.4183,-1.5126,-1.6117,-1.6922,-1.7174,-1.7975,-1.9489,-1.9858,-2.004,-2.0057,-2.0222,-2.0308,-2.0311,-1.9589,-1.9667,-2.0394,-1.9666,-1.9774,-2.05,-2.05,-2.05,-2.05,-2.05,-2.05,-2.0503,-2.0504,-2.0502,-2.0502,-2.0515,-2.0609,-2.0732,-1.0968,-1.1281,-1.1408,-1.1203,-1.2166,-1.3169,-1.3729,-1.4046,-1.4277,-1.4375,-1.4737,-1.486,-1.4528,-1.4856,-1.4961,-1.4633,-1.4297,-1.3802,-1.3138,-1.3092,-1.2786,-1.2142,-1.2091,-1.2091,-1.2091,-1.141,-1.0741,-1.0104,-0.9781,-0.9135,-0.821,-0.8548,-0.8676,-0.8627,-0.8698,-0.8927,-0.9273,-0.9715,-1.0231,-1.0784,-1.0736,-1.0712,-1.0712,-1.0736,-1.0687,-1.0639,-1.0859,-1.1111,-1.14,-1.1689,-1.1869,-1.1991,-1.1991,-1.1991,-1.2059,-1.2371,-1.2463,-1.2607,-1.324,-1.3421,-1.353,-1.4031,-1.3681,-1.3233,-1.3451,-1.3263,-1.3028,-1.306,-1.3285,-1.3808,-1.4856,-1.5586,-1.6214,-1.6802,-1.6776,-1.6642,-1.657,-1.671,-1.6492,-1.5559,-1.6025,-1.5826,-1.4262,-1.4962,-1.5128,-1.4217,-1.4561,-1.5253,-1.6263,-1.6587,-1.7422,-1.8929,-1.9444,-1.9736,-1.9839,-2.0012,-2.0111,-2.0132,-1.9786,-1.9877,-2.0345,-1.9954,-2.002,-2.0453,-2.0481,-2.05,-2.05,-2.05,-2.0496,-2.0497,-2.0504,-2.0498,-2.0498,-2.0498,-2.0497,-2.0503,-1.208,-1.2297,-1.2401,-1.2339,-1.3087,-1.381,-1.4106,-1.4642,-1.4902,-1.4544,-1.4571,-1.46,-1.4515,-1.4846,-1.5143,-1.5205,-1.472,-1.4146,-1.3463,-1.3425,-1.3054,-1.2242,-1.2204,-1.2143,-1.1991,-1.1475,-1.0887,-1.0205,-1.0068,-0.9416,-0.8303,-0.8689,-0.8896,-0.8961,-0.9395,-0.955,-0.9515,-0.9825,-1.0312,-1.0845,-1.0668,-1.0614,-1.059,-1.0498,-1.0474,-1.0474,-1.059,-1.0866,-1.1237,-1.136,-1.1623,-1.1869,-1.1869,-1.1924,-1.2097,-1.2628,-1.2882,-1.3144,-1.3832,-1.3922,-1.3763,-1.3641,-1.2987,-1.2349,-1.2156,-1.1982,-1.189,-1.1915,-1.2408,-1.3181,-1.4217,-1.4804,-1.5376,-1.6128,-1.5927,-1.5661,-1.5551,-1.5676,-1.5312,-1.4123,-1.4894,-1.4869,-1.315,-1.3699,-1.4033,-1.3692,-1.3858,-1.449,-1.5646,-1.6198,-1.7074,-1.8416,-1.8998,-1.9393,-1.9584,-1.9731,-1.9858,-1.9984,-2.0086,-2.0188,-2.0283,-2.0328,-2.0366,-2.04,-2.0457,-2.0494,-2.05,-2.05,-2.0499,-2.0504,-2.0504,-2.0504,-2.0504,-2.0504,-2.0503,-2.0502,-1.2099,-1.2448,-1.2668,-1.2121,-1.2823,-1.3544,-1.3868,-1.4447,-1.4989,-1.5404,-1.5234,-1.5138,-1.5455,-1.5455,-1.5571,-1.5884,-1.5859,-1.552,-1.4849,-1.4803,-1.4227,-1.297,-1.2925,-1.2613,-1.2006,-1.193,-1.1574,-1.0898,-1.0291,-0.9625,-0.8903,-0.8355,-0.8236,-0.8502,-0.9446,-1.0078,-1.047,-1.0434,-1.0776,-1.1289,-1.061,-1.0331,-1.0331,-1.0331,-1.0331,-1.0331,-1.0331,-1.0856,-1.1475,-1.0961,-1.1087,-1.1468,-1.1468,-1.1665,-1.1971,-1.2328,-1.282,-1.3464,-1.4433,-1.4259,-1.3867,-1.4224,-1.3347,-1.2349,-1.2156,-1.1626,-1.12,-1.127,-1.1863,-1.2462,-1.2767,-1.3379,-1.3996,-1.4367,-1.4601,-1.4648,-1.4379,-1.4724,-1.4643,-1.3659,-1.3825,-1.3456,-1.2062,-1.2606,-1.2828,-1.2338,-1.3293,-1.463,-1.6327,-1.6353,-1.7117,-1.8881,-1.8934,-1.9041,-1.9243,-1.9378,-1.9591,-1.9909,-1.992,-2.0031,-2.0214,-2.0221,-2.0296,-2.04,-2.0414,-2.0439,-2.05,-2.05,-2.05,-2.0503,-2.0503,-2.0503,-2.0503,-2.0503,-2.05,-2.0498,-1.3193,-1.2977,-1.2932,-1.3062,-1.3245,-1.3638,-1.4328,-1.4809,-1.5246,-1.5675,-1.5418,-1.5262,-1.5418,-1.558,-1.5733,-1.5877,-1.5877,-1.5598,-1.4916,-1.4878,-1.4457,-1.3517,-1.3479,-1.3351,-1.3095,-1.3088,-1.2765,-1.2146,-1.1859,-1.1207,-1.0197,-1.0133,-1.0039,-0.9954,-1.099,-1.133,-1.1139,-1.0991,-1.1248,-1.1701,-1.1096,-1.1016,-1.1329,-1.1329,-1.1329,-1.1329,-1.1329,-1.166,-1.2034,-1.1798,-1.1941,-1.2187,-1.1805,-1.2055,-1.2543,-1.3091,-1.3409,-1.3785,-1.4579,-1.4342,-1.376,-1.3347,-1.2597,-1.1818,-1.1164,-1.0807,-1.0639,-1.0639,-1.1017,-1.1545,-1.2177,-1.2722,-1.3252,-1.386,-1.382,-1.3636,-1.3458,-1.3651,-1.3529,-1.2743,-1.2778,-1.2507,-1.1637,-1.1853,-1.2214,-1.2605,-1.32,-1.4143,-1.5524,-1.5827,-1.6624,-1.8109,-1.8403,-1.8653,-1.8894,-1.915,-1.9392,-1.96,-1.98,-1.9725,-1.9423,-1.9462,-1.9555,-1.9705,-2.0225,-2.0477,-2.05,-2.05,-2.05,-2.05,-2.05,-2.05,-2.05,-2.05,-2.0499,-2.0501,-1.3818,-1.3363,-1.3239,-1.367,-1.3616,-1.3816,-1.4669,-1.4911,-1.5172,-1.5617,-1.5448,-1.5352,-1.5448,-1.5492,-1.5595,-1.577,-1.5799,-1.5604,-1.5139,-1.5081,-1.4782,-1.4124,-1.4101,-1.4004,-1.381,-1.381,-1.3585,-1.3169,-1.2968,-1.2418,-1.1552,-1.1614,-1.144,-1.1082,-1.2142,-1.2339,-1.1902,-1.1762,-1.1919,-1.2209,-1.1664,-1.1649,-1.2007,-1.2007,-1.2007,-1.2007,-1.2007,-1.2229,-1.2517,-1.2343,-1.2626,-1.2963,-1.2258,-1.2396,-1.293,-1.3502,-1.3824,-1.4068,-1.4644,-1.4361,-1.3662,-1.2738,-1.2089,-1.1463,-1.0506,-1.0306,-1.0331,-1.0399,-1.0565,-1.0955,-1.1769,-1.2105,-1.2495,-1.316,-1.2985,-1.2742,-1.2644,-1.2778,-1.2705,-1.2165,-1.2216,-1.2018,-1.1369,-1.1753,-1.2242,-1.2759,-1.3365,-1.4202,-1.5349,-1.5547,-1.6192,-1.7497,-1.7963,-1.8281,-1.8463,-1.8824,-1.8982,-1.8966,-1.9295,-1.9111,-1.8505,-1.8841,-1.9185,-1.9556,-2.0187,-2.0481,-2.05,-2.05,-2.05,-2.05,-2.05,-2.05,-2.05,-2.0503,-2.0502,-2.0497,-1.3595,-1.3547,-1.3602,-1.3615,-1.3695,-1.4033,-1.4707,-1.4518,-1.4536,-1.5232,-1.5292,-1.5418,-1.577,-1.5193,-1.5072,-1.5733,-1.5799,-1.5799,-1.5791,-1.5791,-1.5491,-1.4805,-1.4782,-1.4476,-1.3817,-1.381,-1.381,-1.3802,-1.3138,-1.2839,-1.2854,-1.2273,-1.1787,-1.1455,-1.2453,-1.2904,-1.2891,-1.2866,-1.2866,-1.2827,-1.2222,-1.2001,-1.2007,-1.2007,-1.2007,-1.2007,-1.2007,-1.2402,-1.2788,-1.2203,-1.2808,-1.3625,-1.268,-1.2618,-1.2973,-1.3303,-1.3829,-1.4383,-1.4707,-1.4361,-1.3662,-1.2738,-1.2089,-1.1463,-1.0506,-1.0306,-1.0374,-1.0639,-1.0712,-1.0873,-1.1415,-1.1505,-1.1623,-1.1971,-1.2014,-1.1999,-1.2006,-1.2236,-1.2338,-1.2125,-1.2338,-1.2117,-1.12,-1.2419,-1.3011,-1.2369,-1.3767,-1.5184,-1.6313,-1.575,-1.6021,-1.7361,-1.7729,-1.7901,-1.7915,-1.8318,-1.8315,-1.7919,-1.826,-1.8101,-1.7558,-1.8549,-1.9477,-2.0289,-2.0366,-2.0436,-2.05,-2.05,-2.05,-2.05,-2.05,-2.05,-2.0497,-2.0496,-2.0495,-2.0493,-1.4842,-1.4589,-1.4447,-1.4127,-1.401,-1.4104,-1.4578,-1.4766,-1.505,-1.558,-1.5448,-1.5418,-1.577,-1.5617,-1.5566,-1.577,-1.5799,-1.5799,-1.5799,-1.5799,-1.5701,-1.5491,-1.5491,-1.5266,-1.4839,-1.481,-1.481,-1.481,-1.3924,-1.3388,-1.3172,-1.2973,-1.2943,-1.3065,-1.3369,-1.35,-1.3474,-1.3056,-1.3153,-1.3448,-1.2853,-1.2866,-1.3232,-1.3232,-1.3232,-1.3232,-1.3232,-1.335,-1.3468,-1.3291,-1.3474,-1.3756,-1.344,-1.3414,-1.3526,-1.3656,-1.3828,-1.398,-1.4105,-1.3688,-1.3041,-1.2343,-1.1766,-1.115,-1.0289,-1.011,-1.0161,-1.0374,-1.0424,-1.0583,-1.1125,-1.1263,-1.1422,-1.1805,-1.2297,-1.2455,-1.2009,-1.24,-1.2558,-1.2094,-1.1739,-1.1621,-1.1772,-1.2257,-1.2704,-1.3023,-1.3859,-1.4609,-1.5202,-1.5599,-1.6034,-1.65,-1.7025,-1.7392,-1.7639,-1.7902,-1.789,-1.7624,-1.7914,-1.7839,-1.7463,-1.8513,-1.915,-1.9448,-2.0108,-2.0409,-2.0441,-2.0482,-2.0499,-2.0496,-2.0494,-2.05,-2.05,-2.0501,-2.0473,-2.0429,-1.5267,-1.5051,-1.4902,-1.4603,-1.4301,-1.4225,-1.4611,-1.4678,-1.4845,-1.5262,-1.5232,-1.5262,-1.5485,-1.5639,-1.5741,-1.5799,-1.5799,-1.5799,-1.5799,-1.5799,-1.5799,-1.5799,-1.5675,-1.5514,-1.5292,-1.5179,-1.5118,-1.5118,-1.4477,-1.3986,-1.3686,-1.3686,-1.3705,-1.3788,-1.3788,-1.3788,-1.3762,-1.3279,-1.337,-1.3755,-1.3272,-1.3376,-1.3788,-1.3788,-1.3788,-1.3788,-1.3788,-1.3788,-1.3788,-1.3788,-1.3788,-1.3788,-1.3788,-1.3788,-1.3788,-1.3788,-1.3788,-1.3788,-1.3788,-1.3343,-1.2755,-1.2151,-1.1605,-1.0997,-1.0289,-1.0104,-1.0186,-1.0393,-1.0449,-1.059,-1.1022,-1.1139,-1.1342,-1.1932,-1.2409,-1.2612,-1.2276,-1.2622,-1.269,-1.2067,-1.1917,-1.2027,-1.247,-1.2998,-1.3544,-1.4054,-1.4625,-1.5046,-1.5246,-1.5631,-1.5943,-1.6117,-1.6692,-1.7109,-1.732,-1.7614,-1.7659,-1.7435,-1.7488,-1.7636,-1.7869,-1.8535,-1.906,-1.9448,-2.006,-2.0336,-2.0366,-2.0458,-2.0495,-2.0495,-2.0502,-2.0497,-2.0497,-2.0468,-2.0439,-2.0403,-1.513,-1.5069,-1.5076,-1.5037,-1.465,-1.443,-1.4739,-1.4406,-1.4196,-1.4508,-1.4814,-1.5036,-1.5006,-1.5322,-1.561,-1.5733,-1.577,-1.5799,-1.5799,-1.5799,-1.5799,-1.577,-1.5485,-1.5292,-1.5232,-1.4911,-1.4739,-1.4739,-1.4739,-1.4581,-1.4261,-1.4261,-1.4105,-1.3788,-1.3788,-1.3788,-1.3748,-1.3539,-1.3567,-1.3748,-1.3533,-1.3567,-1.3788,-1.3788,-1.3781,-1.3781,-1.3781,-1.3788,-1.3788,-1.3788,-1.3788,-1.3788,-1.3788,-1.3781,-1.3788,-1.3781,-1.3788,-1.3788,-1.3788,-1.3383,-1.2814,-1.218,-1.1603,-1.1043,-1.0482,-1.0307,-1.0349,-1.0614,-1.0663,-1.076,-1.1022,-1.1104,-1.1402,-1.2224,-1.2446,-1.2548,-1.2745,-1.2914,-1.2765,-1.2143,-1.2726,-1.3206,-1.3328,-1.4467,-1.5214,-1.5214,-1.581,-1.6171,-1.6125,-1.5811,-1.5806,-1.6199,-1.6686,-1.6934,-1.696,-1.7412,-1.7522,-1.7274,-1.7056,-1.7523,-1.8548,-1.8647,-1.919,-2.0075,-2.016,-2.0226,-2.0301,-2.0429,-2.0478,-2.0493,-2.0488,-2.0493,-2.0488,-2.0424,-2.0398,-2.0398,-1.6241,-1.6113,-1.5944,-1.5579,-1.5118,-1.4744,-1.4728,-1.4842,-1.4894,-1.4878,-1.5165,-1.5292,-1.5036,-1.5074,-1.5165,-1.5262,-1.558,-1.5799,-1.5799,-1.5799,-1.5704,-1.5418,-1.5352,-1.505,-1.4543,-1.4447,-1.4293,-1.404,-1.4293,-1.4268,-1.3914,-1.3914,-1.3881,-1.3788,-1.3788,-1.3681,-1.3493,-1.3647,-1.3607,-1.3499,-1.3641,-1.3668,-1.3661,-1.3661,-1.3628,-1.3594,-1.3621,-1.3661,-1.3661,-1.3781,-1.3788,-1.3748,-1.3567,-1.3493,-1.3533,-1.3754,-1.3788,-1.3748,-1.3533,-1.3537,-1.3402,-1.2596,-1.1676,-1.0964,-1.0984,-1.0502,-1.0135,-1.0349,-1.0399,-1.0474,-1.076,-1.1178,-1.1603,-1.197,-1.2832,-1.323,-1.2597,-1.3355,-1.3683,-1.2864,-1.3366,-1.3998,-1.4592,-1.4988,-1.5214,-1.5214,-1.581,-1.5971,-1.5449,-1.5837,-1.6099,-1.6187,-1.6316,-1.6498,-1.6693,-1.7002,-1.7103,-1.6997,-1.7407,-1.7731,-1.8019,-1.9045,-1.9654,-1.9881,-2.0049,-2.0126,-2.015,-2.0243,-2.0295,-2.0353,-2.0357,-2.0373,-2.0414,-2.0408,-2.0401,-2.0401,-1.6565,-1.6487,-1.636,-1.6111,-1.5611,-1.5258,-1.5171,-1.5214,-1.5286,-1.5196,-1.5456,-1.5621,-1.5423,-1.5205,-1.5109,-1.5135,-1.533,-1.5485,-1.558,-1.5514,-1.5366,-1.5088,-1.4935,-1.4655,-1.4293,-1.4092,-1.3894,-1.3668,-1.3894,-1.3815,-1.352,-1.352,-1.3493,-1.3397,-1.3397,-1.3323,-1.3179,-1.3329,-1.3391,-1.3425,-1.3486,-1.3554,-1.3581,-1.3467,-1.344,-1.3486,-1.352,-1.3547,-1.3615,-1.3741,-1.3788,-1.3748,-1.3499,-1.335,-1.3316,-1.3533,-1.3607,-1.3607,-1.3607,-1.3607,-1.3438,-1.2704,-1.194,-1.1438,-1.1544,-1.1041,-1.0573,-1.0691,-1.0482,-1.0435,-1.0844,-1.1325,-1.1902,-1.2696,-1.3516,-1.3954,-1.3546,-1.4107,-1.4287,-1.3546,-1.4082,-1.4664,-1.5116,-1.5464,-1.5649,-1.5649,-1.5987,-1.6033,-1.5664,-1.5994,-1.6194,-1.6194,-1.6194,-1.6316,-1.6588,-1.7085,-1.7367,-1.7454,-1.7995,-1.8287,-1.8383,-1.9253,-1.9704,-1.9764,-2.0002,-2.0097,-2.0115,-2.0177,-2.0217,-2.0265,-2.0294,-2.0294,-2.0311,-2.0339,-2.0332,-2.0311,-1.6515,-1.6515,-1.6515,-1.6515,-1.6132,-1.5793,-1.5712,-1.5594,-1.5508,-1.5423,-1.5694,-1.5871,-1.5835,-1.5389,-1.51,-1.5135,-1.4918,-1.4914,-1.5165,-1.5066,-1.4928,-1.47,-1.4415,-1.4261,-1.4196,-1.3788,-1.3581,-1.356,-1.3547,-1.344,-1.3188,-1.312,-1.3022,-1.2861,-1.282,-1.2791,-1.2791,-1.2855,-1.3035,-1.3242,-1.3263,-1.3331,-1.344,-1.3229,-1.3195,-1.3269,-1.3248,-1.3344,-1.348,-1.356,-1.36,-1.36,-1.3282,-1.3057,-1.2947,-1.3173,-1.3214,-1.3282,-1.3573,-1.3465,-1.3141,-1.2675,-1.229,-1.2019,-1.2019,-1.1572,-1.1126,-1.1126,-1.0769,-1.058,-1.1122,-1.1583,-1.2293,-1.3641,-1.4156,-1.4456,-1.4716,-1.479,-1.4622,-1.4063,-1.4564,-1.4967,-1.5034,-1.5549,-1.5895,-1.5895,-1.5895,-1.5895,-1.5895,-1.5987,-1.6041,-1.6041,-1.614,-1.6344,-1.6667,-1.7247,-1.771,-1.8056,-1.845,-1.8707,-1.8877,-1.928,-1.9526,-1.9632,-1.9958,-2.0079,-2.0088,-2.0145,-2.0181,-2.0198,-2.0248,-2.024,-2.0207,-2.0264,-2.0248,-2.0207,-1.6515,-1.6515,-1.6515,-1.6515,-1.6446,-1.6227,-1.5768,-1.5921,-1.5919,-1.5475,-1.5694,-1.5805,-1.5516,-1.5003,-1.4726,-1.4761,-1.4232,-1.4123,-1.4596,-1.4596,-1.4476,-1.4227,-1.4163,-1.4006,-1.3715,-1.3581,-1.3588,-1.3748,-1.3406,-1.3223,-1.3126,-1.2849,-1.2673,-1.2638,-1.2455,-1.2342,-1.2312,-1.2725,-1.2801,-1.2679,-1.3235,-1.3248,-1.2937,-1.2873,-1.265,-1.2318,-1.2354,-1.2609,-1.2867,-1.2632,-1.276,-1.2928,-1.2336,-1.2121,-1.2126,-1.2312,-1.2383,-1.249,-1.2931,-1.2826,-1.2661,-1.2791,-1.2469,-1.2093,-1.2093,-1.1451,-1.0871,-1.0871,-1.098,-1.1076,-1.1188,-1.2029,-1.2914,-1.348,-1.3991,-1.4342,-1.4455,-1.4431,-1.4298,-1.4031,-1.4095,-1.4221,-1.4335,-1.4452,-1.4514,-1.4514,-1.4514,-1.4514,-1.4514,-1.506,-1.5368,-1.5368,-1.5895,-1.6444,-1.6942,-1.6833,-1.7118,-1.7847,-1.7867,-1.7992,-1.8258,-1.8933,-1.9252,-1.9306,-1.9802,-2.0024,-2.0024,-2.0026,-2.0058,-2.0117,-2.0126,-2.0163,-2.0207,-2.0215,-2.0215,-2.0207,-1.6107,-1.607,-1.5944,-1.5768,-1.5901,-1.5947,-1.5776,-1.5897,-1.5971,-1.5972,-1.6136,-1.617,-1.6028,-1.5523,-1.5184,-1.5223,-1.4673,-1.4455,-1.4692,-1.4373,-1.4058,-1.3802,-1.4036,-1.4245,-1.4347,-1.4403,-1.4264,-1.4013,-1.3623,-1.321,-1.2765,-1.2368,-1.2096,-1.1993,-1.2155,-1.209,-1.1859,-1.2489,-1.2522,-1.2204,-1.2632,-1.2673,-1.2467,-1.233,-1.218,-1.2108,-1.206,-1.224,-1.2467,-1.2342,-1.2401,-1.2508,-1.2157,-1.1982,-1.1945,-1.2276,-1.2467,-1.2609,-1.2644,-1.2685,-1.272,-1.2685,-1.2608,-1.2528,-1.2528,-1.1758,-1.1192,-1.1618,-1.134,-1.1266,-1.1984,-1.2678,-1.3326,-1.3843,-1.43,-1.4571,-1.4612,-1.4621,-1.4458,-1.4043,-1.4183,-1.4231,-1.396,-1.4093,-1.4206,-1.4206,-1.4206,-1.4206,-1.4206,-1.4498,-1.4667,-1.4667,-1.5295,-1.5845,-1.623,-1.5871,-1.593,-1.6466,-1.7042,-1.7396,-1.7544,-1.8684,-1.9207,-1.9237,-1.9775,-2.0003,-2.0003,-2.0003,-2.0015,-2.0047,-2.0088,-2.0098,-2.0098,-2.0136,-2.0117,-2.0088,-1.5662,-1.5534,-1.5412,-1.5147,-1.5328,-1.5501,-1.5623,-1.575,-1.5926,-1.6287,-1.6337,-1.6337,-1.6337,-1.5852,-1.5476,-1.5399,-1.4986,-1.467,-1.4547,-1.4072,-1.381,-1.3842,-1.4251,-1.4655,-1.5057,-1.5121,-1.4845,-1.4243,-1.3873,-1.3317,-1.2608,-1.2185,-1.1894,-1.1752,-1.2086,-1.2048,-1.1801,-1.2396,-1.2457,-1.2142,-1.2373,-1.241,-1.2324,-1.203,-1.191,-1.1974,-1.1739,-1.1847,-1.2024,-1.1987,-1.2054,-1.209,-1.1951,-1.1811,-1.1811,-1.2174,-1.2383,-1.2496,-1.2431,-1.2544,-1.265,-1.2467,-1.2502,-1.2609,-1.2679,-1.1859,-1.1313,-1.213,-1.1595,-1.1353,-1.2511,-1.3015,-1.3505,-1.4148,-1.4433,-1.4655,-1.4918,-1.471,-1.4398,-1.4033,-1.3999,-1.3829,-1.3378,-1.3572,-1.3736,-1.3736,-1.3736,-1.3736,-1.3736,-1.3883,-1.4044,-1.4206,-1.4706,-1.5094,-1.5367,-1.4998,-1.4959,-1.5321,-1.633,-1.6878,-1.6973,-1.8377,-1.9057,-1.9158,-1.9654,-1.9909,-2.0003,-2.0003,-2.0003,-2.0003,-2.0058,-2.0047,-2.0014,-2.0068,-2.0047,-2.0003,-1.5238,-1.5147,-1.5108,-1.5108,-1.5108,-1.5153,-1.5153,-1.5534,-1.5832,-1.5838,-1.5832,-1.5832,-1.5832,-1.5356,-1.4881,-1.4436,-1.4311,-1.4043,-1.3529,-1.3454,-1.385,-1.486,-1.4936,-1.5025,-1.5165,-1.4993,-1.4742,-1.4392,-1.4024,-1.3576,-1.2949,-1.2672,-1.2536,-1.2494,-1.2362,-1.2362,-1.2536,-1.2719,-1.275,-1.2753,-1.317,-1.3089,-1.271,-1.232,-1.1953,-1.1588,-1.1141,-1.1201,-1.1484,-1.1136,-1.1234,-1.1479,-1.1099,-1.1109,-1.1292,-1.1521,-1.1505,-1.1536,-1.1993,-1.2144,-1.2144,-1.2144,-1.1847,-1.1695,-1.2071,-1.1217,-1.0641,-1.1552,-1.1499,-1.1443,-1.2053,-1.2605,-1.3185,-1.3888,-1.394,-1.4219,-1.5225,-1.4246,-1.3544,-1.3859,-1.2885,-1.2196,-1.2215,-1.2307,-1.2357,-1.2357,-1.2357,-1.2357,-1.2357,-1.2928,-1.3559,-1.4183,-1.4252,-1.4412,-1.467,-1.4584,-1.4792,-1.53,-1.6002,-1.6482,-1.6766,-1.7918,-1.8627,-1.8937,-1.9294,-1.966,-2.0003,-2.0003,-2.0003,-2.0003,-2.0003,-1.9993,-2.0003,-2.0003,-1.9993,-2.0003,-1.4691,-1.4414,-1.4176,-1.4176,-1.4176,-1.4269,-1.4605,-1.4823,-1.5045,-1.5316,-1.5361,-1.5361,-1.5361,-1.5186,-1.4987,-1.4821,-1.478,-1.4664,-1.4479,-1.4435,-1.4471,-1.4571,-1.4559,-1.4755,-1.5132,-1.5047,-1.482,-1.438,-1.3993,-1.3498,-1.2922,-1.2561,-1.243,-1.2403,-1.2593,-1.2562,-1.2446,-1.2719,-1.272,-1.2505,-1.2674,-1.2632,-1.241,-1.1783,-1.1566,-1.1509,-1.0821,-1.0822,-1.1093,-1.0957,-1.0995,-1.1136,-1.1104,-1.0985,-1.0888,-1.0916,-1.0948,-1.1014,-1.1468,-1.1616,-1.1542,-1.1399,-1.1442,-1.1547,-1.17,-1.1107,-1.0866,-1.1978,-1.188,-1.1807,-1.2463,-1.2761,-1.3,-1.3263,-1.3576,-1.3736,-1.3626,-1.3607,-1.3317,-1.2552,-1.2337,-1.2057,-1.1585,-1.1718,-1.1848,-1.1898,-1.1891,-1.1991,-1.2182,-1.2449,-1.2711,-1.2944,-1.2951,-1.3211,-1.3719,-1.343,-1.3647,-1.4443,-1.5275,-1.6034,-1.6745,-1.7887,-1.859,-1.8921,-1.9247,-1.9626,-2.0003,-2.0003,-2.0003,-2.0003,-2.0003,-2.0003,-2.0003,-2.0003,-2.0003,-1.9962,-1.4087,-1.3805,-1.3615,-1.3615,-1.3615,-1.371,-1.4087,-1.428,-1.4518,-1.4834,-1.488,-1.488,-1.488,-1.488,-1.4829,-1.464,-1.4686,-1.468,-1.464,-1.449,-1.4478,-1.4565,-1.4547,-1.4708,-1.5102,-1.5108,-1.488,-1.4378,-1.4085,-1.3651,-1.3134,-1.2834,-1.2733,-1.2699,-1.3005,-1.2974,-1.271,-1.2868,-1.2777,-1.2501,-1.2422,-1.2377,-1.2287,-1.1576,-1.1451,-1.1541,-1.0714,-1.0592,-1.0749,-1.0658,-1.0613,-1.0646,-1.0761,-1.0703,-1.0572,-1.0505,-1.0539,-1.0649,-1.0938,-1.1126,-1.1201,-1.1105,-1.1292,-1.1516,-1.1516,-1.1107,-1.1035,-1.2141,-1.1877,-1.1631,-1.2279,-1.2473,-1.2527,-1.2424,-1.2951,-1.3188,-1.2573,-1.2842,-1.2782,-1.1872,-1.1911,-1.182,-1.1329,-1.1482,-1.1659,-1.1776,-1.1797,-1.1891,-1.2161,-1.2182,-1.2203,-1.2203,-1.2203,-1.2426,-1.2874,-1.2695,-1.2915,-1.3576,-1.4803,-1.5731,-1.6394,-1.763,-1.8459,-1.8921,-1.9143,-1.9529,-2.0003,-2.0003,-2.0003,-2.0003,-2.0003,-2.0003,-2.0031,-2.0287,-2.0117,-1.9813,-1.351,-1.352,-1.3615,-1.3615,-1.3615,-1.3615,-1.3615,-1.4046,-1.4373,-1.4373,-1.4378,-1.4378,-1.4378,-1.4378,-1.4186,-1.3621,-1.3689,-1.3732,-1.3615,-1.3213,-1.3632,-1.5011,-1.5062,-1.5062,-1.5062,-1.5062,-1.488,-1.4378,-1.4378,-1.414,-1.3615,-1.3615,-1.3615,-1.3615,-1.3615,-1.3615,-1.3568,-1.3165,-1.3016,-1.2972,-1.2608,-1.248,-1.2433,-1.1959,-1.1799,-1.169,-1.0789,-1.0489,-1.0428,-1.0122,-0.9985,-0.9985,-0.998,-1.0132,-1.0283,-1.0278,-1.0283,-1.0317,-1.0385,-1.0715,-1.1089,-1.1399,-1.1516,-1.1516,-1.1516,-1.1077,-1.0976,-1.1896,-1.1296,-1.0757,-1.12,-1.1574,-1.1679,-1.1351,-1.1971,-1.2504,-1.25,-1.1967,-1.1724,-1.2049,-1.1561,-1.1286,-1.1475,-1.1564,-1.1703,-1.1962,-1.1991,-1.2041,-1.2083,-1.2161,-1.2203,-1.2203,-1.2203,-1.2203,-1.2203,-1.26,-1.2811,-1.2835,-1.4713,-1.5612,-1.5663,-1.7134,-1.82,-1.8904,-1.8904,-1.9313,-1.9982,-1.9982,-1.9992,-1.9992,-1.9992,-1.9992,-2.0087,-2.0901,-2.038,-1.9521,-1.3515,-1.3563,-1.3515,-1.3218,-1.3415,-1.3515,-1.3213,-1.3557,-1.3852,-1.3852,-1.36,-1.3404,-1.3404,-1.3228,-1.3002,-1.2856,-1.2852,-1.2852,-1.2813,-1.271,-1.2847,-1.3276,-1.35,-1.3632,-1.3632,-1.3632,-1.3537,-1.3404,-1.3404,-1.3357,-1.3165,-1.3165,-1.3165,-1.3165,-1.3165,-1.3035,-1.2856,-1.2972,-1.288,-1.2662,-1.2524,-1.248,-1.2428,-1.1713,-1.1603,-1.1677,-1.0852,-1.0703,-1.0869,-1.0497,-1.0351,-1.0263,-0.9813,-0.9853,-1.0054,-0.9804,-1.003,-1.0385,-1.0385,-1.0873,-1.1324,-1.1105,-1.1292,-1.1516,-1.1516,-1.137,-1.1413,-1.1965,-1.1561,-1.1114,-1.1257,-1.1116,-1.0935,-1.0841,-1.1474,-1.181,-1.1191,-1.1701,-1.1971,-1.1456,-1.137,-1.1355,-1.1416,-1.1157,-1.1101,-1.1407,-1.1615,-1.1754,-1.1826,-1.202,-1.2153,-1.2203,-1.2203,-1.2244,-1.2338,-1.3026,-1.3698,-1.4365,-1.5582,-1.6508,-1.7168,-1.7608,-1.8078,-1.8553,-1.8645,-1.8941,-1.9378,-1.9518,-1.9587,-1.9587,-1.9587,-1.9587,-1.9643,-2.0212,-2.0189,-1.9951,-1.2885,-1.2972,-1.2919,-1.2837,-1.3127,-1.3266,-1.3064,-1.3218,-1.3367,-1.3367,-1.303,-1.2788,-1.2788,-1.2613,-1.248,-1.248,-1.248,-1.2426,-1.2274,-1.2278,-1.2278,-1.2278,-1.2452,-1.2638,-1.2788,-1.2788,-1.2788,-1.2788,-1.2788,-1.2788,-1.2788,-1.2788,-1.2788,-1.2788,-1.2788,-1.2706,-1.2524,-1.255,-1.2456,-1.2229,-1.2081,-1.2026,-1.195,-1.15,-1.1407,-1.1511,-1.0866,-1.0775,-1.0881,-1.0315,-1.0058,-0.984,-0.9439,-0.9452,-0.9581,-0.9523,-0.9755,-1.0103,-1.0307,-1.0692,-1.0992,-1.0807,-1.1217,-1.159,-1.1436,-1.1516,-1.17,-1.2035,-1.1675,-1.1285,-1.1285,-1.1189,-1.0929,-1.0485,-1.113,-1.1384,-1.0432,-1.1035,-1.1357,-1.0849,-1.0883,-1.101,-1.1111,-1.0866,-1.0873,-1.1263,-1.1453,-1.1608,-1.1776,-1.197,-1.2083,-1.2112,-1.2195,-1.2422,-1.2791,-1.3722,-1.4343,-1.4652,-1.5929,-1.6794,-1.7336,-1.7623,-1.7967,-1.8329,-1.8487,-1.8708,-1.897,-1.9265,-1.9337,-1.9255,-1.9361,-1.9337,-1.9344,-2.0268,-2.0237,-1.9879,-1.181,-1.1936,-1.203,-1.2318,-1.2642,-1.2861,-1.2817,-1.2866,-1.2861,-1.2861,-1.2603,-1.2377,-1.2323,-1.2377,-1.2377,-1.2328,-1.2377,-1.2229,-1.1873,-1.1773,-1.1773,-1.1823,-1.1773,-1.1977,-1.2377,-1.2431,-1.2431,-1.2431,-1.2431,-1.2431,-1.2431,-1.2431,-1.2431,-1.2431,-1.2431,-1.2431,-1.2377,-1.2026,-1.1877,-1.1823,-1.1427,-1.1322,-1.1322,-1.1322,-1.1322,-1.1229,-1.0895,-1.0775,-1.0664,-0.9949,-0.9401,-0.9024,-0.9059,-0.905,-0.9096,-0.9403,-0.9518,-0.9681,-1.0127,-1.0283,-1.0356,-1.0472,-1.1105,-1.159,-1.1217,-1.1436,-1.1774,-1.1962,-1.157,-1.1217,-1.1251,-1.1465,-1.1302,-1.0309,-1.0916,-1.1175,-1.0191,-1.0218,-1.0331,-1.0331,-1.0324,-1.0418,-1.0712,-1.0736,-1.0907,-1.1333,-1.1445,-1.1586,-1.1797,-1.1891,-1.192,-1.1941,-1.2176,-1.2642,-1.3388,-1.4546,-1.4837,-1.4273,-1.595,-1.6715,-1.6685,-1.7339,-1.7832,-1.8159,-1.8353,-1.8518,-1.8663,-1.9123,-1.9154,-1.8954,-1.9219,-1.9154,-1.9119,-2.0699,-2.0412,-1.9573,-1.1625,-1.167,-1.1625,-1.1351,-1.1638,-1.1823,-1.1493,-1.1674,-1.1913,-1.1913,-1.1796,-1.156,-1.1082,-1.1355,-1.1368,-1.0905,-1.1267,-1.1523,-1.1423,-1.1015,-1.096,-1.1423,-1.0964,-1.1015,-1.1528,-1.1877,-1.2022,-1.2022,-1.2022,-1.2022,-1.2022,-1.2022,-1.2022,-1.2022,-1.2022,-1.1877,-1.1573,-1.1773,-1.1723,-1.1423,-1.1322,-1.1322,-1.1322,-1.1322,-1.1322,-1.1314,-1.1182,-1.1152,-1.1083,-1.0634,-0.9829,-0.9071,-0.938,-0.9425,-0.9403,-0.9478,-0.9799,-1.0083,-0.9867,-1.0171,-1.0433,-0.9985,-1.0244,-1.0659,-1.0797,-1.0948,-1.1105,-1.1142,-1.0735,-1.0448,-1.0763,-1.0592,-1.0396,-1.0496,-1.0624,-1.0658,-1.0424,-1.0515,-1.0614,-1.0614,-1.0472,-1.0545,-1.0968,-1.1022,-1.1069,-1.1155,-1.1317,-1.1311,-1.1047,-1.1259,-1.1393,-1.1445,-1.1995,-1.2605,-1.3241,-1.4641,-1.5376,-1.5435,-1.656,-1.7074,-1.709,-1.7247,-1.7471,-1.7746,-1.7936,-1.8056,-1.8102,-1.851,-1.854,-1.8312,-1.8586,-1.8531,-1.8455,-1.9817,-2.0112,-2.0035,-1.0779,-1.0834,-1.0838,-1.0757,-1.1049,-1.1238,-1.1053,-1.1191,-1.1225,-1.1065,-1.088,-1.0584,-1.0064,-1.0281,-1.034,-1.0032,-1.0289,-1.06,-1.0863,-1.0557,-1.0659,-1.1272,-1.1015,-1.0964,-1.1272,-1.1528,-1.1623,-1.1623,-1.1623,-1.1623,-1.1623,-1.1623,-1.1623,-1.1623,-1.1623,-1.1523,-1.1322,-1.1523,-1.1473,-1.1322,-1.1322,-1.1322,-1.1322,-1.1322,-1.1322,-1.1322,-1.1322,-1.116,-1.0955,-1.0574,-0.9892,-0.9303,-0.9324,-0.9306,-0.9248,-0.9248,-0.9448,-0.9651,-0.943,-0.9616,-0.9725,-0.9226,-0.9417,-0.9922,-1.0457,-1.0611,-1.0731,-1.0883,-1.084,-1.0813,-1.103,-1.104,-1.1002,-1.0953,-1.101,-1.0876,-1.0388,-1.0483,-1.0515,-1.0243,-1.0122,-1.0166,-1.0398,-1.0422,-1.0503,-1.0612,-1.0719,-1.0739,-1.0617,-1.0743,-1.0929,-1.1205,-1.1947,-1.2771,-1.3675,-1.4857,-1.5645,-1.5985,-1.6682,-1.6985,-1.6952,-1.6952,-1.7035,-1.7134,-1.7343,-1.7367,-1.732,-1.7749,-1.7768,-1.7572,-1.7958,-1.7894,-1.7702,-1.916,-1.999,-2.0479,-0.9888,-0.9943,-0.9995,-1.0308,-1.0502,-1.0643,-1.0643,-1.0592,-1.0435,-1.0111,-0.9906,-0.9658,-0.9256,-0.9357,-0.9458,-0.9614,-0.9562,-0.9825,-1.0348,-1.0297,-1.0553,-1.1272,-1.1217,-1.1171,-1.1322,-1.1322,-1.1322,-1.1322,-1.1322,-1.1322,-1.1322,-1.1322,-1.1322,-1.1322,-1.1322,-1.1322,-1.1322,-1.1322,-1.1322,-1.1322,-1.1322,-1.1221,-1.1171,-1.1171,-1.1065,-1.1011,-1.1011,-1.0731,-1.0373,-1.0056,-0.9681,-0.9281,-0.8965,-0.8823,-0.8769,-0.8769,-0.8769,-0.8769,-0.8769,-0.8769,-0.8688,-0.8365,-0.861,-0.9123,-0.9785,-1.0025,-1.0181,-1.036,-1.07,-1.096,-1.1041,-1.134,-1.1435,-1.1074,-1.1154,-1.0988,-1.0263,-1.0297,-1.026,-0.988,-0.9766,-0.971,-0.973,-0.9756,-0.9917,-1.0264,-1.0372,-1.0531,-1.0704,-1.0704,-1.0929,-1.1431,-1.2152,-1.3119,-1.4304,-1.5125,-1.5686,-1.595,-1.6309,-1.6523,-1.6617,-1.6617,-1.6599,-1.6615,-1.6777,-1.6759,-1.6633,-1.7052,-1.7085,-1.6896,-1.7379,-1.7277,-1.7048,-1.8673,-1.9941,-2.0827,-0.9669,-0.9669,-0.9669,-0.9721,-0.9469,-0.9267,-0.9267,-0.8998,-0.8735,-0.8682,-0.8928,-0.8928,-0.8424,-0.8577,-0.8988,-0.9562,-0.9514,-0.9725,-1.0352,-0.998,-1.0182,-1.1272,-1.0812,-1.0761,-1.1276,-1.1322,-1.1322,-1.1322,-1.1322,-1.1322,-1.1322,-1.1322,-1.1322,-1.1322,-1.1322,-1.1322,-1.1322,-1.1322,-1.1322,-1.1322,-1.1322,-1.0964,-1.0506,-1.0506,-1.0237,-0.9821,-0.9821,-0.955,-0.926,-0.9279,-0.8864,-0.8312,-0.8391,-0.8168,-0.7889,-0.7889,-0.7889,-0.7889,-0.7889,-0.7889,-0.7848,-0.781,-0.7848,-0.7927,-0.8099,-0.8545,-0.8833,-0.846,-0.8533,-0.8767,-0.9098,-0.931,-0.9499,-0.9781,-0.9632,-0.9661,-1.0262,-1.0141,-1.008,-1.0369,-0.9993,-0.9724,-0.9771,-0.9957,-1.0328,-1.0998,-1.1532,-1.1882,-1.1935,-1.1968,-1.2211,-1.2808,-1.301,-1.3615,-1.4701,-1.541,-1.5484,-1.4979,-1.5032,-1.5484,-1.6285,-1.6285,-1.6394,-1.6588,-1.6633,-1.6633,-1.6615,-1.6862,-1.6845,-1.667,-1.6904,-1.687,-1.6826,-1.8257,-1.9647,-2.0794,-0.9312,-0.9263,-0.9208,-0.8942,-0.8788,-0.8689,-0.8689,-0.853,-0.8318,-0.8046,-0.8246,-0.8193,-0.7738,-0.7892,-0.8099,-0.8412,-0.8359,-0.8623,-0.9256,-0.9047,-0.9305,-1.0186,-0.9984,-0.998,-1.0336,-1.034,-1.0289,-1.0241,-1.0964,-1.1322,-1.1322,-1.1175,-1.0968,-1.0812,-1.0647,-1.049,-1.034,-1.0289,-1.0241,-1.0237,-1.0174,-0.9965,-0.9762,-0.9825,-0.9673,-0.9514,-0.9562,-0.9467,-0.9315,-0.9136,-0.8889,-0.858,-0.846,-0.8299,-0.8106,-0.7972,-0.7921,-0.7877,-0.773,-0.7679,-0.7641,-0.7391,-0.7516,-0.7558,-0.7115,-0.7402,-0.7807,-0.7976,-0.8211,-0.8476,-0.8666,-0.8934,-0.9169,-0.9358,-0.9528,-0.968,-0.976,-0.9922,-0.9985,-0.989,-0.9677,-0.9544,-0.9587,-0.9861,-1.0185,-1.0505,-1.0978,-1.1291,-1.1308,-1.1296,-1.1549,-1.2074,-1.2503,-1.3043,-1.3724,-1.4387,-1.4596,-1.4299,-1.4299,-1.4505,-1.4936,-1.5264,-1.5492,-1.5607,-1.6001,-1.6136,-1.6171,-1.6262,-1.6243,-1.6163,-1.6408,-1.6678,-1.698,-1.743,-1.8444,-1.9636]}]]